     2.11           OBSERVATION DATA    G (GPS)             RINEX VERSION / TYPE
teqc 2010Oct21 OPUS Account 20111027 18:32:20UTC            PGM / RUN BY / DATE
A 1322                                                      MARKER NAME
2122                                                        MARKER NUMBER
CSMIDDLETON NGS                                             OBSERVER / AGENCY
4624K01648 TRIMBLE NETR5 4.41                               REC # / TYPE / VERS
60165452 TRM41249.00 NONE                                   ANT # / TYPE
  -759230.0574 -5558515.9930  3024312.0555                  APPROX POSITION XYZ
        2.0000        0.0000        0.0000                  ANTENNA: DELTA H/E/N
     1     1                                                WAVELENGTH FACT L1/2
     5    L1    L2    C1    P1    P2                        # / TYPES OF OBSERV
    15                                                      LEAP SECONDS
  2011     8    18    15    11    0.0000000     GPS         TIME OF FIRST OBS
                                                            END OF HEADER
 11  8 18 15 11  0.0000000  0 10G06G16G32G23G03G19G10G13G20G07
 115687341.58117  90146028.41655  22014576.469                    22014584.977
 111253898.50718  86691385.28756  21170917.875                    21170924.504
 124623774.06517  97109494.41454  23715121.938                    23715130.836
 105296703.91418  82049395.35257  20037296.852                    20037302.332
 110597806.97918  86180133.91956  21046063.727                    21046071.945
 119265397.93917  92934096.81954  22695451.570                    22695458.512
 127833316.83715  99610417.62552  24325872.500                    24325882.727
 110452636.90518  86067020.35956  21018438.094                    21018445.645
 119790915.19416  93343593.36454  22795453.836                    22795462.129
 123993927.82817  96618658.61316  23595258.625                    23595267.254
 11  8 18 15 11 30.0000000  0 10G06G16G32G23G03G19G10G13G20G07
 115683606.440 7  90143117.89645  22013865.891                    22013873.969
 111322381.267 8  86744748.45246  21183949.742                    21183956.391
 124717283.796 7  97182359.05244  23732916.352                    23732925.316
 105276248.941 8  82033456.40647  20033404.430                    20033409.820
 110559824.555 7  86150537.21846  21038835.844                    21038844.121
 119179787.437 7  92867387.38745  22679159.883                    22679167.480
 127783792.355 6  99571827.13943  24316448.102                    24316458.563
 110386563.898 8  86015534.88646  21005865.023                    21005872.297
 119874555.048 7  93408767.18744  22811370.430                    22811378.500
 123936512.563 7  96573919.489 6  23584333.414                    23584341.715
 11  8 18 15 12  0.0000000  0 10G06G16G32G23G03G19G10G13G20G07
 115680409.954 7  90140627.13445  22013257.648                    22013266.352
 111391193.484 8  86798368.31846  21197044.031                    21197051.457
 124810831.789 7  97255253.49644  23750717.945                    23750727.066
 105256280.780 8  82017896.79847  20029604.789                    20029610.066
 110522388.987 8  86121366.64446  21031711.953                    21031720.230
 119094381.427 7  92800837.28345  22662907.625                    22662915.172
 127734734.231 6  99533600.01643  24307112.984                    24307123.547
 110320795.244 8  85964286.60046  20993349.430                    20993356.793
 119958355.631 7  93474066.27344  22827317.438                    22827325.055
 123879116.625 7  96529195.381 6  23573411.250                    23573419.207
 11  8 18 15 12 30.0000000  0 10G06G16G32G23G03G19G10G13G20G07
 115677753.502 7  90138557.22645  22012751.883                    22012760.469
 111460333.301 8  86852243.52646  21210201.219                    21210207.828
 124904415.909 7  97328176.14644  23768525.914                    23768535.188
 105236801.855 8  82002718.47047  20025898.164                    20025902.879
 110485503.279 8  86092624.58546  21024692.711                    21024700.625
 119009184.048 7  92734449.81244  22646695.758                    22646701.961
 127686144.493 6  99495737.96843  24297866.977                    24297876.492
 110255333.623 8  85913277.60746  20980892.578                    20980900.418
 120042314.360 7  93539488.65144  22843293.688                    22843301.977
 123821740.092 7  96484486.509 6  23562492.398                    23562500.688
 11  8 18 15 13  0.0000000  0 10G06G16G32G23G03G19G10G13G20G07
 115675637.708 7  90136908.54045  22012349.055                    22012358.059
 111529797.939 8  86906371.78146  21223419.727                    21223426.949
 124998033.682 7  97401124.93443  23786341.586                    23786350.898
 105217813.843 8  81987922.61447  20022284.609                    20022289.594
 110449169.325 8  86064312.41746  21017778.602                    21017786.883
 118924198.493 7  92668227.33345  22630523.383                    22630529.891
 127638024.175 6  99458241.66643  24288708.813                    24288719.266
 110190181.329 8  85862509.58946  20968494.555                    20968502.555
 120126428.173 7  93605031.82144  22859300.453                    22859308.141
 123764382.919 7  96439792.619 6  23551578.188                    23551585.828
 11  8 18 15 13 30.0000000  0 10G06G16G32G23G03G19G10G13G20G07
 115674062.751 7  90135681.30245  22012049.609                    22012058.344
 111599584.044 8  86960750.52646  21236699.719                    21236706.539
 125091681.699 7  97474097.30744  23804162.523                    23804171.152
 105199317.757 8  81973510.07647  20018764.547                    20018770.039
 110413388.534 8  86036431.27946  21010969.781                    21010977.773
 118839427.207 7  92602171.82444  22614391.797                    22614398.582
 127590374.026 6  99421111.70343  24279642.070                    24279651.672
 110125340.784 8  85811984.49546  20956155.758                    20956163.086
 120210693.463 7  93670693.04044  22875335.180                    22875343.145
 123707044.013 6  96395112.983 6  23540666.102                    23540674.223
 11  8 18 15 14  0.0000000  0 10G06G16G32G23G03G19G10G13G20G07
 115673029.297 7  90134876.01745  22011852.445                    22011861.383
 111669689.067 7  87015377.77846  21250040.320                    21250047.383
 125185357.461 6  97547091.32444  23821987.898                    23821997.402
 105181315.404 8  81959482.25747  20015339.000                    20015344.652
 110378162.936 8  86008982.76846  21004266.641                    21004274.625
 118754873.626 7  92536285.95945  22598301.594                    22598308.090
 127543195.181 6  99384349.00043  24270664.320                    24270673.867
 110060814.153 8  85761704.00746  20943877.195                    20943884.363
 120295107.218 7  93736469.92844  22891399.102                    22891406.672
 123649723.119 7  96350447.376 6  23529758.922                    23529766.754
 11  8 18 15 14 30.0000000  0 10G06G16G32G23G03G19G10G13G20G07
 115672538.098 7  90134493.25845  22011759.734                    22011767.711
 111740110.361 8  87070251.48146  21263440.977                    21263447.723
 125279058.348 7  97620104.91244  23839818.805                    23839827.934
 105163808.461 8  81945840.48047  20012007.867                    20012012.828
 110343494.623 8  85981968.50246  20997669.586                    20997677.164
 118670541.043 7  92470572.27945  22582253.852                    22582260.699
 127496488.760 6  99347954.42043  24261776.313                    24261786.039
 109996604.554 8  85711670.55846  20931658.086                    20931665.473
 120379666.830 7  93802360.47144  22907489.914                    22907498.465
 123592420.119 7  96305795.687 6  23518854.656                    23518862.574
 11  8 18 15 15  0.0000000  0 10G06G16G32G23G03G19G10G13G20G07
 115672589.911 7  90134533.62845  22011769.656                    22011778.227
 111810845.293 8  87125369.58246  21276901.617                    21276908.547
 125372781.993 6  97693136.19144  23857653.672                    23857663.598
 105146799.014 8  81932586.35647  20008771.063                    20008776.086
 110309385.828 8  85955390.21746  20991178.695                    20991186.879
 118586433.144 7  92405033.67845  22566249.047                    22566255.523
 127450256.240 6  99311929.09843  24252978.531                    24252988.836
 109932714.261 8  85661885.92646  20919500.531                    20919507.609
 120464368.929 7  93868362.04644  22923608.438                    22923616.930
 123535134.340 7  96261157.465 6  23507953.266                    23507961.371
 11  8 18 15 15 30.0000000  0 10G06G16G32G23G03G19G10G13G20G07
 115673185.188 7  90134997.49645  22011882.727                    22011891.008
 111881891.321 8  87180730.08946  21290420.961                    21290428.008
 125466525.309 6  97766182.83044  23875492.867                    23875502.125
 105130288.256 8  81919720.81747  20005629.000                    20005634.625
 110275838.299 8  85929249.28946  20984794.664                    20984802.793
 118502552.823 7  92339672.43245  22550286.797                    22550293.199
 127404498.673 6  99276273.84143  24244270.891                    24244281.301
 109869145.944 8  85612352.18046  20907403.820                    20907410.977
 120549210.655 6  93934472.42044  22939753.406                    22939761.633
 123477865.593 6  96216532.462 6  23497055.594                    23497063.918
 11  8 18 15 16  0.0000000  0 10G06G16G32G23G03G19G10G13G20G07
 115674324.657 7  90135885.39845  22012099.586                    22012107.723
 111953245.461 8  87236330.68146  21303999.414                    21304006.367
 125560286.118 6  97839243.09344  23893334.555                    23893344.523
 105114277.982 8  81907245.26947  20002582.477                    20002587.750
 110242853.649 8  85903546.96946  20978517.852                    20978525.859
 118418903.466 7  92274491.10645  22534368.648                    22534375.637
 127359217.151 6  99240989.54744  24235654.258                    24235664.297
 109805902.302 8  85563071.43146  20895368.961                    20895376.398
 120634189.142 6  94000689.37444  22955924.211                    22955931.691
 123420613.535 7  96171920.484 6  23486160.414                    23486168.824
 11  8 18 15 16 30.0000000  0 10G06G16G32G23G03G19G10G13G20G07
 115676009.088 7  90137197.95245  22012420.336                    22012428.355
 112024905.698 8  87292169.80046  21317635.930                    21317642.891
 125654061.941 6  97912315.04644  23911179.820                    23911189.738
 105098770.359 8  81895161.39547  19999631.484                    19999636.727
 110210434.048 8  85878284.93746  20972348.672                    20972356.402
 118335488.708 7  92209492.63245  22518495.500                    22518502.371
 127314412.919 7  99206077.15644  24227129.414                    24227138.711
 109742986.185 8  85514045.89146  20883395.977                    20883403.605
 120719301.680 6  94067010.77144  22972120.969                    22972129.629
 123363378.255 7  96127321.583 6  23475268.992                    23475277.598
 11  8 18 15 17  0.0000000  0 10G06G16G32G23G03G19G10G13G20G07
 115678238.668 7  90138935.31245  22012844.539                    22012853.078
 112096868.328 8  87348244.55046  21331329.844                    21331336.879
 125747849.677 6  97985396.28344  23929026.859                    23929037.063
 105083766.100 8  81883469.75647  19996775.945                    19996781.465
 110178581.169 8  85853464.51446  20966287.156                    20966295.266
 118252311.427 7  92144679.18645  22502666.891                    22502674.320
 127270086.855 7  99171537.37144  24218693.266                    24218703.703
 109680399.567 8  85465277.11146  20871486.531                    20871493.461
 120804544.793 7  94133433.91244  22988341.961                    22988350.695
 123306158.962 6  96082735.123 6  23464380.258                    23464389.680
 11  8 18 15 17 30.0000000  0 10G06G16G32G23G03G19G10G13G20G07
 115681013.864 7  90141097.80445  22013372.336                    22013380.770
 112169131.213 8  87404553.26046  21345080.859                    21345088.000
 125841646.680 7  98058484.73943  23946876.352                    23946885.863
 105069266.907 8  81872171.67547  19994016.977                    19994022.773
 110147297.001 8  85829087.23546  20960334.453                    20960342.391
 118169375.049 7  92080053.46845  22486885.039                    22486892.379
 127226239.822 7  99137370.86544  24210350.313                    24210359.387
 109618144.907 8  85416766.99846  20859639.625                    20859646.793
 120889915.567 7  94199956.54244  23004587.680                    23004596.293
 123248955.497 6  96038161.035 6  23453494.617                    23453503.270
 11  8 18 15 18  0.0000000  0 10G06G16G32G23G03G19G10G13G20G07
 115684335.053 7  90143685.76645  22014004.578                    22014013.223
 112241691.329 8  87461093.58546  21358888.828                    21358895.723
 125935450.671 7  98131578.65544  23964726.430                    23964736.676
 105055274.172 8  81861268.23647  19991354.633                    19991359.668
 110116583.089 8  85805154.31546  20954489.555                    20954497.648
 118086682.748 7  92015617.93145  22471148.813                    22471156.098
 127182872.945 7  99103578.48244  24202097.469                    24202107.695
 109556225.319 8  85368517.97646  20847856.969                    20847863.762
 120975411.045 6  94266576.32044  23020856.781                    23020865.176
 123191767.499 6  95993598.976 6  23442612.086                    23442620.391
 11  8 18 15 18 30.0000000  0 10G06G16G32G23G03G19G10G13G20G07
 115688203.332 7  90146700.01845  22014741.000                    22014748.867
 112314546.696 8  87517863.98645  21372753.086                    21372759.574
 126029259.148 6  98204676.04144  23982578.203                    23982587.500
 105041790.533 8  81850761.49047  19988788.555                    19988793.871
 110086441.657 8  85781667.47746  20948753.898                    20948762.059
 118004238.098 7  91951375.37445  22455460.016                    22455467.770
 127139987.712 6  99070161.45144  24193936.867                    24193946.043
 109494643.369 8  85320532.05046  20836138.406                    20836145.125
 121061028.540 7  94333291.19944  23037149.531                    23037157.504
 123134595.104 6  95949049.071 6  23431732.961                    23431741.227
 11  8 18 15 19  0.0000000  0 10G06G16G32G23G03G19G10G13G20G07
 115692618.637 7  90150140.51845  22015580.750                    22015589.516
 112387694.190 8  87574862.00746  21386672.391                    21386679.020
 126123069.360 6  98277774.78644  24000429.508                    24000439.184
 105028816.886 8  81840652.14047  19986319.852                    19986324.906
 110056874.215 7  85758627.91045  20943127.211                    20943135.246
 117922044.286 7  91887328.26145  22439819.570                    22439826.145
 127097584.949 6  99037120.31543  24185867.250                    24185877.285
 109433401.209 8  85272810.90146  20824484.188                    20824491.402
 121146764.681 7  94400098.51544  23053464.445                    23053472.617
 123077437.691 6  95904510.837 6  23420856.211                    23420864.250
 11  8 18 15 19 30.0000000  0 10G06G16G32G23G03G19G10G13G20G07
 115697581.373 7  90154007.58845  22016525.117                    22016533.563
 112461130.868 8  87632085.36046  21400646.695                    21400653.285
 126216878.521 6  98350872.74443  24018280.852                    24018290.461
 105016354.321 8  81830941.04347  19983947.984                    19983953.598
 110027882.670 7  85736037.09046  20937610.273                    20937618.066
 117840104.370 7  91823478.98845  22424226.094                    22424233.496
 127055665.250 6  99004455.66843  24177890.430                    24177900.246
 109372501.370 8  85225356.49446  20812895.070                    20812902.105
 121232616.556 7  94466996.02144  23069801.195                    23069809.844
 123020294.863 6  95859983.986 6  23409982.063                    23409990.629
 11  8 18 15 20  0.0000000  0 10G06G16G32G23G03G19G10G13G20G07
 115703091.976 7  90158301.54745  22017574.031                    22017582.188
 112534854.559 8  87689532.36446  21414676.367                    21414682.910
 126310684.386 6  98423968.10443  24036131.781                    24036141.363
 105004404.883 9  81821629.78347  19981674.063                    19981679.664
 109999468.661 8  85713896.29346  20932203.438                    20932211.344
 117758421.748 7  91759830.22945  22408683.219                    22408690.105
 127014230.156 6  98972168.62243  24170005.594                    24170015.254
 109311946.862 8  85178171.17546  20801372.141                    20801379.445
 121318581.506 7  94533981.62644  23086160.539                    23086168.281
 122963166.599 6  95815468.458 6  23399110.547                    23399119.949
 11  8 18 15 20 30.0000000  0 10G06G16G32G23G03G19G10G13G20G07
 115709150.908 7  90163022.79345  22018726.578                    22018735.352
 112608862.307 8  87747200.71446  21428759.188                    21428765.867
 126404484.288 6  98497058.83243  24053981.430                    24053990.676
 104992969.904 8  81812719.39847  19979498.258                    19979503.813
 109971633.677 7  85692206.68346  20926906.539                    20926914.500
 117676999.840 7  91696384.58645  22393189.109                    22393195.996
 126973280.166 6  98940259.56143  24162212.859                    24162222.957
 109251739.853 8  85131256.64246  20789915.203                    20789922.418
 121404655.964 7  94601052.57944  23102540.188                    23102547.930
 122906052.636 6  95770964.097 6  23388242.242                    23388251.152
 11  8 18 15 21  0.0000000  0 10G06G16G32G23G03G19G10G13G20G07
 115715758.495 7  90168171.56545  22019984.227                    22019992.941
 112683151.586 8  87805088.44446  21442896.305                    21442902.863
 126498275.641 6  98570142.92543  24071829.594                    24071838.734
 104982050.901 8  81804211.07447  19977420.430                    19977426.055
 109944379.683 7  85670969.79946  20921720.703                    20921728.656
 117595842.090 7  91633144.82445  22377745.273                    22377751.426
 126932816.207 6  98908729.24743  24154512.797                    24154522.691
 109191883.440 8  85084615.29946  20778524.883                    20778531.746
 121490837.771 7  94668207.15644  23118939.594                    23118947.883
 122848952.602 6  95726470.599 6  23377376.031                    23377385.375
 11  8 18 15 21 30.0000000  0 10G06G16G32G23G03G19G10G13G20G07
 115722914.990 7  90173748.03745  22021346.094                    22021354.738
 112757719.626 8  87863193.39346  21457086.398                    21457092.590
 126592055.849 6  98643218.31743  24089675.805                    24089684.211
 104971649.245 8  81796105.88147  19975441.188                    19975446.641
 109917707.983 8  85650186.65246  20916645.070                    20916653.297
 117514951.566 7  91570113.27345  22362352.453                    22362358.605
 126892839.509 6  98877578.54743  24146906.258                    24146915.758
 109132379.739 8  85038248.79746  20767201.492                    20767208.566
 121577123.345 7  94735442.60444  23135359.711                    23135368.168
 122791866.277 6  95681987.752 6  23366512.891                    23366522.352
 11  8 18 15 22  0.0000000  0 10G06G16G32G23G03G19G10G13G20G07
 115730620.813 8  90179752.56145  22022812.539                    22022821.348
 112832563.806 8  87921513.50546  21471328.523                    21471334.840
 126685822.616 6  98716283.22044  24107518.758                    24107527.703
 104961766.632 8  81788405.13547  19973560.328                    19973565.781
 109891620.668 8  85629858.86746  20911680.461                    20911689.145
 117434331.720 7  91507292.62645  22347010.313                    22347017.148
 126853350.693 6  98846808.04943  24139390.727                    24139401.148
 109073231.384 8  84992159.18746  20755946.016                    20755953.242
 121663510.171 7  94802756.96844  23151798.500                    23151806.484
 122734793.326 6  95637515.383 6  23355652.680                    23355661.121
 11  8 18 15 22 30.0000000  0 10G06G16G32G23G03G19G10G13G20G07
 115738876.233 7  90186185.33745  22024383.141                    22024392.035
 112907681.608 8  87980046.84246  21485622.852                    21485629.688
 126779573.083 6  98789335.42643  24125358.945                    24125368.035
 104952404.209 8  81781109.73647  19971778.914                    19971784.262
 109866118.951 7  85609987.39946  20906828.102                    20906836.289
 117353985.641 7  91444685.34045  22331721.547                    22331727.660
 126814350.593 6  98816418.39343  24131970.016                    24131979.512
 109014441.014 8  84946348.51046  20744758.570                    20744765.738
 121749995.003 7  94870147.68544  23168256.234                    23168263.926
 122677733.643 6  95593053.282 7  23344794.914                    23344803.969
 11  8 18 15 23  0.0000000  0 10G06G16G32G23G03G19G10G13G20G07
 115747681.065 7  90193046.21945  22026058.758                    22026067.246
 112983070.035 8  88038791.05646  21499969.016                    21499975.629
 126873304.491 6  98862372.76343  24143195.563                    24143204.336
 104943562.953 9  81774220.44047  19970096.555                    19970101.711
 109841204.146 8  85590573.26746  20902086.906                    20902095.313
 117273916.305 7  91382293.68945  22316484.242                    22316490.918
 126775840.007 6  98786410.16743  24124641.313                    24124650.867
 108956010.730 8  84900818.43346  20733639.617                    20733646.777
 121836574.518 7  94937612.17344  23184731.625                    23184739.867
 122620686.716 6  95548601.157 6  23333938.922                    23333947.906
 11  8 18 15 23 30.0000000  0 10G06G16G32G23G03G19G10G13G20G07
 115757035.870 7  90200335.66345  22027839.141                    22027847.762
 113058726.417 8  88097744.05646  21514365.758                    21514372.770
 126967014.660 6  98935393.54843  24161027.477                    24161036.867
 104935244.790 8  81767738.75047  19968513.703                    19968519.051
 109816878.535 8  85571618.23646  20897457.531                    20897465.711
 117194127.368 7  91320120.51445  22301301.156                    22301307.641
 126737819.966 6  98756784.16543  24117406.219                    24117416.379
 108897943.470 8  84855571.23046  20722589.969                    20722597.348
 121923246.491 7  95005148.72144  23201224.859                    23201232.563
 122563652.690 6  95504159.063 6  23323086.406                    23323094.258
 11  8 18 15 24  0.0000000  0 10G06G16G32G23G03G19G10G13G20G07
 115766940.948 7  90208053.88845  22029723.617                    22029732.418
 113134648.226 8  88156903.87846  21528813.430                    21528820.309
 127060700.921 6  99008395.76443  24178855.938                    24178864.926
 104927451.036 8  81761665.68947  19967030.523                    19967035.598
 109793143.412 8  85553123.33246  20892941.328                    20892949.469
 117114622.001 7  91258168.30845  22286171.633                    22286178.480
 126700291.074 6  98727540.85043  24110265.914                    24110274.973
 108840241.595 8  84810608.73846  20711609.594                    20711616.684
 122010007.694 7  95072754.78644  23217735.289                    23217743.047
 122506631.241 6  95459726.808 7  23312235.195                    23312243.965
 11  8 18 15 24 30.0000000  0 10G06G16G32G23G03G19G10G13G20G07
 115777395.894 7  90216200.57045  22031713.266                    22031721.629
 113210832.826 8  88216268.47545  21543310.813                    21543317.609
 127154360.529 6  99081377.14043  24196678.992                    24196687.879
 104920182.341 8  81756001.76247  19965647.477                    19965652.648
 109770000.105 8  85535089.56946  20888537.086                    20888545.352
 117035403.182 7  91196439.40945  22271096.836                    22271103.523
 126663253.822 6  98698680.68243  24103216.539                    24103226.773
 108782907.319 8  84765932.69346  20700699.156                    20700706.082
 122096854.608 7  95140427.64944  23234261.352                    23234269.004
 122449621.717 7  95415303.827 7  23301386.797                    23301395.141
 11  8 18 15 25  0.0000000  0 10G06G16G32G23G03G19G10G13G20G07
 115788401.571 7  90224776.39845  22033808.031                    22033816.230
 113287277.312 8  88275835.57746  21557857.688                    21557864.695
 127247991.315 6  99154336.11543  24214495.742                    24214504.734
 104913441.066 8  81750748.82047  19964364.641                    19964370.141
 109747450.007 8  85517518.05846  20884246.023                    20884254.199
 116956474.603 7  91134936.64245  22256076.484                    22256083.543
 126626709.821 6  98670204.83243  24096262.867                    24096272.563
 108725943.725 8  84721545.48046  20689859.492                    20689866.863
 122183785.179 7  95208165.67244  23250803.602                    23250811.270
 122392624.620 6  95370890.524 6  23290540.906                    23290549.313
 11  8 18 15 25 30.0000000  0 10G06G16G32G23G03G19G10G13G20G07
 115799957.849 7  90233781.27245  22036007.148                    22036015.457
 113363979.170 8  88335603.22146  21572453.430                    21572460.395
 127341590.788 6  99227270.63243  24232307.617                    24232316.988
 104907227.957 8  81745907.43647  19963182.305                    19963187.734
 109725494.460 8  85500409.81946  20880067.641                    20880076.117
 116877839.491 7  91073662.56045  22241113.320                    22241120.113
 126590659.207 6  98642113.46643  24089402.742                    24089413.117
 108669353.400 8  84677449.12646  20679090.695                    20679097.465
 122270796.160 7  95275966.37044  23267361.852                    23267369.133
 122335639.343 6  95326486.422 6  23279696.477                    23279704.859
 11  8 18 15 26  0.0000000  0 10G06G16G32G23G03G19G10G13G20G07
 115812064.704 7  90243215.17245  22038310.688                    22038319.199
 113440935.998 8  88395569.55145  21587097.930                    21587105.008
 127435156.219 6  99300178.68743  24250112.625                    24250122.063
 104901544.252 8  81741478.56647  19962100.961                    19962106.121
 109704134.992 8  85483766.08646  20876003.539                    20876011.797
 116799500.553 7  91012619.26845  22226205.953                    22226212.520
 126555102.790 6  98614407.18343  24082636.289                    24082646.496
 108613138.654 8  84633645.43146  20668393.266                    20668400.023
 122357884.488 7  95343827.33544  23283933.930                    23283941.660
 122278665.687 6  95282091.428 7  23268854.430                    23268863.367
 11  8 18 15 26 30.0000000  0 10G06G16G32G23G03G19G10G13G20G07
 115824721.961 7  90253077.95445  22040719.664                    22040728.297
 113518144.804 8  88455732.22146  21601790.297                    21601797.359
 127528684.870 6  99373058.01343  24267910.641                    24267920.000
 104896391.005 8  81737463.04247  19961120.297                    19961125.258
 109683372.738 8  85467587.69346  20872052.414                    20872060.543
 116721461.460 7  90951809.61045  22211355.930                    22211362.523
 126520041.042 6  98587086.35243  24075964.188                    24075974.617
 108557301.533 8  84590135.98246  20657767.938                    20657774.961
 122445047.250 6  95411746.31444  23300519.992                    23300528.652
 122221703.129 6  95237705.042 7  23258015.180                    23258023.598
 11  8 18 15 27  0.0000000  0 10G06G16G32G23G03G19G10G13G20G07
 115837929.844 7  90263369.79645  22043232.711                    22043241.574
 113595603.073 8  88516089.27446  21616530.234                    21616537.109
 127622174.458 6  99445906.91243  24285700.906                    24285710.727
 104891769.719 8  81733862.02947  19960240.836                    19960246.086
 109663209.471 8  85451876.04946  20868215.461                    20868223.594
 116643725.328 7  90891236.03245  22196563.070                    22196569.836
 126485475.002 6  98560151.74543  24069387.195                    24069396.871
 108501845.149 8  84546923.20646  20647215.000                    20647221.594
 122532281.669 6  95479721.10044  23317121.133                    23317129.602
 122164752.070 6  95193327.598 6  23247177.805                    23247186.008
 11  8 18 15 27 30.0000000  0 10G06G16G32G23G03G19G10G13G20G07
 115851688.272 7  90274090.61945  22045850.563                    22045859.629
 113673308.085 8  88576638.59945  21631317.078                    21631323.930
 127715622.231 6  99518723.28343  24303483.422                    24303493.332
 104887681.141 8  81730676.11947  19959462.828                    19959467.637
 109643646.252 8  85436631.97746  20864492.695                    20864500.840
 116566295.024 7  90830900.73645  22181828.406                    22181835.160
 126451404.711 6  98533603.46343  24062902.945                    24062913.242
 108446771.077 8  84504008.35346  20636734.516                    20636741.391
 122619584.223 6  95547748.98544  23333734.016                    23333741.727
 122107811.600 6  95148958.417 6  23236342.188                    23236350.348
 11  8 18 15 28  0.0000000  0 10G06G16G32G23G03G19G10G13G20G07
 115865997.405 7  90285240.56745  22048573.891                    22048582.184
 113751257.345 8  88637378.26045  21646150.305                    21646157.004
 127809026.039 6  99591505.36043  24321257.594                    24321267.535
 104884126.959 8  81727906.61547  19958786.414                    19958791.555
 109624684.231 8  85421856.37446  20860884.688                    20860892.363
 116489174.457 7  90770806.79945  22167152.703                    22167159.559
 126417831.307 6  98507442.35143  24056514.852                    24056524.324
 108392083.032 8  84461394.28846  20626327.797                    20626334.797
 122706952.749 6  95615828.28744  23350359.641                    23350367.715
 122050882.287 6  95104597.956 6  23225508.531                    23225517.016
 11  8 18 15 28 30.0000000  0 10G06G16G32G23G03G19G10G13G20G07
 115880857.170 7  90296819.59145  22051401.539                    22051410.152
 113829448.234 8  88698306.20045  21661029.609                    21661036.250
 127902383.294 6  99664251.19143  24339022.422                    24339032.961
 104881108.243 8  81725554.35847  19958211.813                    19958217.094
 109606325.043 8  85407550.50746  20857390.578                    20857398.418
 116412366.267 7  90710956.28445  22152536.688                    22152543.527
 126384755.402 6  98481668.95544  24050220.180                    24050230.250
 108337783.093 8  84419082.64846  20615994.648                    20616001.730
 122794384.290 7  95683956.65344  23366997.055                    23367005.680
 121993963.593 6  95060245.778 6  23214676.391                    23214686.395
 11  8 18 15 29  0.0000000  0 10G06G16G32G23G03G19G10G13G20G07
 115896267.557 7  90308827.65445  22054334.219                    22054342.609
 113907877.926 8  88759420.22245  21675954.234                    21675961.109
 127995691.641 6  99736958.84943  24356778.969                    24356789.063
 104878626.387 8  81723620.43347  19957739.547                    19957745.043
 109588569.874 8  85393715.30546  20854011.922                    20854020.395
 116335874.122 7  90651352.01645  22137980.727                    22137987.504
 126352177.766 6  98456283.81343  24044020.656                    24044030.574
 108283873.640 8  84377075.28746  20605736.164                    20605743.184
 122881875.704 6  95752131.70244  23383646.461                    23383654.977
 121937055.475 6  95015901.805 7  23203847.703                    23203857.199
 11  8 18 15 29 30.0000000  0 10G06G16G32G23G03G19G10G13G20G07
 115912228.498 7  90321264.73045  22057371.633                    22057380.180
 113986544.079 8  88820718.49346  21690923.797                    21690930.992
 128088948.589 6  99809626.49642  24374524.813                    24374535.996
 104876682.244 8  81722105.49947  19957369.563                    19957374.953
 109571419.967 8  85380351.73346  20850748.852                    20850756.719
 116259701.203 7  90591996.49445  22123485.500                    22123492.449
 126320098.564 6  98431287.03643  24037915.859                    24037925.891
 108230357.295 8  84335374.23646  20595552.203                    20595558.867
 122969424.365 6  95820351.38044  23400306.320                    23400314.727
 121880157.632 6  94971565.807 7  23193020.508                    23193030.090
 11  8 18 15 30  0.0000000  0 10G06G16G32G23G03G19G10G13G20G07
 115928739.666 7  90334130.53945  22060513.508                    22060521.707
 114065443.894 8  88882198.83546  21705938.617                    21705945.406
 128182151.485 6  99882252.00843  24392261.813                    24392272.391
 104875276.977 8  81721010.47647  19957102.375                    19957107.426
 109554876.272 8  85367460.54646  20847600.336                    20847608.578
 116183850.421 7  90532892.00445  22109051.781                    22109058.469
 126288518.513 6  98406679.21343  24031907.219                    24031916.145
 108177236.117 8  84293981.12046  20585443.742                    20585450.723
 123057026.956 6  95888613.06244  23416976.672                    23416985.508
 121823270.010 6  94927237.786 7  23182194.563                    23182204.266
 11  8 18 15 30 30.0000000  0 10G06G16G32G23G03G19G10G13G20G07
 115945801.019 7  90347425.09245  22063760.234                    22063768.820
 114144574.919 8  88943859.34445  21720996.164                    21721003.383
 128275297.902 6  99954833.55643  24409987.039                    24409997.480
 104874411.493 8  81720336.06347  19956937.688                    19956943.285
 109538940.012 8  85355042.67446  20844568.070                    20844575.770
 116108325.190 7  90474041.18945  22094679.930                    22094686.645
 126257437.918 6  98382460.59343  24025991.852                    24026002.309
 108124513.081 8  84252898.23546  20575410.953                    20575417.961
 123144680.775 6  95956914.66144  23433656.727                    23433665.285
 121766392.392 7  94882917.602 6  23171371.445                    23171381.270
 11  8 18 15 31  0.0000000  0 10G06G16G32G23G03G19G10G13G20G07
 115963412.479 7  90361148.28545  22067111.086                    22067119.508
 114223934.195 8  89005697.70645  21736097.875                    21736104.797
 128368385.368 6 100027369.12143  24427700.766                    24427711.293
 104874086.878 8  81720083.10647  19956875.836                    19956881.121
 109523612.622 8  85343099.25546  20841651.188                    20841659.391
 116033128.021 7  90415446.00045  22080370.336                    22080376.523
 126226857.302 6  98358631.54243  24020172.773                    24020182.875
 108072190.299 8  84212127.23946  20565454.211                    20565461.398
 123232382.724 6  96025253.77544  23450346.195                    23450354.168
 121709524.492 6  94838604.992 6  23160550.148                    23160558.672
 11  8 18 15 31 30.0000000  0 10G06G16G32G23G03G19G10G13G20G07
 115981573.668 7  90375299.84545  22070567.586                    22070575.879
 114303519.547 8  89067712.24045  21751242.852                    21751249.176
 128461411.231 6 100099856.65443  24445403.141                    24445413.352
 104874304.282 8  81720252.49847  19956917.203                    19956922.262
 109508894.576 8  85331630.65146  20838850.531                    20838858.949
 115958262.872 7  90357109.54545  22066123.555                    22066130.672
 126196777.235 6  98335192.49643  24014449.867                    24014458.941
 108020269.966 8  84171669.83646  20555574.406                    20555581.070
 123320129.950 6  96093628.19044  23467043.320                    23467051.926
 121652666.505 6  94794300.119 6  23149730.914                    23149739.137
 11  8 18 15 32  0.0000000  0 10G06G16G32G23G03G19G10G13G20G07
 116000284.480 7  90389879.69345  22074127.609                    22074136.234
 114383327.955 8  89129900.58745  21766429.461                    21766436.430
 128554373.242 6 100172294.47943  24463093.281                    24463103.723
 104875064.594 8  81720844.93347  19957061.742                    19957066.883
 109494787.372 8  85320638.02646  20836165.828                    20836174.270
 115883732.733 7  90299034.13245  22051940.695                    22051947.906
 126167198.422 6  98312144.09043  24008820.469                    24008829.973
 107968755.070 8  84131528.36446  20545771.328                    20545778.488
 123407919.874 6  96162035.83443  23483749.570                    23483758.031
 121595818.020 6  94750002.629 6  23138912.813                    23138921.035
 11  8 18 15 32 30.0000000  0 10G06G16G32G23G03G19G10G13G20G07
 116019544.650 7  90404887.62145  22077793.492                    22077801.441
 114463356.824 8  89192260.70845  21781658.484                    21781665.254
 128647268.902 6 100244680.58043  24480770.391                    24480781.211
 104876368.947 8  81721861.30447  19957310.180                    19957315.617
 109481291.756 8  85310121.94746  20833597.844                    20833606.313
 115809540.936 7  90241222.36245  22037822.703                    22037829.391
 126138120.846 6  98289486.24943  24003288.211                    24003296.988
 107917647.960 8  84091704.65446  20536045.844                    20536052.789
 123495749.503 6  96230474.45444  23500463.805                    23500471.113
 121538979.212 6  94705712.657 7  23128097.086                    23128105.113
 11  8 18 15 33  0.0000000  0 10G06G16G32G23G03G19G10G13G20G07
 116039353.899 7  90420323.39045  22081562.445                    22081571.043
 114543603.760 8  89254790.75545  21796929.172                    21796935.664
 128740095.782 6 100317013.10843  24498435.914                    24498446.258
 104878218.304 8  81723302.34647  19957662.164                    19957667.555
 109468408.996 8  85300083.43046  20831146.391                    20831154.734
 115735690.187 7  90183676.35245  22023769.344                    22023776.262
 126109545.255 6  98267219.55043  23997849.953                    23997859.297
 107866950.961 8  84052200.50846  20526398.484                    20526405.816
 123583616.023 6  96298941.82944  23517183.344                    23517192.238
 121482149.815 6  94661430.015 7  23117282.453                    23117291.012
 11  8 18 15 33 30.0000000  0 10G06G16G32G23G03G19G10G13G20G07
 116059712.134 7  90436186.94545  22085436.492                    22085444.992
 114624066.203 8  89317488.73045  21812240.250                    21812246.996
 128832851.586 6 100389290.21243  24516086.664                    24516097.336
 104880613.521 8  81725168.73247  19958117.953                    19958123.273
 109456139.874 8  85290523.07446  20828811.773                    20828819.910
 115662183.685 7  90126398.58245  22009781.648                    22009787.980
 126081471.718 6  98245344.05643  23992507.438                    23992517.020
 107816666.599 8  84013017.89146  20516829.734                    20516836.902
 123671516.475 7  96367435.61043  23533910.594                    23533919.625
 121425329.567 7  94617154.501 7  23106470.070                    23106478.215
 11  8 18 15 34  0.0000000  0 10G06G16G32G23G03G19G10G13G20G07
 116080618.870 7  90452477.89845  22089415.094                    22089423.504
 114704741.512 8  89380352.56945  21827592.742                    21827599.105
 128925533.721 6 100461509.99743  24533723.039                    24533733.703
 104883555.488 8  81727461.16547  19958678.000                    19958682.871
 109444485.510 7  85281441.74746  20826593.695                    20826602.352
 115589024.841 7  90069391.71245  21995859.688                    21995866.531
 126053900.715 6  98223860.14543  23987260.500                    23987270.168
 107766797.215 8  83974158.63646  20507339.875                    20507347.113
 123759447.974 6  96435953.62344  23550643.234                    23550652.379
 121368518.489 7  94572886.155 7  23095659.453                    23095667.379
 11  8 18 15 34 30.0000000  0 10G06G16G32G23G03G19G10G13G20G07
 116102073.661 7  90469195.91745  22093498.258                    22093505.750
 114785627.377 8  89443380.48445  21842984.672                    21842991.637
 129018139.775 6 100533670.42743  24551345.453                    24551356.059
 104887045.222 8  81730180.41947  19959342.016                    19959346.941
 109433446.983 8  85272840.28746  20824493.227                    20824501.395
 115516216.577 7  90012658.02145  21982005.219                    21982011.758
 126026832.687 6  98202768.19343  23982109.367                    23982119.617
 107717345.290 8  83935624.67446  20497929.336                    20497936.188
 123847407.842 7  96504493.70144  23567381.625                    23567390.496
 121311716.513 7  94528624.895 7  23084849.938                    23084858.387
 11  8 18 15 35  0.0000000  0 10G06G16G32G23G03G19G10G13G20G07
 116124076.538 7  90486340.99945  22097685.039                    22097693.070
 114866720.869 8  89506570.18545  21858416.555                    21858423.309
 129110667.518 6 100605769.86043  24568953.109                    24568963.910
 104891083.826 8  81733327.36747  19960110.422                    19960115.531
 109423025.028 8  85264719.28846  20822509.719                    20822518.184
 115443762.437 7  89956200.26346  21968217.703                    21968224.234
 126000267.871 6  98182068.33143  23977054.773                    23977064.602
 107668313.310 8  83897417.94446  20488598.828                    20488605.891
 123935393.523 6  96573053.90144  23584125.414                    23584133.750
 121254923.597 7  94484370.695 7  23074043.078                    23074051.523
 11  8 18 15 35 30.0000000  0 10G06G16G32G23G03G19G10G13G20G07
 116146626.826 7  90503912.63445  22101975.953                    22101984.234
 114948019.495 8  89569919.73745  21873887.047                    21873894.059
 129203114.510 5 100677806.33143  24586545.375                    24586556.492
 104895672.050 8  81736902.58347  19960983.727                    19960988.688
 109413220.845 8  85257079.65746  20820644.461                    20820652.684
 115371665.407 7  89900020.78645  21954497.594                    21954504.301
 125974206.587 6  98161760.84643  23972095.656                    23972105.566
 107619703.568 8  83859540.22546  20479348.664                    20479355.746
 124023401.569 6  96641631.54144  23600872.570                    23600880.953
 121198139.766 7  94440123.576 7  23063236.805                    23063245.746
 11  8 18 15 36  0.0000000  0 10G06G16G32G23G03G19G10G13G20G07
 116169724.202 7  90521910.56445  22106371.352                    22106379.875
 115029520.891 8  89633427.28145  21889396.328                    21889403.094
 129295478.285 6 100749777.99343  24604122.281                    24604132.090
 104900810.843 8  81740906.82047  19961961.148                    19961966.633
 109404035.098 8  85249921.92446  20818896.438                    20818904.602
 115299928.453 7  89844121.86945  21940846.625                    21940853.191
 125948649.366 6  98141846.14143  23967232.070                    23967242.141
 107571518.519 8  83821993.44046  20470179.563                    20470186.348
 124111429.328 6  96710224.54144  23617623.273                    23617632.414
 121141364.758 7  94395883.312 6  23052433.352                    23052442.082
 11  8 18 15 36 30.0000000  0 10G06G16G32G23G03G19G10G13G20G07
 116193367.872 7  90540334.18845  22110870.695                    22110879.074
 115111222.547 7  89697090.87745  21904943.281                    21904950.598
 129387756.416 6 100821682.93643  24621682.227                    24621692.602
 104906500.635 8  81745340.40247  19963044.109                    19963049.715
 109395468.061 8  85243246.30146  20817266.336                    20817274.102
 115228554.594 7  89788505.89446  21927264.570                    21927271.363
 125923596.305 6  98122324.30243  23962465.320                    23962474.762
 107523760.499 8  83784779.41346  20461091.641                    20461098.320
 124199474.040 6  96778830.73944  23634377.758                    23634386.039
 121084598.427 6  94351649.836 6  23041631.047                    23041639.684
 11  8 18 15 37  0.0000000  0 10G06G16G32G23G03G19G10G13G20G07
 116217557.803 7  90559183.47445  22115473.383                    22115482.289
 115193121.712 7  89760908.37545  21920528.148                    21920535.559
 129479946.413 6 100893519.19243  24639225.430                    24639235.770
 104912742.395 8  81750204.09647  19964232.016                    19964236.867
 109387521.045 8  85237053.81546  20815753.773                    20815761.801
 115157546.966 7  89733175.29446  21913752.227                    21913758.930
 125899047.547 6  98103195.42543  23957793.977                    23957803.297
 107476431.809 8  83747899.91246  20452085.000                    20452092.203
 124287532.784 6  96847447.87844  23651134.828                    23651143.016
 121027840.727 7  94307423.115 6  23030830.391                    23030838.551
 11  8 18 15 37 30.0000000  0 10G06G16G32G23G03G19G10G13G20G07
 116242293.668 7  90578458.14945  22120181.250                    22120189.844
 115275215.780 7  89824877.75145  21936150.305                    21936157.496
 129572046.199 6 100965285.18543  24656751.648                    24656761.309
 104919537.250 8  81755498.77447  19965524.719                    19965529.973
 109380194.901 8  85231345.12246  20814359.852                    20814368.008
 115086908.829 7  89678132.59245  21900310.500                    21900317.031
 125875003.307 6  98084459.68143  23953217.289                    23953227.895
 107429535.054 8  83711357.00546  20443160.695                    20443167.785
 124375603.294 7  96916074.19244  23667894.016                    23667902.965
 120971091.823 7  94263203.186 6  23020031.922                    23020040.000
 11  8 18 15 38  0.0000000  0 10G06G16G32G23G03G19G10G13G20G07
 116267574.506 7  90598157.48745  22124991.648                    22125000.441
 115357502.162 7  89888996.96445  21951809.141                    21951816.254
 129664053.146 6 101036978.82143  24674259.438                    24674270.332
 104926885.464 8  81761224.63947  19966923.094                    19966928.586
 109373490.181 8  85226120.64446  20813083.922                    20813091.910
 115016643.005 7  89623380.00845  21886939.234                    21886945.898
 125851463.985 6  98066117.40444  23948737.555                    23948748.336
 107383072.252 8  83675152.23746  20434319.117                    20434326.230
 124463682.126 6  96984706.98143  23684655.078                    23684663.383
 120914351.609 7  94218990.027 6  23009234.063                    23009242.402
 11  8 18 15 38 30.0000000  0 10G06G16G32G23G03G19G10G13G20G07
 116293400.015 7  90618281.25045  22129906.344                    22129914.727
 115439978.325 7  89953264.06145  21967503.547                    21967510.738
 129755964.882 6 101108598.23543  24691749.547                    24691760.910
 104934787.604 8  81767382.14147  19968426.914                    19968432.082
 109367407.429 8  85221380.82846  20811926.773                    20811934.738
 114946752.642 7  89568919.99746  21873639.938                    21873646.254
 125828429.424 6  98048168.38144  23944355.578                    23944364.875
 107337045.824 8  83639287.49546  20425560.727                    20425567.801
 124551766.272 6  97053343.86744  23701416.977                    23701425.070
 120857619.823 7  94174783.457 6  22998438.328                    22998446.594
 11  8 18 15 39  0.0000000  0 10G06G16G32G23G03G19G10G13G20G07
 116319769.561 7  90638828.93345  22134924.141                    22134933.047
 115522641.966 7  90017677.25545  21983233.969                    21983241.320
 129847779.151 6 101180141.72343  24709222.219                    24709232.422
 104943244.719 8  81773972.08947  19970036.219                    19970041.762
 109361947.641 8  85217126.43946  20810887.398                    20810895.512
 114877240.960 7  89514755.05846  21860412.125                    21860418.852
 125805899.880 6  98030612.90444  23940067.828                    23940077.758
 107291458.213 8  83603764.68746  20416885.828                    20416892.844
 124639853.518 6  97121983.18543  23718179.703                    23718188.176
 120800896.578 7  94130583.517 6  22987644.508                    22987652.547
 11  8 18 15 39 30.0000000  0 10G06G16G32G23G03G19G10G13G20G07
 116346682.658 7  90659800.17645  22140045.125                    22140053.969
 115605490.842 7  90082234.78245  21998999.641                    21999007.219
 129939493.504 6 101251607.40243  24726674.734                    24726684.828
 104952257.601 8  81780995.10747  19971751.719                    19971756.637
 109357111.188 8  85213357.75846  20809967.227                    20809975.191
 114808110.707 8  89460887.35546  21847256.516                    21847263.930
 125783875.464 7  98013451.04944  23935876.992                    23935886.793
 107246311.644 8  83568585.55146  20408294.469                    20408301.813
 124727940.918 6  97190622.65643  23734942.063                    23734950.129
 120744181.790 7  94086390.188 6  22976852.469                    22976860.355
 11  8 18 15 40  0.0000000  0 10G06G16G32G23G03G19G10G13G20G07
 116374138.812 7  90681194.57245  22145270.359                    22145278.664
 115688522.168 7  90146934.46645  22014800.109                    22014807.277
 130031105.858 6 101322993.54843  24744106.797                    24744118.297
 104961826.982 8  81788451.76247  19973572.242                    19973577.551
 109352898.446 8  85210075.10046  20809165.398                    20809173.566
 114739365.105 8  89407319.36946  21834174.992                    21834181.609
 125762356.362 7  97996682.93344  23931781.609                    23931791.535
 107201608.809 8  83533752.17446  20399788.008                    20399794.883
 124816025.754 6  97259260.10643  23751704.867                    23751712.516
 120687475.720 7  94042203.638 6  22966061.563                    22966069.316
 11  8 18 15 40 30.0000000  0 10G06G16G32G23G03G19G10G13G20G07
 116402137.250 7  90703011.53145  22150598.203                    22150606.188
 115771733.212 7  90211774.19745  22030634.805                    22030641.441
 130122613.752 6 101394298.28243  24761520.914                    24761532.602
 104971953.327 8  81796342.40747  19975499.344                    19975504.691
 109349310.387 8  85207279.20346  20808482.859                    20808491.008
 114671007.259 7  89354053.53946  21821167.258                    21821173.969
 125741342.529 6  97980308.52344  23927782.789                    23927792.742
 107157351.503 8  83499265.96446  20391366.133                    20391373.070
 124904105.258 6  97327893.42743  23768465.180                    23768473.656
 120630778.219 7  93998023.783 6  22955272.242                    22955280.383
 11  8 18 15 41  0.0000000  0  9G06G16G23G03G19G10G13G20G07
 116430677.565 7  90725250.72645  22156029.070                    22156037.395
 115855121.830 7  90276752.29345  22046502.828                    22046509.965
 104982637.374 8  81804667.62947  19977532.469                    19977537.816
 109346348.008 8  85204970.84246  20807919.039                    20807927.563
 114603040.310 7  89301092.30646  21808233.188                    21808240.117
 125720834.054 6  97964327.90444  23923879.852                    23923890.234
 107113542.233 8  83465128.86646  20383029.578                    20383036.609
 124992176.581 6  97396520.38743  23785224.305                    23785233.672
 120574089.441 7  93953850.748 7  22944484.406                    22944493.227
 11  8 18 15 41 30.0000000  0 10G06G16G08G23G03G19G10G13G20G07
 116459759.201 7  90747911.74145  22161563.016                    22161571.172
 115938686.071 7  90341867.25045  22062404.555                    22062411.934
 131288906.74816 102303073.29253  24983446.453                    24983457.156
 104993880.116 8  81813428.19247  19979671.820                    19979677.602
 109344011.848 8  85203150.45446  20807474.266                    20807482.559
 114535467.280 7  89248438.03945  21795374.477                    21795381.133
 125700831.281 6  97948741.37543  23920073.539                    23920083.563
 107070184.040 8  83431343.26146  20374778.664                    20374785.949
 125080237.415 6  97465139.12543  23801981.773                    23801990.809
 120517409.455 7  93909684.542 6  22933698.523                    22933707.035
 11  8 18 15 42  0.0000000  0 10G06G16G08G23G03G19G10G13G20G07
 116489381.086 7  90770993.73745  22167200.258                    22167208.645
 116022422.338 7  90407116.25145  22078338.773                    22078346.777
 131226315.276 6 102254300.70142  24971536.109                    24971547.082
 105005681.309 8  81822623.91446  19981917.555                    19981923.203
 109342301.688 8  85201817.85546  20807148.781                    20807157.051
 114468290.988 8  89196092.90745  21782591.109                    21782597.574
 125681333.683 6  97933548.42843  23916362.711                    23916372.531
 107027278.132 8  83397910.08546  20366614.242                    20366621.223
 125168284.378 6  97533747.09543  23818736.797                    23818745.500
 120460737.822 7  93865524.862 7  22922914.336                    22922922.684
 11  8 18 15 42 30.0000000  0 10G06G16G08G23G03G19G10G13G20G07
 116519542.344 7  90794496.00845  22172939.609                    22172948.031
 116106328.811 8  90472497.87345  22094305.813                    22094313.734
 131163678.096 5 102205492.54042  24959617.422                    24959627.750
 105018041.679 8  81832255.35847  19984269.672                    19984274.875
 109341218.215 8  85200973.57346  20806942.953                    20806950.844
 114401514.207 8  89144059.07745  21769883.867                    21769890.328
 125662341.452 6  97918749.28243  23912749.539                    23912759.160
 106984826.936 8  83364831.23446  20358535.820                    20358542.730
 125256315.066 6  97602342.39243  23835488.781                    23835497.285
 120404074.743 7  93821371.832 6  22912131.797                    22912140.035
 11  8 18 15 43  0.0000000  0 10G06G16G08G23G03G19G10G13G20G07
 116550242.411 7  90818418.13145  22178781.617                    22178790.016
 116190402.529 8  90538009.81545  22110304.578                    22110312.387
 131100994.638 6 102156648.36843  24947688.836                    24947699.012
 105030961.586 8  81842322.80447  19986728.063                    19986733.922
 109340761.496 7  85200617.68346  20806855.758                    20806863.941
 114335139.994 8  89092338.93545  21757253.133                    21757259.945
 125643854.620 6  97904343.94543  23909231.984                    23909240.969
 106942832.735 8  83332108.47746  20350544.438                    20350551.340
 125344325.935 6  97670922.19443  23852236.438                    23852245.758
 120347420.059 7  93777225.356 7  22901350.164                    22901359.215
 11  8 18 15 43 30.0000000  0 10G06G16G08G23G03G19G10G13G20G07
 116581480.620 7  90842759.60545  22184726.102                    22184734.527
 116274641.444 8  90603650.48245  22126335.164                    22126342.082
 131038264.137 6 102107767.51042  24935751.336                    24935761.332
 105044442.037 8  81852827.03747  19989293.578                    19989298.980
 109340932.469 7  85200750.89446  20806888.492                    20806896.434
 114269171.637 8  89040935.03945  21744699.563                    21744705.879
 125625873.135 6  97890332.41443  23905810.297                    23905818.859
 106901298.050 8  83299743.78646  20342640.977                    20342647.457
 125432315.187 6  97739485.17543  23868980.023                    23868989.652
 120290774.216 7  93733085.757 7  22890571.289                    22890579.504
 11  8 18 15 44  0.0000000  0 10G06G16G08G23G03G19G10G13G20G07
 116613256.087 7  90867519.69845  22190773.211                    22190781.254
 116359043.080 8  90669417.95045  22142396.453                    22142403.016
 130975486.544 6 102058849.92942  24923804.508                    24923814.875
 105058483.278 8  81863768.25447  19991965.367                    19991970.637
 109341731.187 8  85201373.26346  20807040.484                    20807048.426
 114203611.722 8  88989849.40046  21732224.633                    21732230.785
 125608396.763 6  97876714.48843  23902484.258                    23902493.438
 106860224.934 8  83267738.76446  20334824.984                    20334831.996
 125520279.924 5  97808029.03143  23885719.422                    23885728.242
 120234136.964 7  93688952.845 7  22879792.969                    22879801.758
 11  8 18 15 44 30.0000000  0 10G06G16G08G23G03G19G10G13G20G07
 116645567.999 7  90892697.81245  22196921.555                    22196930.195
 116443605.022 7  90735310.33345  22158487.922                    22158495.160
 130912661.294 6 102009895.33042  24911849.070                    24911859.273
 105073085.729 8  81875146.76947  19994744.461                    19994749.770
 109343157.940 7  85202485.01846  20807311.859                    20807320.344
 114138463.416 8  88939084.50446  21719827.070                    21719833.594
 125591425.561 6  97863490.16243  23899254.453                    23899263.289
 106819615.748 8  83236095.24646  20327097.266                    20327104.215
 125608217.210 6  97876551.47343  23902452.914                    23902462.883
 120177508.478 7  93644826.763 7  22869017.156                    22869025.820
 11  8 18 15 45  0.0000000  0 10G06G16G08G23G03G19G10G13G20G07
 116678415.854 7  90918293.53845  22203172.234                    22203181.145
 116528324.691 8  90801325.62845  22174609.156                    22174616.391
 130849787.926 6 101960903.15643  24899885.563                    24899895.484
 105088250.030 8  81886963.09246  19997629.945                    19997635.461
 109345213.354 7  85204086.61546  20807703.125                    20807711.215
 114073729.426 8  88888642.46346  21707508.570                    21707515.102
 125574959.518 6  97850659.40943  23896121.523                    23896130.340
 106779472.948 8  83204815.15046  20319458.117                    20319464.910
 125696124.603 6  97945050.68343  23919181.961                    23919191.227
 120120888.814 7  93600707.560 7  22858242.930                    22858251.691
 11  8 18 15 45 30.0000000  0 10G06G16G08G23G03G19G10G13G20G07
 116711798.216 7  90944305.75745  22209524.828                    22209533.094
 116613199.729 7  90867461.98745  22190760.273                    22190767.645
 130786865.883 6 101911873.00543  24887911.336                    24887921.637
 105103976.206 8  81899217.23547  20000622.695                    20000627.996
 109347897.579 7  85206178.21746  20808214.180                    20808222.457
 114009412.752 8  88838525.57846  21695269.656                    21695276.172
 125558998.048 6  97838221.86243  23893083.625                    23893093.664
 106739797.856 8  83173899.49446  20311908.563                    20311915.723
 125783998.998 6  98013524.13243  23935903.781                    23935913.035
 120064277.745 7  93556595.055 7  22847469.719                    22847478.813
 11  8 18 15 46  0.0000000  0 10G06G16G08G23G03G19G10G13G20G07
 116745714.659 7  90970734.14045  22215978.789                    22215987.434
 116698227.595 7  90933717.42645  22206941.211                    22206948.332
 130723894.863 6 101862804.70443  24875928.461                    24875938.684
 105120264.812 8  81911909.63947  20003722.203                    20003727.313
 109351211.116 8  85208760.19645  20808844.477                    20808852.578
 113945516.289 8  88788736.14646  21683110.609                    21683116.859
 125543540.989 6  97826177.45243  23890142.008                    23890151.762
 106700593.336 8  83143350.52146  20304447.641                    20304454.707
 125871837.897 6  98081969.96143  23952619.227                    23952628.430
 120007675.837 7  93512489.716 7  22836698.844                    22836707.879
 11  8 18 15 46 30.0000000  0 10G06G16G08G23G03G19G10G13G20G07
 116780164.004 7  90997577.76645  22222534.352                    22222543.125
 116783405.742 7  91000089.96345  22223149.563                    22223156.988
 130660874.353 6 101813697.94443  24863935.789                    24863946.652
 105137116.062 8  81925040.45947  20006929.195                    20006934.430
 109355153.923 8  85211832.51546  20809594.867                    20809602.910
 113882042.837 7  88739276.30546  21671032.297                    21671038.586
 125528588.379 6  97814526.08043  23887297.039                    23887306.141
 106661861.243 8  83113169.68546  20297077.484                    20297084.313
 125959638.610 6  98150386.04243  23969327.391                    23969336.043
 119951082.805 7  93468391.270 7  22825930.000                    22825938.434
 11  8 18 15 47  0.0000000  0 10G06G16G08G23G03G19G10G13G20G07
 116815145.406 7  91024835.96745  22229191.461                    22229199.770
 116868732.056 7  91066577.94745  22239386.914                    22239394.246
 130597804.030 6 101764552.27643  24851933.398                    24851944.145
 105154530.360 8  81938610.01946  20010242.656                    20010247.930
 109359726.391 8  85215395.47446  20810464.875                    20810472.973
 113818995.321 7  88690148.36446  21659034.609                    21659041.090
 125514140.013 6  97803267.60243  23884547.398                    23884556.648
 106623603.967 8  83083358.83446  20289797.375                    20289804.406
 126047398.402 5  98218770.22343  23986026.938                    23986036.293
 119894498.723 7  93424299.823 7  22815161.484                    22815170.840
 11  8 18 15 47 30.0000000  0 10G06G16G08G23G03G19G10G13G20G07
 116850658.022 7  91052508.09145  22235948.820                    22235957.348
 116954204.139 7  91133179.52245  22255652.039                    22255659.293
 130534683.360 6 101715367.35342  24839922.117                    24839932.699
 105172508.173 8  81952618.68946  20013663.734                    20013669.074
 109364928.514 8  85219449.09546  20811454.773                    20811462.582
 113756376.777 7  88641354.69746  21647118.141                    21647124.750
 125500195.771 6  97792401.91843  23881893.844                    23881903.395
 106585823.589 8  83053919.58546  20282607.922                    20282615.039
 126135114.806 6  98287120.56943  24002717.578                    24002728.414
 119837924.043 7  93380215.678 7  22804396.578                    22804404.754
 11  8 18 15 48  0.0000000  0 10G06G16G08G23G03G19G10G13G20G07
 116886701.006 7  91080593.49345  22242807.734                    22242815.953
 117039819.784 7  91199892.95745  22271943.594                    22271951.117
 130471512.313 6 101666143.24543  24827901.531                    24827911.207
 105191050.043 8  81967066.86746  20017192.352                    20017197.684
 109370760.646 8  85223993.61646  20812564.664                    20812572.648
 113694190.080 7  88592897.53146  21635284.969                    21635291.242
 125486755.295 6  97781928.81343  23879336.289                    23879345.871
 106548522.396 8  83024853.72746  20275509.617                    20275517.008
 126222785.173 6  98355435.05143  24019402.578                    24019411.641
 119781358.807 7  93336138.866 6  22793632.258                    22793640.355
 11  8 18 15 48 30.0000000  0 10G06G16G08G23G03G19G10G13G20G07
 116923273.064 7  91109091.15945  22249766.844                    22249775.684
 117125576.241 7  91266716.12245  22288263.094                    22288269.930
 130408290.218 6 101616879.30343  24815870.422                    24815880.500
 105210155.566 8  81981954.27746  20020827.766                    20020832.887
 109377222.609 8  85229028.91446  20813794.180                    20813802.422
 113632437.679 7  88544778.76446  21623533.898                    21623540.148
 125473818.134 6  97771847.90743  23876874.594                    23876884.598
 106511702.368 8  82996162.80646  20268503.188                    20268509.906
 126310406.631 6  98423711.42643  24036075.945                    24036084.668
 119724803.001 7  93292069.394 6  22782870.586                    22782878.000
 11  8 18 15 49  0.0000000  0 10G06G16G08G23G03G19G10G13G20G07
 116960372.932 7  91138000.10845  22256826.789                    22256835.766
 117211471.136 7  91333647.15945  22304608.141                    22304615.852
 130345016.213 6 101567574.97043  24803830.227                    24803840.254
 105229824.600 8  81997280.78246  20024570.719                    20024576.016
 109384314.131 8  85234554.77446  20815143.945                    20815151.578
 113571122.517 8  88497000.73646  21611866.078                    21611872.445
 125461383.624 6  97762158.69443  23874508.242                    23874518.195
 106475364.950 8  82967847.93646  20261588.211                    20261595.309
 126397976.145 6  98491947.33943  24052740.852                    24052748.871
 119668256.411 7  93248007.083 6  22772110.211                    22772117.898
 11  8 18 15 49 30.0000000  0 10G06G16G08G23G03G19G10G13G20G07
 116998000.017 7  91167319.86945  22263987.383                    22263996.207
 117297502.190 7  91400684.28545  22320979.375                    22320986.430
 130281690.347 6 101518230.17543  24791779.922                    24791789.574
 105250058.122 8  82013047.13647  20028421.328                    20028426.668
 109392035.654 8  85240571.54446  20816613.102                    20816621.527
 113510247.459 7  88449565.63446  21600281.672                    21600288.191
 125449451.880 6  97752861.19543  23872237.773                    23872247.914
 106439512.799 8  82939911.19946  20254765.945                    20254772.996
 126485491.495 6  98560141.08443  24069393.422                    24069402.680
 119611719.711 7  93203952.496 7  22761351.242                    22761359.320
 11  8 18 15 50  0.0000000  0 10G06G16G08G23G03G19G10G13G20G07
 117036153.505 7  91197049.83045  22271247.813                    22271256.246
 117383667.365 7  91467825.93045  22337376.297                    22337383.211
 130218312.141 6 101468844.62243  24779718.578                    24779729.168
 105270856.558 8  82029253.69446  20032378.594                    20032384.742
 109400387.626 8  85247079.56946  20818202.648                    20818210.453
 113449815.555 8  88402475.85346  21588781.992                    21588788.012
 125438022.538 6  97743955.20443  23870062.867                    23870072.922
 106404148.108 7  82912354.28846  20248036.164                    20248043.375
 126572950.174 5  98628290.62043  24086035.781                    24086045.777
 119555192.682 7  93159905.482 7  22750594.570                    22750602.789
 11  8 18 15 50 30.0000000  0 10G06G16G08G23G03G19G10G13G20G07
 117074831.969 7  91227188.87045  22278608.133                    22278616.508
 117469963.935 7  91535069.94245  22353797.961                    22353805.285
 130154881.391 6 101419418.12843  24767648.523                    24767657.719
 105292219.635 8  82045900.22646  20036444.289                    20036449.957
 109409369.745 8  85254078.61146  20819911.961                    20819919.590
 113389829.316 8  88355733.34746  21577366.984                    21577373.027
 125427095.451 6  97735440.58143  23867983.398                    23867993.148
 106369273.001 8  82885178.88446  20241399.547                    20241407.145
 126660349.381 6  98696393.82543  24102668.648                    24102676.777
 119498675.752 7  93115866.360 7  22739839.656                    22739847.547
 11  8 18 15 51  0.0000000  0 10G06G16G08G23G03G19G10G13G20G07
 117114034.422 7  91257736.21845  22286068.039                    22286076.473
 117556389.762 7  91602414.68945  22370244.305                    22370251.723
 130091397.696 6 101369950.39743  24755567.133                    24755577.426
 105314147.611 8  82062986.94546  20040617.078                    20040622.387
 109418981.844 8  85261568.54846  20821741.086                    20821748.875
 113330291.668 8  88309340.39946  21566037.414                    21566043.262
 125416669.783 6  97727316.68443  23865999.422                    23866008.797
 106334889.569 8  82858386.59646  20234856.797                    20234863.480
 126747686.517 6  98764448.65643  24119287.891                    24119296.742
 119442168.925 7  93071835.078 7  22729086.711                    22729094.953
 11  8 18 15 51 30.0000000  0 10G06G16G08G23G03G19G10G13G20G07
 117153759.448 7  91288690.75445  22293627.547                    22293636.340
 117642942.164 7  91669858.05245  22386714.484                    22386721.465
 130027860.446 6 101320440.91442  24743476.242                    24743486.676
 105336640.387 8  82080513.76647  20044897.367                    20044902.832
 109429223.546 8  85269549.08746  20823689.836                    20823698.082
 113271205.060 7  88263298.91346  21554793.266                    21554799.488
 125406745.313 6  97719583.32143  23864110.430                    23864120.105
 106300999.240 8  82831978.54846  20228407.633                    20228414.676
 126834958.871 6  98832453.04943  24135896.055                    24135903.473
 119385672.253 7  93027811.708 7  22718335.523                    22718343.523
 11  8 18 15 52  0.0000000  0 10G06G16G08G23G03G19G10G13G20G07
 117194006.225 7  91320051.86945  22301286.406                    22301294.504
 117729619.462 7  91737398.74145  22403208.641                    22403215.930
 129964269.533 6 101270889.68942  24731375.391                    24731385.930
 105359698.572 8  82098481.16446  20049284.984                    20049290.793
 109440095.407 8  85278020.65146  20825758.922                    20825767.043
 113212572.547 8  88217611.28046  21543635.930                    21543642.516
 125397321.746 6  97712240.25843  23862317.672                    23862326.902
 106267604.699 8  82805956.83646  20222052.750                    20222060.266
 126922164.170 6  98900405.16943  24152490.133                    24152498.887
 119329186.013 7  92983796.443 7  22707586.563                    22707594.219
 11  8 18 15 52 30.0000000  0 10G06G16G08G23G03G19G10G13G20G07
 117234773.843 7  91351818.81745  22309043.984                    22309052.672
 117816419.297 7  91805034.93045  22419725.891                    22419733.125
 129900624.312 6 101221296.05642  24719262.531                    24719274.219
 105383321.889 8  82116888.92946  20053780.727                    20053785.859
 109451597.165 8  85286983.04046  20827947.367                    20827955.648
 113154396.766 8  88172279.51946  21532565.453                    21532571.730
 125388398.559 6  97705287.12743  23860620.734                    23860628.871
 106234708.045 8  82780323.07846  20215792.781                    20215800.035
 127009299.676 6  98968302.90843  24169071.789                    24169080.863
 119272710.654 7  92939789.687 7  22696839.500                    22696847.711
 11  8 18 15 53  0.0000000  0 10G06G16G08G23G03G19G10G13G20G07
 117276060.841 7  91383990.47245  22316901.031                    22316909.262
 117903339.043 7  91872764.54145  22436266.805                    22436273.539
 129836924.479 6 101171659.93443  24707142.688                    24707152.199
 105407510.274 8  82135737.00246  20058383.578                    20058389.090
 109463728.564 8  85296436.07846  20830255.891                    20830264.141
 113096680.478 8  88127305.81146  21521582.188                    21521588.832
 125379975.092 6  97698723.36443  23859016.781                    23859026.227
 106202310.992 8  82755078.62046  20209628.008                    20209634.961
 127096362.797 6  99036144.24543  24185639.000                    24185648.539
 119216246.097 7  92895791.358 7  22686094.992                    22686102.871
 11  8 18 15 53 30.0000000  0 10G06G16G08G23G03G19G10G13G20G07
 117317866.090 7  91416565.95345  22324855.938                    22324864.785
 117990376.675 7  91940586.01645  22452829.523                    22452836.305
 129773169.928 6 101121981.15543  24695010.555                    24695020.164
 105432264.023 8  82155025.62346  20063093.633                    20063098.941
 109476489.615 8  85306379.73446  20832684.227                    20832692.074
 113039426.597 8  88082692.42546  21510687.438                    21510693.539
 125372050.874 6  97692548.67043  23857508.742                    23857518.277
 106170415.665 7  82730225.11546  20203558.398                    20203565.371
 127183350.903 6  99103927.13543  24202191.563                    24202201.305
 119159792.787 7  92851801.789 7  22675352.352                    22675360.316
 11  8 18 15 54  0.0000000  0 10G06G16G08G23G03G19G10G13G20G07
 117360188.279 7  91449544.26245  22332909.828                    22332918.836
 118077529.759 7  92008497.44345  22469414.102                    22469421.316
 129709360.103 6 101072259.28643  24682867.219                    24682876.844
 105457582.955 8  82174754.64246  20067911.766                    20067917.281
 109489879.719 8  85316813.56346  20835232.422                    20835240.219
 112982637.159 8  88038440.94346  21499880.453                    21499886.750
 125364625.502 6  97686762.64443  23856096.266                    23856104.879
 106139023.685 7  82705763.83046  20197584.414                    20197591.727
 127270261.582 5  99171649.69442  24218730.703                    24218739.566
 119103350.785 7  92807821.037 7  22664611.625                    22664619.828
 11  8 18 15 54 30.0000000  0 10G06G16G08G23G03G19G10G13G20G07
 117403026.456 7  91482924.62745  22341061.773                    22341070.121
 118164796.167 7  92076497.18045  22486020.492                    22486027.883
 129645494.750 6 101022494.22242  24670713.938                    24670723.879
 105483467.378 8  82194924.30646  20072837.953                    20072843.059
 109503899.061 8  85327737.71846  20837899.953                    20837907.703
 112926315.423 8  87994553.91146  21489162.797                    21489169.406
 125357698.600 6  97681365.05843  23854777.102                    23854786.328
 106108137.460 8  82681696.63546  20191707.523                    20191713.992
 127357092.044 6  99239309.75742  24235253.594                    24235263.113
 119046920.708 7  92763849.566 7  22653873.531                    22653881.461
 11  8 18 15 55  0.0000000  0 10G06G16G08G23G03G19G10G13G20G07
 117446378.967 7  91516705.80245  22349311.094                    22349319.691
 118252173.254 7  92144583.16545  22502647.875                    22502655.340
 129581573.417 6 100972685.39042  24658550.867                    24658560.188
 105509916.693 8  82215534.14246  20077870.703                    20077876.121
 109518547.090 8  85339151.74246  20840687.391                    20840695.504
 112870463.698 8  87951033.11946  21478534.406                    21478540.848
 125351269.320 6  97676355.22243  23853554.820                    23853563.594
 106077758.423 8  82658024.65546  20185926.578                    20185933.500
 127443839.997 5  99306905.46242  24251760.742                    24251769.547
 118990502.198 7  92719887.098 7  22643137.398                    22643145.156
 11  8 18 15 55 30.0000000  0 10G06G16G08G23G03G19G10G13G20G07
 117490244.752 7  91550886.89545  22357658.328                    22357666.980
 118339659.072 7  92212753.86045  22519296.422                    22519303.617
 129517596.024 6 100922832.96442  24646375.125                    24646385.379
 105536931.057 8  82236584.27846  20083011.602                    20083016.723
 109533823.480 8  85351055.40946  20843594.648                    20843602.813
 112815084.791 8  87907880.75046  21467996.383                    21468002.508
 125345337.224 6  97671732.77443  23852425.555                    23852434.785
 106047888.824 7  82634749.62746  20180242.555                    20180249.383
 127530502.589 5  99374434.73152  24268252.242                    24268260.895
 118934095.551 7  92675933.894 7  22632403.086                    22632411.289
 11  8 18 15 56  0.0000000  0 10G06G16G08G23G03G19G10G13G20G07
 117534622.204 7  91585466.69245  22366103.336                    22366111.887
 118427251.267 7  92281007.46945  22535964.406                    22535971.430
 129453561.898 6 100872936.28543  24634190.266                    24634200.543
 105564510.021 8  82258074.35846  20088259.531                    20088264.949
 109549728.150 8  85363448.63446  20846621.281                    20846629.570
 112760181.093 8  87865098.67346  21457548.453                    21457554.781
 125339901.311 6  97667497.01943  23851391.414                    23851400.422
 106018530.293 7  82611872.84946  20174655.516                    20174662.418
 127617077.335 6  99441895.51042  24284727.484                    24284736.055
 118877701.061 7  92631990.164 7  22621671.789                    22621680.227
 11  8 18 15 56 30.0000000  0 10G06G16G08G23G03G19G10G13G20G07
 117579510.128 7  91620444.28745  22374645.383                    22374653.766
 118514947.553 7  92349342.18845  22552652.172                    22552659.621
 129389470.613 6 100822995.10343  24621994.406                    24622004.438
 105592653.314 8  82280004.18346  20093615.000                    20093620.613
 109566260.324 8  85376330.82345  20849767.344                    20849775.254
 112705755.118 8  87822688.84546  21447191.688                    21447197.738
 125334961.103 6  97663647.47843  23850451.805                    23850460.816
 105989684.735 7  82589395.78746  20169166.336                    20169173.695
 127703561.700 6  99509285.91842  24301184.992                    24301192.965
 118821318.738 7  92588055.902 7  22610942.773                    22610950.781
 11  8 18 15 57  0.0000000  0 10G06G16G08G23G03G19G10G13G20G07
 117624907.433 7  91655818.78345  22383284.297                    22383292.918
 118602745.993 7  92417756.50545  22569359.750                    22569367.301
 129325322.243 6 100773009.37443  24609787.172                    24609797.691
 105621361.669 8  82302374.31046  20099078.188                    20099083.520
 109583419.796 8  85389701.82645  20853032.297                    20853040.535
 112651809.481 8  87780653.31046  21436926.117                    21436932.395
 125330516.177 6  97660183.90143  23849605.477                    23849614.715
 105961354.353 7  82567320.16046  20163775.383                    20163782.602
 127789953.312 5  99576604.03842  24317623.742                    24317633.641
 118764949.442 7  92544131.781 7  22600216.117                    22600224.332
 11  8 18 15 57 30.0000000  0 10G06G16G08G23G03G19G10G13G20G07
 117670812.523 7  91691588.96345  22392019.266                    22392028.340
 118690644.162 7  92486248.52145  22586086.031                    22586093.688
 129261116.327 6 100722978.84743  24597569.500                    24597580.246
 105650634.342 8  82325184.15846  20104648.570                    20104653.730
 109601206.034 8  85403561.21546  20856417.133                    20856424.797
 112598346.956 8  87738994.22246  21426752.547                    21426758.293
 125326565.604 6  97657105.50043  23848853.430                    23848863.102
 105933540.530 8  82545647.04446  20158482.672                    20158489.746
 127876249.319 5  99643847.59742  24334045.977                    24334054.688
 118708592.976 7  92500217.685 7  22589491.484                    22589499.648
 11  8 18 15 58  0.0000000  0 10G06G16G08G23G03G19G10G13G20G07
 117717224.025 7  91727753.75145  22400851.531                    22400860.391
 118778639.796 7  92554816.49345  22602831.805                    22602839.148
 129196852.638 6 100672903.30043  24585340.461                    24585350.941
 105680471.065 8  82348433.52946  20110326.500                    20110331.457
 109619618.789 8  85417908.78846  20859921.172                    20859929.324
 112545370.042 8  87697713.52046  21416671.266                    21416677.133
 125323108.746 6  97654411.84844  23848196.258                    23848205.676
 105906245.434 7  82524378.13346  20153288.594                    20153295.551
 127962447.324 5  99711014.86242  24350448.516                    24350457.895
 118652249.864 7  92456313.999 7  22578769.648                    22578778.004
 11  8 18 15 58 30.0000000  0 10G06G16G08G23G03G19G10G13G20G07
 117764140.511 7  91764312.02545  22409779.078                    22409788.195
 118866730.545 7  92623458.56945  22619594.711                    22619602.305
 129132530.631 6 100622782.31043  24573099.945                    24573110.867
 105710871.634 8  82372122.26146  20116111.469                    20116116.781
 109638657.277 8  85432743.95146  20863544.023                    20863552.020
 112492880.922 8  87656812.92046  21406682.938                    21406689.035
 125320144.458 6  97652101.98643  23847631.633                    23847641.676
 105879470.432 7  82503514.48746  20148193.773                    20148200.578
 128048545.054 6  99778103.95843  24366833.281                    24366842.297
 118595920.418 7  92412420.921 7  22568050.688                    22568058.512
 11  8 18 15 59  0.0000000  0 10G06G16G08G23G03G19G10G13G20G07
 117811560.518 7  91801262.63645  22418803.109                    22418811.879
 118954914.402 7  92692173.20645  22636375.211                    22636383.090
 129068149.858 6 100572615.50043  24560848.383                    24560859.227
 105741835.955 8  82396250.27646  20122003.594                    20122009.020
 109658321.279 8  85448066.53946  20867286.047                    20867294.219
 112440882.283 8  87616294.50846  21396787.688                    21396794.063
 125317672.436 6  97650175.70944  23847160.914                    23847171.723
 105853217.396 8  82483057.57146  20143197.758                    20143204.406
 128134540.068 6  99845113.03643  24383197.859                    24383206.570
 118539604.513 7  92368538.421 7  22557334.086                    22557342.824
 11  8 18 15 59 30.0000000  0 10G06G16G08G23G03G19G10G13G20G07
 117859482.703 7  91838604.55345  22427922.148                    22427931.344
 119043189.339 7  92760958.80845  22653173.328                    22653180.820
 129003710.298 6 100522402.93143  24548586.297                    24548597.340
 105773363.677 8  82420817.31346  20128003.383                    20128008.594
 109678610.113 8  85463876.00846  20871146.648                    20871154.672
 112389376.668 8  87576160.26746  21386986.305                    21386992.629
 125315691.788 6  97648632.32943  23846784.602                    23846794.805
 105827488.364 8  82463008.96546  20138301.656                    20138308.398
 128220429.573 6  99912039.84843  24399541.992                    24399552.691
 118483302.892 7  92324667.056 7  22546620.555                    22546629.066
 11  8 18 16  0  0.0000000  0 10G06G16G08G23G03G19G10G13G20G07
 117907905.626 7  91876336.65545  22437137.172                    22437145.625
 119131553.310 7  92829813.78944  22669988.922                    22669996.133
 128939211.799 6 100472144.42343  24536312.727                    24536323.734
 105805454.277 8  82445822.95046  20134109.766                    20134115.109
 109699523.411 8  85480172.07846  20875126.211                    20875134.730
 112338366.542 8  87536412.12246  21377279.625                    21377285.719
 125314201.595 6  97647471.15743  23846500.664                    23846511.242
 105802285.330 8  82443370.24646  20133505.781                    20133512.828
 128306211.334 6  99978882.73043  24415865.930                    24415876.137
 118427015.544 7  92280806.780 7  22535909.094                    22535917.379
 11  8 18 16  0 30.0000000  0 10G06G16G08G23G03G19G10G13G20G07
 117956828.046 7  91914457.98245  22446446.648                    22446455.137
 119220004.002 7  92898736.34345  22686820.695                    22686827.586
 128874654.261 6 100421839.86943  24524027.930                    24524037.754
 105838107.808 8  82471267.24146  20140323.672                    20140328.727
 109721060.460 8  85496954.18245  20879225.078                    20879233.219
 112287854.438 8  87497052.04346  21367667.930                    21367673.621
 125313201.254 6  97646691.64943  23846310.898                    23846320.559
 105777609.915 8  82424142.63146  20128810.219                    20128817.168
 128391882.778 6 100045639.64543  24432169.039                    24432178.199
 118370743.194 7  92236958.208 7  22525200.172                    22525209.195
 11  8 18 16  1  0.0000000  0 10G06G16G08G23G03G19G10G13G20G07
 118006247.951 7  91952966.93245  22455850.867                    22455859.684
 119308538.795 7  92967724.41545  22703668.281                    22703675.293
 128810036.951 6 100371488.77043  24511731.070                    24511741.492
 105871323.382 8  82497149.47446  20146644.461                    20146649.922
 109743220.790 8  85514221.95646  20883441.703                    20883449.555
 112237842.644 8  87458081.82946  21358150.914                    21358157.020
 125312689.606 6  97646292.93443  23846213.188                    23846223.461
 105753463.059 7  82405326.89546  20124215.117                    20124222.309
 128477441.350 6 100112308.63043  24448450.023                    24448459.375
 118314485.746 7  92193121.258 7  22514495.109                    22514503.969
 11  8 18 16  1 30.0000000  0 10G06G16G08G23G03G19G10G13G20G07
 118056164.027 7  91991862.52945  22465349.648                    22465358.141
 119397155.842 7  93036776.59744  22720531.148                    22720538.660
 128745359.860 6 100321091.08343  24499424.016                    24499433.887
 105905100.875 8  82523469.56646  20153072.023                    20153077.063
 109766003.692 8  85531974.86546  20887777.195                    20887785.289
 112188333.536 8  87419503.31046  21348729.359                    21348735.496
 125312665.933 6  97646274.47243  23846209.414                    23846218.434
 105729846.785 7  82386924.60446  20119720.922                    20119727.785
 128562884.558 6 100178887.70943  24464708.805                    24464718.203
 118258243.847 7  92149296.425 7  22503792.594                    22503800.941
 11  8 18 16  2  0.0000000  0 10G06G16G08G23G03G19G10G13G20G07
 118106575.161 7  92031143.87545  22474943.008                    22474951.688
 119485853.701 7  93105891.75845  22737409.914                    22737417.605
 128680622.976 6 100270646.83243  24487104.922                    24487114.766
 105939440.526 8  82550227.71746  20159606.750                    20159612.199
 109789408.648 8  85550212.48646  20892231.000                    20892239.125
 112139329.874 8  87381318.63846  21339404.258                    21339410.688
 125313129.897 6  97646636.00543  23846296.914                    23846306.809
 105706763.972 8  82368937.99046  20115328.391                    20115335.488
 128648210.479 6 100245375.38243  24480946.805                    24480955.484
 118202017.920 7  92105484.021 7  22493093.758                    22493101.313
 11  8 18 16  2 30.0000000  0 10G06G16G08G23G03G19G10G13G20G07
 118157479.568 7  92070809.61545  22484629.297                    22484638.320
 119574629.785 7  93175067.85344  22754303.672                    22754310.980
 128615825.802 6 100220155.58043  24474773.789                    24474784.457
 105974341.362 8  82577423.15346  20166248.219                    20166253.734
 109813434.483 8  85568933.90145  20896802.711                    20896810.797
 112090833.777 8  87343529.47346  21330175.758                    21330181.672
 125314080.147 6  97647376.40243  23846478.039                    23846486.738
 105684215.558 8  82351367.78846  20111037.742                    20111044.777
 128733416.363 6 100311769.55943  24497160.883                    24497170.125
 118145808.273 7  92061684.305 7  22482396.914                    22482405.246
 11  8 18 16  3  0.0000000  0 10G06G16G08G23G03G19G10G13G20G07
 118208875.329 7  92110858.23345  22494409.789                    22494418.523
 119663481.764 7  93244303.10644  22771211.164                    22771219.160
 128550968.165 6 100169617.22943  24462431.695                    24462442.227
 106009802.573 8  82605055.23246  20172996.258                    20173001.418
 109838080.619 8  85588138.66645  20901493.086                    20901501.258
 112042847.487 8  87306137.57246  21321044.250                    21321050.402
 125315515.661 6  97648494.97743  23846750.984                    23846760.137
 105662202.837 8  82334215.02746  20106848.906                    20106855.652
 128818499.506 6 100378068.07743  24513351.156                    24513360.285
 118089614.981 7  92017897.370 7  22471703.930                    22471711.816
 11  8 18 16  3 30.0000000  0 10G06G16G08G23G03G19G10G13G20G07
 118260761.449 7  92151288.93045  22504283.977                    22504292.496
 119752407.833 7  93313596.08144  22788133.766                    22788140.980
 128486049.536 6 100119031.39443  24450078.258                    24450088.949
 106045824.440 8  82633124.19546  20179851.055                    20179856.402
 109863346.858 8  85607826.62645  20906300.813                    20906308.973
 111995373.336 8  87269144.73746  21312010.266                    21312017.039
 125317435.578 6  97649990.96443  23847116.617                    23847124.984
 105640727.668 8  82317481.12846  20102762.539                    20102769.230
 128903458.040 6 100444269.49443  24529518.633                    24529527.762
 118033438.689 7  91974123.619 7  22461014.047                    22461021.773
 11  8 18 16  4  0.0000000  0 10G06G16G08G23G03G19G10G13G20G07
 118313135.954 7  92192100.21045  22514250.109                    22514258.922
 119841405.944 7  93382945.19444  22805069.734                    22805076.863
 128421070.114 6 100068398.15143  24437712.125                    24437723.453
 106082406.054 8  82661629.32546  20186812.344                    20186817.727
 109889232.106 8  85627996.92445  20911226.719                    20911234.988
 111948413.700 8  87232552.82646  21303073.844                    21303080.094
 125319838.794 6  97651863.61043  23847573.500                    23847582.539
 105619791.505 8  82301167.23446  20098778.102                    20098785.254
 128988289.173 6 100510371.63942  24545661.938                    24545670.598
 117977279.842 7  91930363.516 7  22450326.898                    22450335.227
 11  8 18 16  4 30.0000000  0 10G06G16G08G23G03G19G10G13G20G07
 118365997.056 7  92233290.64545  22524309.117                    22524318.293
 119930473.534 7  93452348.46444  22822018.672                    22822025.762
 128356029.212 6 100017716.99843  24425335.766                    24425346.375
 106119546.395 8  82690569.82246  20193879.797                    20193885.027
 109915735.165 7  85648648.64445  20916270.227                    20916278.363
 111901970.800 8  87196363.55546  21294236.547                    21294242.211
 125322724.259 6  97654111.98043  23848123.242                    23848131.879
 105599395.727 8  82285274.42046  20094897.141                    20094903.801
 129072990.645 6 100576372.72242  24561779.734                    24561788.777
 117921138.678 7  91886617.182 6  22439643.820                    22439651.121
 11  8 18 16  5  0.0000000  0 10G06G16G08G23G03G19G10G13G20G07
 118419343.246 7  92274859.06245  22534460.508                    22534469.285
 120019608.883 7  93521804.52544  22838980.875                    22838988.133
 128290926.666 6  99966987.79543  24412947.969                    24412957.980
 106157245.217 8  82719945.50146  20201053.969                    20201059.352
 109942855.335 8  85669781.22945  20921430.984                    20921438.988
 111856046.920 8  87160578.72546  21285497.367                    21285503.449
 125326091.160 6  97656735.52143  23848763.992                    23848772.570
 105579542.330 8  82269804.23446  20091118.758                    20091126.082
 129157559.951 5 100642270.78742  24577873.250                    24577883.098
 117865015.422 7  91842884.778 6  22428963.531                    22428971.422
 11  8 18 16  5 30.0000000  0 10G06G16G08G23G03G19G10G13G20G07
 118473172.827 7  92316804.14345  22544704.250                    22544713.301
 120108809.888 7  93591311.73244  22855954.859                    22855962.938
 128225762.445 6  99916210.57543  24400547.258                    24400556.609
 106195502.055 8  82749756.00046  20208333.656                    20208339.477
 109970591.842 8  85691394.08145  20926709.156                    20926716.906
 111810644.388 8  87125200.14346  21276857.563                    21276864.082
 125329938.304 6  97659733.27343  23849495.453                    23849505.027
 105560232.823 7  82254757.86646  20087444.805                    20087451.828
 129241995.29815                  24593940.516
 117808910.622 7  91799166.793 7  22418287.289                    22418295.328
 11  8 18 16  6  0.0000000  0 10G06G16G08G23G03G19G10G13G20G07
 118527484.373 7  92359124.78545  22555039.000                    22555048.027
 120198074.623 7  93660868.61644  22872941.734                    22872949.211
 128160536.560 6  99865385.27042  24388135.195                    24388144.824
 106234316.344 8  82780000.87546  20215719.828                    20215725.113
 109998943.484 8  85713486.24845  20932104.133                    20932112.543
 111765765.365 8  87090229.48846  21268317.234                    21268323.645
 125334265.090 6  97663104.73543  23850318.734                    23850328.660
 105541468.624 8  82240136.41146  20083874.148                    20083880.848
 129326293.489 5                  24609980.438
 117752824.870 7  91755463.629 6  22407614.813                    22407622.129
 11  8 18 16  6 30.0000000  0 10G06G16G08G23G03G19G10G13G20G07
 118582276.317 7  92401819.75845  22565465.977                    22565474.609
 120287401.135 7  93730473.62844  22889939.625                    22889947.945
 128095248.577 6  99814511.58542  24375711.664                    24375720.957
 106273687.926 8  82810680.00646  20223212.219                    20223217.668
 110027910.167 8  85736057.67245  20937616.688                    20937624.707
 111721412.335 8  87055668.70446  21259877.094                    21259883.531
 125339070.437 7  97666849.14943  23851233.820                    23851243.840
 105523251.601 8  82225941.32346  20080407.500                    20080414.012
 129410452.695 5                  24625997.141
 117696758.753 7  91711775.748 7  22396945.484                    22396953.309
 11  8 18 16  7  0.0000000  0 10G06G16G08G23G03G19G10G13G20G07
 118637546.735 7  92444887.58045  22575983.313                    22575992.504
 120376787.304 7  93800125.13044  22906949.414                    22906956.816
 128029898.436 6  99763589.42142  24363275.109                    24363284.855
 106313615.667 8  82841792.50746  20230810.172                    20230815.520
 110057490.385 8  85759107.16945  20943245.164                    20943253.770
 111677587.361 8  87021519.38646  21251537.656                    21251544.047
 125344352.831 6  97670965.28043  23852238.758                    23852248.555
 105505582.957 8  82212173.53946  20077045.172                    20077051.906
 129494470.509 6                  24641984.922
 117640712.615 7  91668103.458 7  22386280.469                    22386288.164
 11  8 18 16  7 30.0000000  0 10G06G16G08G23G03G19G10G13G20G07
 118693293.564 7  92488326.63244  22586591.734                    22586600.434
 120466230.884 7  93869821.35144  22923969.945                    22923977.633
 127964485.675 6  99712618.47743  24350827.586                    24350837.477
 106354098.565 8  82873337.61046  20238513.828                    20238519.125
 110087682.835 8  85782633.71245  20948990.789                    20948998.910
 111634292.617 8  86987783.26146  21243298.547                    21243305.168
 125350110.855 6  97675452.02543  23853334.547                    23853344.652
 105488463.856 8  82198833.97146  20073787.594                    20073794.504
 129578344.331 6                  24657944.930
 117584686.423 7  91624446.703 7  22375618.813                    22375626.602
 11  8 18 16  8  0.0000000  0 10G06G16G08G23G03G19G10G13G20G07
 118749515.191 7  92532135.65444  22597290.797                    22597299.348
 120555730.037 7  93939560.90044  22941001.336                    22941008.965
 127899010.262 6  99661598.73943  24338367.906                    24338377.398
 106395136.106 8  82905314.89246  20246322.883                    20246328.305
 110118486.803 8  85806636.77945  20954852.555                    20954860.625
 111591529.634 8  86954461.49446  21235161.172                    21235167.684
 125356343.648 6  97680308.72843  23854520.094                    23854530.969
 105471895.739 8  82185923.74146  20070634.461                    20070641.383
 129662072.032 6                  24673878.234
 117528680.889 7  91580806.047 7  22364961.289                    22364969.684
 11  8 18 16  8 30.0000000  0 10G06G16G08G23G03G19G10G13G20G07
 118806209.956 7  92576313.35144  22608079.617                    22608087.648
 120645282.564 7  94009342.02744  22958042.813                    22958050.566
 127833472.092 6  99610530.06743  24325896.313                    24325906.441
 106436727.470 8  82937723.71946  20254237.539                    20254242.691
 110149901.188 7  85831115.48345  20960830.664                    20960838.645
 111549300.807 8  86921555.94646  21227125.430                    21227131.410
 125363050.193 7  97685534.60543  23855796.570                    23855806.953
 105455880.075 8  82173443.99446  20067586.914                    20067593.906
 129745651.121 6                  24689782.938
 117472696.549 7  91537181.923 7  22354307.945                    22354316.297
 11  8 18 16  9  0.0000000  0 10G06G16G08G23G03G19G10G13G20G07
 118863376.239 7  92620858.48044  22618957.633                    22618966.234
 120734886.969 7  94079163.56244  22975093.578                    22975101.266
 127767871.204 6  99559412.48543  24313413.625                    24313422.914
 106478872.383 8  82970563.89246  20262257.250                    20262262.766
 110181925.175 7  85856069.21845  20966924.516                    20966932.566
 111507608.459 8  86889068.44746  21219191.438                    21219197.758
 125370229.379 6  97691128.77143  23857162.727                    23857173.344
 105440418.774 8  82161396.21846  20064644.922                    20064651.770
 129829079.375 7 101165569.45753  24705659.211                    24705668.250
 117416733.990 7  91493574.731 7  22343658.859                    22343666.672
 11  8 18 16  9 30.0000000  0 10G06G16G08G23G03G19G10G13G20G07
 118921012.342 7  92665769.69645  22629925.758                    22629933.703
 120824541.144 7  94149023.88244  22992154.313                    22992162.281
 127702207.017 6  99508245.62343  24300917.938                    24300927.055
 106521570.083 8  83003834.79646  20270382.633                    20270388.207
 110214557.663 7  85881497.10445  20973134.414                    20973142.324
 111466454.913 8  86857000.77946  21211360.281                    21211365.957
 125377879.819 7  97697090.12544  23858619.047                    23858628.520
 105425513.023 8  82149781.33646  20061808.578                    20061815.414
 129912354.650 7 101230459.27243  24721505.953                    24721515.488
 117360793.758 7  91449984.968 7  22333013.688                    22333021.652
 11  8 18 16 10  0.0000000  0 10G06G16G08G23G03G19G10G13G20G07
 118979116.182 7  92711045.38245  22640982.500                    22640990.992
 120914243.048 7  94218921.39144  23009224.148                    23009231.656
 127636479.688 6  99457029.58643  24288410.406                    24288419.406
 106564819.250 8  83037535.42446  20278612.719                    20278618.195
 110247797.014 8  85907397.87645  20979459.719                    20979467.680
 111425841.908 8  86825354.32746  21203631.836                    21203637.844
 125386000.212 7  97703417.67043  23860164.430                    23860173.348
 105411164.098 8  82138600.34446  20059077.953                    20059084.703
 129995474.683 7 101295228.08943  24737322.977                    24737332.402
 117304876.172 7  91406412.839 7  22322373.094                    22322380.473
 11  8 18 16 10 30.0000000  0 10G06G16G08G23G03G19G10G13G20G07
 119037686.040 7  92756684.19044  22652127.664                    22652136.496
 121003990.552 7  94288854.44644  23026303.398                    23026310.520
 127570688.593 7  99405763.81843  24275890.523                    24275900.309
 106608619.279 8  83071665.29246  20286947.469                    20286952.672
 110281642.704 8  85933771.12345  20985900.148                    20985908.484
 111385771.390 8  86794130.58146  21196006.656                    21196012.586
 125394589.465 7  97710110.57643  23861798.219                    23861808.422
 105397373.034 8  82127854.05946  20056453.578                    20056460.574
 130078437.152 6 101359874.12443  24753109.820                    24753119.922
 117248981.871 7  91362858.859 7  22311736.414                    22311744.500
 11  8 18 16 11  0.0000000  0 10G06G16G08G23G03G19G10G13G20G07
 119096720.071 7  92802684.69844  22663361.594                    22663370.625
 121093782.071 7  94358821.79644  23043389.836                    23043397.473
 127504834.232 6  99354448.73243  24263359.172                    24263368.691
 106652969.669 8  83106224.00746  20295386.820                    20295392.418
 110316093.405 8  85960615.80645  20992456.156                    20992464.496
 111346245.602 8  86763331.28846  21188484.813                    21188491.281
 125403646.540 7  97717168.04444  23863521.688                    23863531.621
 105384141.649 8  82117543.87946  20053935.945                    20053942.570
 130161239.652 7 101424395.50844  24768867.211                    24768877.344
 117193111.167 7  91319323.281 7  22301104.469                    22301112.566
 11  8 18 16 11 30.0000000  0 10G06G16G08G23G03G19G10G13G20G07
 119156216.174 7  92849045.25544  22674683.508                    22674692.246
 121183615.293 7  94428821.64944  23060484.469                    23060491.934
 127438915.821 6  99303083.76243  24250815.211                    24250824.895
 106697868.832 8  83141210.34646  20303931.391                    20303937.031
 110351147.871 8  85987930.95945  20999126.703                    20999135.227
 111307266.113 8  86732957.68846  21181067.172                    21181073.965
 125413169.581 7  97724588.60543  23865333.641                    23865344.090
 105371470.751 8  82107670.43646  20051524.672                    20051531.285
 130243879.801 7 101488790.38243  24784592.891                    24784602.027
 117137264.553 7  91275806.467 7  22290477.664                    22290485.336
 11  8 18 16 12  0.0000000  0  9G06G16G08G23G03G19G10G13G07
 119216172.527 7  92895764.46144  22686092.609                    22686101.418
 121273488.336 7  94498852.51344  23077586.602                    23077594.348
 127372933.570 6  99251669.08343  24238258.781                    24238268.766
 106743315.954 8  83176623.65846  20312579.484                    20312584.934
 110386804.598 8  86015715.39945  21005911.875                    21005920.387
 111268834.927 8  86703011.33246  21173754.422                    21173760.871
 125423157.423 7  97732371.33243  23867234.023                    23867244.059
 105359361.620 8  82098234.74246  20049220.258                    20049226.766
 117081442.447 7  91232308.746 7  22279854.992                    22279862.879
 11  8 18 16 12 30.0000000  0  9G06G16G08G23G03G19G10G13G07
 119276587.583 7  92942841.06744  22697588.898                    22697598.348
 121363399.782 7  94568913.31144  23094696.281                    23094704.090
 127306887.815 6  99200204.94043  24225690.844                    24225700.590
 106789310.860 8  83212463.82946  20321331.930                    20321337.867
 110423062.737 8  86043968.47545  21012811.539                    21012820.199
 111230954.545 8  86673494.16146  21166545.922                    21166552.164
 125433609.096 7  97740515.44043  23869223.359                    23869233.152
 105347816.220 8  82089238.32046  20047023.109                    20047030.180
 117025646.079 7  91188831.099 7  22269236.891                    22269245.234
 11  8 18 16 13  0.0000000  0  9G06G16G08G23G03G19G10G13G07
 119337459.434 7  92990273.63045  22709172.844                    22709182.258
 121453347.314 7  94639002.23344  23111812.500                    23111820.402
 127240778.247 6  99148691.04444  24213110.477                    24213120.500
 106835852.425 8  83248729.96046  20330188.438                    20330194.305
 110459921.244 8  86072689.37245  21019825.836                    21019833.770
 111193626.734 8  86644407.57446  21159442.859                    21159448.867
 125444523.243 7  97749019.94143  23871299.781                    23871310.313
 105336835.498 8  82080681.90246  20044933.875                    20044940.668
 116969875.809 7  91145373.761 7  22258624.242                    22258632.219
 11  8 18 16 13 30.0000000  0  9G06G16G08G23G03G19G10G13G07
 119398786.363 7  93038060.80944  22720843.758                    22720852.332
 121543329.500 7  94709118.15944  23128935.883                    23128943.922
 127174604.994 6  99097127.52044  24200517.953                    24200528.145
 106882939.470 8  83285421.12846  20339149.078                    20339154.578
 110497378.581 8  86101876.88346  21026953.461                    21026961.527
 111156853.402 8  86615753.04646  21152444.594                    21152450.789
 125455898.685 6  97757883.94243  23873464.961                    23873475.164
 105326421.055 7  82072566.75046  20042951.969                    20042958.727
 116914132.130 7  91101937.158 7  22248016.789                    22248024.789
 11  8 18 16 14  0.0000000  0  9G06G16G08G23G03G19G10G13G07
 119460565.782 7  93086200.55844  22732599.438                    22732608.203
 121633343.838 7  94779259.12244  23146065.000                    23146072.902
 127108367.265 6  99045513.76343  24187913.453                    24187923.660
 106930570.541 8  83322536.22746  20348212.938                    20348218.223
 110535433.169 8  86131529.78745  21034195.172                    21034203.395
 111120635.864 8  86587531.61246  21145552.844                    21145559.184
 125467733.278 7  97767105.67244  23875718.109                    23875727.219
 105316572.786 8  82064892.76846  20041077.969                    20041084.875
 116858415.017 7  91058521.267 7  22237413.922                    22237421.992
 11  8 18 16 14 30.0000000  0  9G06G16G08G23G03G19G10G13G07
 119522796.143 7  93134691.71544  22744441.000                    22744450.516
 121723388.950 7  94849424.06944  23163199.805                    23163207.875
 127042065.454 6  98993850.06644  24175296.938                    24175307.012
 106978745.235 8  83360074.92446  20357380.016                    20357386.035
 110574084.019 8  86161647.31045  21041550.125                    21041558.641
 111084976.490 8  86559745.10246  21138767.273                    21138773.426
 125480026.169 7  97776684.53344  23878056.836                    23878066.699
 105307292.842 8  82057661.64446  20039312.055                    20039318.754
 116802725.550 7  91015126.893 7  22226817.305                    22226824.707
 11  8 18 16 15  0.0000000  0  9G06G16G08G23G03G19G10G13G07
 119585474.895 7  93183532.24644  22756368.930                    22756377.617
 121813461.992 7  94919610.78844  23180340.844                    23180348.625
 126975699.036 6  98942136.07344  24162667.695                    24162677.457
 107027461.857 8  83398035.90246  20366650.727                    20366656.430
 110613329.094 8  86192227.87245  21049018.297                    21049026.477
 111049876.501 8  86532394.47946  21132087.820                    21132094.250
 125492775.561 7  97786619.07544  23880483.094                    23880492.918
 105298581.359 8  82050873.46446  20037654.180                    20037661.109
 116747063.739 8  90971754.077 7  22216224.383                    22216232.645
 11  8 18 16 15 30.0000000  0  9G06G16G08G23G03G19G10G13G07
 119648600.795 7  93232721.22244  22768381.000                    22768389.891
 121903562.239 7  94989818.73144  23197486.484                    23197494.242
 126909268.443 6  98890372.03844  24150025.680                    24150036.387
 107076719.794 8  83436418.69146  20376024.391                    20376030.164
 110653167.375 8  86223270.67045  21056599.430                    21056607.605
 111015338.198 8  86505481.52446  21125515.703                    21125521.273
 125505980.238 6  97796908.46043  23882995.922                    23883005.590
 105290440.329 8  82044529.81146  20036104.969                    20036111.563
 116691430.843 7  90928403.797 7  22205638.000                    22205646.090
 11  8 18 16 16  0.0000000  0  9G06G16G08G23G03G19G10G13G07
 119712171.648 7  93282256.90244  22780478.492                    22780487.141
 121993687.633 7  95060046.24044  23214636.336                    23214644.387
 126842773.649 6  98838558.00043  24137372.539                    24137382.004
 107126518.388 8  83475222.76446  20385500.891                    20385506.449
 110693597.710 8  86254774.80745  21064292.711                    21064301.344
 110981363.402 8  86479007.65846  21119050.578                    21119055.996
 125519638.860 6  97807551.54343  23885595.039                    23885604.684
 105282871.003 8  82038631.62746  20034664.547                    20034671.219
 116635827.438 7  90885076.470 7  22195056.773                    22195064.738
 11  8 18 16 16 30.0000000  0  9G06G16G08G23G03G19G10G13G07
 119776185.649 7  93332137.89244  22792660.133                    22792668.684
 122083836.336 7  95130291.91244  23231791.453                    23231799.316
 126776214.336 6  98786693.67943  24124707.273                    24124716.570
 107176856.173 8  83514446.99446  20395079.836                    20395085.445
 110734618.389 8  86286738.93945  21072099.070                    21072107.277
 110947953.756 7  86452974.17146  21112692.453                    21112698.543
 125533749.826 6  97818547.09743  23888280.352                    23888289.957
 105275874.084 7  82033179.48446  20033333.008                    20033339.594
 116580254.085 7  90841772.589 7  22184481.609                    22184489.820
 11  8 18 16 17  0.0000000  0  9G06G16G08G23G03G19G10G13G07
 119840640.630 7  93382362.52344  22804925.445                    22804934.035
 122174006.627 7  95200554.41944  23248950.102                    23248958.125
 126709590.817 6  98734779.33543  24112028.156                    24112038.438
 107227732.184 8  83554090.61546  20404761.008                    20404766.703
 110776228.198 8  86319162.14345  21080016.727                    21080025.254
 110915111.000 7  86427382.41346  21106442.578                    21106448.656
 125548311.858 6  97829894.08644  23891050.789                    23891060.418
 105269450.917 8  82028174.41346  20032110.867                    20032117.883
 116524711.640 7  90798492.764 7  22173912.195                    22173920.449
 11  8 18 16 17 30.0000000  0  9G06G16G08G23G03G19G10G13G07
 119905535.029 7  93432929.54144  22817274.453                    22817283.164
 122264197.076 7  95270832.63144  23266113.000                    23266121.078
 126642903.050 6  98682814.90143  24099338.180                    24099347.848
 107279145.703 8  83594153.08146  20414544.445                    20414550.395
 110818425.963 8  86352043.49045  21088046.852                    21088055.027
 110882837.426 8  86402234.14946  21100301.359                    21100307.813
 125563323.522 6  97841591.49343  23893906.953                    23893917.332
 105263603.039 8  82023617.61746  20030998.172                    20031004.766
 116469201.051 7  90755237.794 7  22163348.922                    22163356.516
 11  8 18 16 18  0.0000000  0 10G06G16G08G23G03G19G28G10G13G07
 119970866.375 7  93483837.00944  22829706.375                    22829715.176
 122354405.354 7  95341124.72744  23283278.992                    23283287.422
 126576150.707 6  98630800.12243  24086634.805                    24086645.367
 107331094.682 8  83634632.77546  20424430.055                    20424435.668
 110861209.786 8  86385381.51245  21096188.188                    21096196.902
 110851133.982 8  86377530.16646  21094268.469                    21094274.602
 129672681.61015 101043780.20552  24675913.648                    24675923.977
 125578782.681 6  97853637.58543  23896849.305                    23896859.527
 105258330.230 8  82019508.93846  20029994.813                    20030001.723
 116413722.503 7  90712007.784 7  22152791.227                    22152799.512
 11  8 18 16 18 30.0000000  0 10G06G16G08G23G03G19G28G10G13G07
 120036632.939 7  93535083.65444  22842221.438                    22842230.426
 122444630.408 7  95411429.89244  23300448.422                    23300456.422
 126509334.406 6  98578735.52244  24073920.344                    24073929.941
 107383578.680 8  83675529.37746  20434417.766                    20434423.133
 110904578.680 8  86419175.42745  21104441.375                    21104449.516
 110820002.845 7  86353272.12746  21088344.094                    21088350.527
 129598763.19115 100986181.55152  24661846.219                    24661858.734
 125594688.690 6  97866031.88343  23899875.898                    23899885.922
 105253634.371 8  82015849.82446  20029101.039                    20029107.723
 116358277.191 7  90668803.678 7  22142240.602                    22142248.793
 11  8 18 16 19  0.0000000  0 10G06G16G08G23G03G19G28G10G13G07
 120102833.212 7  93586668.26044  22854819.203                    22854828.203
 122534870.643 7  95481746.90344  23317621.078                    23317628.727
 126442454.188 7  98526621.11544  24061193.953                    24061203.598
 107436596.844 8  83716842.20946  20444506.641                    20444512.055
 110948530.989 8  86453423.94245  21112805.047                    21112813.551
 110789446.177 7  86329461.72246  21082529.797                    21082536.012
 129525058.162 5 100928749.05042  24647821.648                    24647833.527
 125611040.224 6  97878773.33043  23902988.039                    23902997.746
 105249516.833 7  82012641.34146  20028317.438                    20028324.598
 116302865.735 7  90625625.959 7  22131696.250                    22131704.109
 11  8 18 16 19 30.0000000  0 11G06G16G08G23G03G19G28G11G10G13G07
 120169464.948 7  93638589.04144  22867498.844                    22867507.625
 122625124.080 7  95552074.18744  23334796.328                    23334803.473
 126375510.256 7  98474457.00744  24048454.977                    24048464.547
 107490147.609 8  83758570.05346  20454697.266                    20454702.762
 110993065.288 8  86488125.96445  21121279.695                    21121288.242
 110759465.248 8  86306099.95546  21076824.250                    21076830.305
 129451567.431 5 100871483.57543  24633837.586                    24633848.738
 130175920.67216                  24771657.719
 125627835.525 6  97891860.56243  23906184.180                    23906193.648
 105245978.470 8  82009884.17046  20027644.125                    20027650.957
 116247489.058 7  90582475.326 7  22121158.344                    22121166.211
 11  8 18 16 20  0.0000000  0 11G06G16G08G23G03G19G28G11G10G13G07
 120236524.686 7  93690843.35844  22880259.945                    22880269.117
 122715387.942 7  95622409.60744  23351971.648                    23351980.156
 126308501.126 7  98422242.16144  24035703.719                    24035712.848
 107544228.578 8  83800711.04446  20464988.211                    20464993.527
 111038179.152 8  86523279.58545  21129864.773                    21129872.949
 110730060.660 8  86283187.28346  21071228.813                    21071234.586
 129378290.097 6 100814384.36043  24619894.477                    24619904.617
 130102536.657 6 101378648.64452  24757691.641                    24757701.988
 125645071.709 7  97905291.30743  23909464.180                    23909473.188
 105243018.946 7  82007578.04546  20027080.977                    20027088.023
 116192146.576 7  90539351.362 7  22110627.359                    22110635.230
 11  8 18 16 20 30.0000000  0 11G06G16G08G23G03G19G28G11G10G13G07
 120304010.702 7  93743429.81144  22893102.117                    22893111.195
 122805660.658 7  95692751.91744  23369149.852                    23369158.543
 126241427.408 7  98369977.01943  24022939.875                    24022949.844
 107598838.984 8  83843264.58546  20475380.609                    20475386.055
 111083870.412 8  86558883.13145  21138559.227                    21138567.809
 110701233.759 8  86260724.76746  21065743.188                    21065749.277
 129305226.660 6 100757451.82543  24605990.805                    24606000.297
 130028998.467 6 101321346.19952  24743698.969                    24743709.078
 125662747.728 7  97919064.79543  23912827.820                    23912837.238
 105240639.311 8  82005723.78346  20026628.219                    20026635.129
 116136839.296 7  90496254.808 7  22100102.078                    22100110.313
 11  8 18 16 21  0.0000000  0 11G06G16G08G23G03G19G28G11G10G13G07
 120371920.999 7  93796346.85944  22906025.023                    22906034.078
 122895940.717 7  95763099.95744  23386329.828                    23386337.922
 126174289.036 6  98317661.52543  24010163.773                    24010173.750
 107653977.560 8  83886229.68846  20485872.758                    20485878.484
 111130137.691 8  86594935.52845  21147363.633                    21147371.809
 110672986.453 8  86238713.88846  21060367.758                    21060373.586
 129232377.924 7 100700686.60844  24592127.797                    24592138.430
 129955308.690 5 101263925.58442  24729675.766                    24729686.359
 125680861.567 7  97933179.46843  23916274.508                    23916284.262
 105238840.663 7  82004322.23846  20026286.188                    20026292.648
 116081567.949 7  90453186.246 7  22089584.695                    22089592.859
 11  8 18 16 21 30.0000000  0 11G06G16G08G23G03G19G28G11G10G13G07
 120440253.278 7  93849592.75244  22919028.320                    22919037.551
 122986226.399 7  95833452.34944  23403510.820                    23403518.949
 126107086.148 6  98265295.67243  23997375.219                    23997385.188
 107709642.625 8  83929605.04346  20496465.406                    20496471.430
 111176979.618 8  86631435.70545  21156277.367                    21156285.793
 110645320.181 8  86217155.74646  21055103.469                    21055109.355
 129159744.044 7 100644088.79544  24578306.484                    24578316.523
 129881469.591 5 101206388.67442  24715624.906                    24715635.645
 125699411.475 6  97947633.91643  23919804.953                    23919814.707
 105237623.526 7  82003373.81046  20026054.313                    20026061.355
 116026333.188 7  90410146.183 7  22079073.891                    22079081.469
 11  8 18 16 22  0.0000000  0 11G06G16G08G23G03G19G28G11G10G13G07
 120509005.701 7  93903166.00745  22932111.344                    22932120.961
 123076515.934 7  95903807.76744  23420692.297                    23420700.645
 126039818.579 6  98212879.41542  23984574.430                    23984583.555
 107765833.428 8  83973390.07246  20507158.164                    20507164.410
 111224394.603 8  86668382.41645  21165300.398                    21165308.922
 110618236.705 7  86196051.75946  21049949.602                    21049955.145
 129087325.806 7 100587659.04744  24564525.984                    24564536.176
 129807483.092 5 101148736.90442  24701545.469                    24701556.949
 125718396.545 6  97962427.41143  23923417.711                    23923426.699
 105236988.745 8  82002879.17046  20025933.844                    20025940.148
 115971136.108 7  90367135.493 7  22068570.008                    22068578.191
 11  8 18 16 22 30.0000000  0 11G06G16G08G23G03G19G28G11G10G13G07
 120578175.912 7  93957064.82444  22945274.031                    22945283.508
 123166807.775 7  95974164.96644  23437874.125                    23437882.762
 125972486.653 6  98160412.96043  23971761.453                    23971771.301
 107822548.280 8  84017583.44046  20517950.781                    20517956.824
 111272380.538 7  86705774.02445  21174431.711                    21174440.289
 110591737.176 8  86175402.77546  21044906.766                    21044912.563
 129015123.461 7 100531397.50943  24550786.859                    24550795.957
 129733351.780 5 101090972.31442  24687438.602                    24687450.008
 125737814.877 6  97977558.56143  23927112.273                    23927121.957
 105236937.264 8  82002839.04546  20025923.563                    20025930.547
 115915977.173 7  90324154.533 7  22058073.102                    22058081.727
 11  8 18 16 23  0.0000000  0 11G06G16G08G23G03G19G28G11G10G13G07
 120647761.947 7  94011287.65144  22958516.328                    22958525.559
 123257100.276 7  96044522.66044  23455056.773                    23455064.816
 125905090.564 6  98107896.55543  23958937.078                    23958946.129
 107879785.686 8  84062183.99846  20528842.586                    20528848.590
 111320936.212 8  86743609.57745  21183671.570                    21183679.730
 110565823.024 7  86155209.94646  21039975.320                    21039981.301
 128943137.640 7 100475304.69243  24537087.570                    24537097.590
 129659077.744 5 101033096.46942  24673305.109                    24673316.352
 125757664.262 6  97993025.57643  23930889.695                    23930899.406
 105237469.974 8  82003254.13346  20026025.305                    20026031.855
 115860857.137 7  90281203.869 7  22047584.656                    22047592.406
 11  8 18 16 23 30.0000000  0 11G06G16G08G23G03G19G28G11G10G13G07
 120717761.609 7  94065832.77644  22971836.945                    22971846.094
 123347391.829 6  96114879.64844  23472239.000                    23472247.199
 125837630.212 6  98055330.12843  23946099.375                    23946108.980
 107937544.561 8  84107190.89746  20539833.883                    20539839.871
 111370059.690 8  86781887.56945  21193019.305                    21193027.500
 110540495.862 8  86135474.50246  21035155.516                    21035161.859
 128871368.932 6 100419381.10743  24523431.117                    24523441.398
 129584663.791 5 100975111.61342  24659144.898                    24659155.211
 125777943.322 6  98008827.43943  23934748.484                    23934758.762
 105238587.998 7  82004125.30346  20026238.250                    20026244.797
 115805776.811 7  90238284.148 7  22037103.695                    22037111.328
 11  8 18 16 24  0.0000000  0 11G06G16G08G23G03G19G28G11G10G13G07
 120788172.569 7  94120698.39344  22985235.555                    22985244.680
 123437680.606 7  96185234.44844  23489419.039                    23489428.035
 125770105.549 6  98002713.55743  23933249.898                    23933259.504
 107995823.002 8  84152602.64746  20550923.914                    20550930.020
 111419748.838 8  86820606.34645  21202475.344                    21202483.293
 110515756.982 8  86116197.46546  21030447.961                    21030454.016
 128799817.352 6 100363626.67943  24509815.031                    24509825.180
 129510111.916 5 100917019.30842  24644957.844                    24644968.523
 125798649.977 6  98024962.40443  23938688.820                    23938698.660
 105240291.308 8  82005452.54846  20026562.063                    20026568.871
 115750736.906 7  90195395.934 7  22026629.633                    22026637.406
 11  8 18 16 24 30.0000000  0 11G06G16G08G23G03G19G28G11G10G13G07
 120858992.782 7  94175882.91844  22998711.641                    22998721.031
 123527965.064 7  96255585.89844  23506600.969                    23506609.094
 125702516.940 7  97950047.18843  23920388.617                    23920398.152
 108054620.080 8  84198418.53146  20562112.742                    20562118.422
 111470002.176 8  86859764.75245  21212038.313                    21212046.586
 110491607.701 8  86097379.86846  21025852.508                    21025858.414
 128728483.500 6 100308041.88642  24496240.234                    24496250.641
 129435424.438 5 100858821.30542  24630744.516                    24630755.668
 125819783.016 6  98041429.71143  23942710.023                    23942720.340
 105242580.782 7  82007236.54446  20026997.719                    20027004.617
 115695738.309 7  90152539.891 7  22016163.625                    22016171.336
 11  8 18 16 25  0.0000000  0 11G06G16G08G23G03G19G28G11G10G13G07
 120930220.315 7  94231384.81744  23012266.172                    23012275.125
 123618243.717 7  96325932.80344  23523780.195                    23523788.652
 125634864.372 6  97897330.93143  23907514.313                    23907523.996
 108113934.170 8  84244637.28446  20573399.852                    20573405.859
 111520818.117 8  86899361.54345  21221707.969                    21221716.559
 110468049.491 8  86079022.84046  21021369.898                    21021375.375
 128657367.894 6 100252627.16442  24482706.336                    24482717.438
 129360603.789 5                  24616507.039
 125841340.276 6  98058227.52843  23946812.883                    23946821.859
 105245457.438 7  82009478.08846  20027545.445                    20027551.965
 115640782.393 7  90109717.110 7  22005705.820                    22005713.746
 11  8 18 16 25 30.0000000  0 11G06G16G08G23G03G19G28G11G10G13G07
 121001852.688 7  94287202.20044  23025897.391                    23025906.879
 123708514.976 7  96396273.96244  23540958.172                    23540966.766
 125567147.876 6  97844564.84243  23894628.758                    23894638.051
 108173763.486 8  84291257.50846  20584785.148                    20584790.883
 111572194.194 8  86939394.82445  21231484.539                    21231493.039
 110445083.383 8  86061127.19246  21016999.453                    21017005.598
 128586470.805 6 100197382.69742  24469215.172                    24469225.668
 129285652.227 5                  24602244.195
 125863320.048 6  98075354.63143  23950995.328                    23951005.059
 105248921.597 7  82012177.42346  20028204.289                    20028211.328
 115585869.079 7  90066927.522 7  21995256.336                    21995263.563
 11  8 18 16 26  0.0000000  0 11G06G16G08G23G03G19G28G11G10G13G07
 121073887.608 7  94343333.24344  23039605.266                    23039614.359
 123798777.178 7  96466608.05644  23558134.875                    23558142.609
 125499367.847 6  97791749.33443  23881729.797                    23881740.051
 108234106.699 8  84338278.17446  20596268.242                    20596273.957
 111624128.725 7  86979863.24445  21241367.656                    21241375.965
 110422710.663 7  86043693.93046  21012741.750                    21012748.121
 128515792.510 5 100142308.77042  24455765.797                    24455776.434
 129210571.895 5                  24587956.125
 125885720.581 6  98092809.57043  23955257.992                    23955268.348
 105252973.781 7  82015334.95646  20028975.547                    20028982.465
 115530999.351 7  90024171.908 7  21984814.781                    21984822.832
 11  8 18 16 26 30.0000000  0 11G06G16G08G23G03G19G28G11G10G13G07
 121146322.964 7  94399776.32244  23053389.305                    23053398.855
 123889028.675 7  96536933.81944  23575309.148                    23575317.512
 125431524.372 6  97738884.32343  23868819.102                    23868829.867
 108294962.375 8  84385698.15246  20607848.648                    20607854.520
 111676620.116 7  87020765.59845  21251356.172                    21251364.688
 110400932.848 7  86026724.21346  21008597.898                    21008603.930
 128445333.634 6 100087405.85342  24442357.961                    24442368.895
 129135365.647 5                  24573644.328
 125908540.158 6  98110591.03143  23959600.664                    23959610.563
 105257614.851 8  82018951.37146  20029858.398                    20029865.547
 115476174.411 7  89981451.184 7  21974382.063                    21974389.793
 11  8 18 16 27  0.0000000  0 11G06G16G08G23G03G19G28G11G10G13G07
 121219156.583 7  94456529.73644  23067249.008                    23067258.492
 123979268.087 7  96607250.16344  23592480.914                    23592489.637
 125363617.174 6  97685969.70443  23855897.734                    23855907.785
 108356329.007 8  84433516.29646  20619526.078                    20619531.402
 111729666.243 8  87062100.22245  21261450.648                    21261458.996
 110379750.971 8  86010218.87046  21004566.773                    21004572.875
 128375094.496 6 100032674.12043  24428991.750                    24429002.152
 129060035.516 5                  24559310.719
 125931776.727 6  98128697.44643  23964022.070                    23964031.410
 105262845.218 8  82023026.97346  20030853.758                    20030860.938
 115421395.327 7  89938766.209 7  21963958.086                    21963965.535
 11  8 18 16 27 30.0000000  0 11G06G16G08G23G03G19G28G11G10G13G07
 121292386.098 7  94513591.63844  23081183.625                    23081193.543
 124069493.798 7  96677555.83144  23609650.383                    23609659.316
 125295646.786 6  97633005.83943  23842962.859                    23842973.164
 108418204.914 8  84481731.26046  20631300.703                    20631306.125
 111783265.119 8  87103865.55745  21271650.406                    21271658.469
 110359166.011 8  85994178.65246  21000650.008                    21000655.938
 128305075.167 6  99978113.61043  24415667.852                    24415678.195
 128984583.931 5                  24544951.664
 125955428.385 6  98147127.30743  23968523.063                    23968532.832
 105268665.446 8  82027562.21646  20031961.703                    20031968.352
 115366662.123 8  89896116.970 7  21953542.359                    21953550.488
 11  8 18 16 28  0.0000000  0 11G06G16G08G23G03G19G28G11G10G13G07
 121366009.264 7  94570960.28544  23095194.547                    23095203.520
 124159704.067 7  96747849.46644  23626816.820                    23626825.352
 125227613.535 6  97579992.87342  23830017.117                    23830027.102
 108480588.589 8  84530341.89946  20643171.781                    20643177.934
 111837414.829 8  87146060.08745  21281954.922                    21281963.039
 110339179.218 8  85978604.53446  20996846.477                    20996852.422
 128235276.238 6  99923724.84344  24402385.672                    24402395.660
 128909013.327 6                  24530571.250
 125979493.538 6  98165879.34343  23973102.414                    23973112.043
 105275076.093 8  82032557.51246  20033181.125                    20033188.211
 115311976.138 7  89853504.535 7  21943135.648                    21943143.902
 11  8 18 16 28 30.0000000  0 11G06G16G08G23G03G19G28G11G10G13G07
 121440023.677 7  94628633.79644  23109278.453                    23109288.105
 124249897.536 7  96818130.02044  23643980.547                    23643987.926
 125159517.117 6  97526930.82243  23817057.844                    23817068.699
 108543478.201 8  84579346.77346  20655139.641                    20655145.227
 111892113.486 8  87188682.37945  21292363.258                    21292371.887
 110319791.815 8  85963497.46646  20993157.031                    20993163.520
 128165697.875 7  99869507.95744  24389145.594                    24389155.738
 128833326.000 6                  24516169.750
 126003969.999 6  98184951.90743  23977759.711                    23977769.738
 105282077.399 8  82038013.06646  20034513.547                    20034520.613
 115257338.043 7  89810929.406 7  21932739.016                    21932746.469
 11  8 18 16 29  0.0000000  0 11G06G16G08G23G03G19G28G11G10G13G07
 121514427.324 7  94686610.58544  23123437.359                    23123446.207
 124340072.746 7  96888396.33844  23661140.227                    23661148.293
 125091358.043 6  97473819.90443  23804088.680                    23804098.313
 108606872.040 8  84628744.55846  20667202.773                    20667208.703
 111947359.107 8  87231730.88745  21302876.203                    21302884.340
 110301004.908 8  85948858.30646  20989582.406                    20989588.445
 128096340.463 7  99815463.22344  24375947.680                    24375956.973
 128757524.512 6                  24501743.461
 126028855.924 6  98204343.55744  23982496.117                    23982506.160
 105289670.268 8  82043929.58846  20035958.531                    20035965.410
 115202748.981 7  89768392.480 7  21922350.797                    21922358.316
 11  8 18 16 29 30.0000000  0 11G06G16G08G23G03G19G28G11G10G13G07
 121589217.766 6  94744888.81644  23137669.430                    23137678.383
 124430227.839 7  96958646.99344  23678296.109                    23678304.977
 125023136.324 7  97420660.17544  23791106.586                    23791116.227
 108670768.730 8  84678534.16646  20679362.055                    20679367.906
 112003149.525 8  87275203.90445  21313493.328                    21313501.133
 110282819.506 8  85934687.86046  20986121.492                    20986127.375
 128027204.250 7  99761590.88044  24362791.227                    24362801.320
 128681611.154 6 100271419.95752  24487298.867                    24487307.148
 126054149.361 6  98224052.68143  23987309.094                    23987318.914
 105297854.805 8  82050307.14746  20037515.773                    20037523.387
 115148209.460 7  89725894.159 7  21911972.008                    21911979.961
 11  8 18 16 30  0.0000000  0 11G06G16G08G23G03G19G28G11G10G13G07
 121664392.742 7  94803466.65644  23151974.617                    23151983.730
 124520361.398 7  97028880.86144  23695447.898                    23695456.051
 124954852.026 7  97367451.67744  23778111.984                    23778121.508
 108735166.678 8  84728714.36446  20691616.539                    20691622.066
 112059482.958 8  87319100.04845  21324212.875                    21324220.781
 110265236.774 8  85920987.03446  20982775.594                    20982781.527
 127958289.713 7  99707891.25644  24349676.875                    24349687.000
 128605588.425 6 100212181.55442  24472831.648                    24472841.676
 126079848.228 6  98244077.76743  23992199.086                    23992208.773
 105306631.379 8  82057146.03246  20039186.484                    20039193.594
 115093720.781 7  89683435.468 7  21901603.344                    21901611.375
 11  8 18 16 30 30.0000000  0 11G06G16G08G23G03G19G28G11G10G13G07
 121739949.871 7  94862342.28444  23166353.344                    23166362.512
 124610472.112 7  97099096.92743  23712595.211                    23712604.266
 124886505.503 7  97314194.69644  23765105.164                    23765115.250
 108800063.968 8  84779283.66246  20703966.586                    20703971.633
 112116357.633 7  87363417.94145  21335035.625                    21335044.273
 110248257.610 8  85907756.51246  20979544.383                    20979550.453
 127889596.873 7  99654364.40944  24336605.508                    24336614.984
 128529458.598 6 100152859.66442  24458344.570                    24458355.230
 126105950.870 6  98264417.43143  23997166.734                    23997176.184
 105316000.561 8  82064446.69846  20040969.031                    20040976.023
 115039283.639 8  89641016.934 7  21891244.313                    21891251.855
 11  8 18 16 31  0.0000000  0 11G06G16G08G23G03G19G28G11G10G13G07
 121815886.805 7  94921513.85844  23180802.938                    23180812.586
 124700558.411 6  97169293.96844  23729738.820                    23729747.414
 124818096.995 7  97260889.38444  23752088.352                    23752098.184
 108865458.768 8  84830240.63146  20716410.539                    20716416.156
 112173770.716 7  87408155.36545  21345961.211                    21345969.602
 110231882.791 8  85894996.92146  20976428.586                    20976434.633
 127821126.085 7  99601010.56944  24323575.641                    24323585.793
 128453224.279 6 100093456.39042  24443836.867                    24443848.387
 126132455.060 6  98285070.04443  24002210.070                    24002219.785
 105325962.525 8  82072209.26046  20042864.703                    20042871.695
 114984898.801 8  89598639.153 7  21880895.063                    21880902.922
 11  8 18 16 31 30.0000000  0 11G06G16G08G23G03G19G28G11G10G13G07
 121892201.342 7  94980979.65044  23195325.844                    23195334.918
 124790618.933 7  97239470.90844  23746876.383                    23746885.238
 124749626.641 7  97207535.88144  23739058.750                    23739067.789
 108931349.271 8  84881583.85046  20728949.219                    20728954.652
 112231720.061 8  87453310.65845  21356988.391                    21356996.695
 110216113.437 8  85882709.11546  20973427.875                    20973433.426
 127752877.629 7  99547829.98344  24310588.117                    24310598.355
 128376887.687 6 100033973.35642  24429311.547                    24429321.750
 126159359.063 6  98306034.17443  24007329.594                    24007339.770
 105336517.637 8  82080434.02246  20044873.328                    20044880.063
 114930567.379 8  89556302.991 7  21870556.102                    21870563.969
 11  8 18 16 32  0.0000000  0 11G06G16G08G23G03G19G28G11G10G13G07
 121968890.998 7  95040737.76744  23209919.625                    23209928.902
 124880652.173 7  97309626.61344  23764009.063                    23764018.391
 124681094.691 7  97154134.43244  23726017.555                    23726026.848
 108997733.962 8  84933312.15746  20741581.797                    20741587.379
 112290204.187 8  87498882.67245  21368117.727                    21368125.902
 110200950.562 8  85870893.88946  20970542.523                    20970548.328
 127684851.694 7  99494822.77344  24297643.445                    24297653.020
 128300451.356 5  99974412.63242  24414765.359                    24414776.578
 126186660.488 6  98327307.97343  24012525.164                    24012535.488
 105347665.987 8  82089121.05146  20046994.828                    20047001.977
 114876290.348 8  89514009.218 7  21860227.766                    21860235.508
 11  8 18 16 32 30.0000000  0 11G06G16G08G23G03G19G28G11G10G13G07
 122045953.638 7  95100786.50744  23224583.398                    23224593.238
 124970656.573 6  97379759.82944  23781136.656                    23781145.609
 124612501.530 7  97100685.24944  23712964.852                    23712973.770
 109064610.954 8  84985424.07646  20754308.094                    20754313.898
 112349220.943 7  87544869.72245  21379348.328                    21379356.402
 110186395.022 8  85859551.92746  20967772.578                    20967778.496
 127617048.520 6  99441989.14943  24284740.891                    24284750.672
 128223917.999 5  99914776.27342  24400202.188                    24400212.820
 126214357.713 6  98348890.19943  24017796.055                    24017805.738
 105359408.397 8  82098270.97646  20049229.227                    20049236.086
 114822068.647 7  89471758.570 7  21849909.469                    21849917.563
 11  8 18 16 33  0.0000000  0 11G06G16G08G23G03G19G28G11G10G13G07
 122123386.944 7  95161124.05144  23239318.891                    23239328.422
 125060630.706 7  97449869.47044  23798258.016                    23798267.000
 124543847.024 7  97047188.22744  23699900.570                    23699908.773
 109131978.552 8  85037918.28446  20767127.492                    20767133.340
 112408768.136 8  87591270.11145  21390679.508                    21390688.066
 110172447.736 8  85848683.92146  20965118.141                    20965124.023
 127549468.457 6  99389329.38243  24271881.094                    24271890.613
 128147289.860 6  99855066.11543  24385620.680                    24385630.742
 126242448.288 6  98370778.95043  24023141.586                    24023151.211
 105371744.582 8  82107883.58246  20051576.969                    20051583.547
 114767903.077 7  89429551.649 7  21839602.008                    21839610.270
 11  8 18 16 33 30.0000000  0 11G06G16G08G23G03G19G28G11G10G13G07
 122201188.173 6  95221748.31344  23254124.102                    23254133.766
 125150573.156 7  97519954.42744  23815374.078                    23815382.738
 124475131.648 7  96993643.80244  23686824.195                    23686833.105
 109199834.808 8  85090793.26146  20780040.141                    20780046.012
 112468843.164 8  87638081.79045  21402111.805                    21402120.031
 110159109.338 8  85838290.37546  20962580.055                    20962586.262
 127482111.546 6  99336843.49743  24259063.414                    24259072.789
 128070569.284 6  99795283.88843  24371020.172                    24371031.859
 126270930.493 6  98392972.86043  24028561.156                    24028570.871
 105384674.895 8  82117959.14446  20054037.367                    20054044.219
 114713794.670 8  89387389.282 7  21829305.602                    21829313.691
 11  8 18 16 34  0.0000000  0 11G06G16G08G23G03G19G28G11G10G13G07
 122279355.165 7  95282657.59544  23268998.500                    23269008.191
 125240482.531 6  97590013.60244  23832483.063                    23832492.242
 124406355.979 7  96940052.43544  23673736.500                    23673745.535
 109268178.086 8  85144047.73446  20793045.719                    20793051.699
 112529444.301 7  87685303.43145  21413643.805                    21413652.176
 110146380.830 8  85828372.07346  20960158.008                    20960164.090
 127414978.157 6  99284531.84443  24246287.703                    24246297.352
 127993759.013 6  99735431.75642  24356403.484                    24356414.422
 126299802.175 6  98415470.22044  24034055.789                    24034065.500
 105398199.632 8  82128497.89446  20056610.789                    20056617.664
 114659744.521 8  89345272.313 7  21819020.383                    21819028.145
 11  8 18 16 34 30.0000000  0 11G06G16G08G23G03G19G28G11G10G13G07
 122357885.559 7  95343850.02544  23283942.484                    23283952.395
 125330357.282 7  97660045.77744  23849585.992                    23849594.395
 124337519.780 7  96886413.88644  23660637.867                    23660646.840
 109337006.160 8  85197679.97646  20806142.969                    20806148.688
 112590569.336 8  87732933.30245  21425275.766                    21425284.332
 110134262.445 8  85818929.18846  20957852.258                    20957858.156
 127348068.299 6  99232394.35142  24233554.859                    24233564.871
 127916861.508 6  99675511.69442  24341771.070                    24341781.496
 126329060.887 6  98438269.21044  24039623.375                    24039633.477
 105412318.859 8  82139499.87146  20059297.992                    20059304.500
 114605753.090 8  89303201.093 7  21808746.102                    21808753.984
 11  8 18 16 35  0.0000000  0 11G06G16G08G23G03G19G28G11G10G13G07
 122436777.116 7  95405323.90144  23298955.141                    23298964.867
 125420196.461 7  97730050.25344  23866681.805                    23866690.770
 124268623.538 7  96832728.52444  23647526.922                    23647535.699
 109406317.317 8  85251688.64446  20819332.531                    20819338.559
 112652215.890 7  87780969.54745  21437006.219                    21437014.688
 110122755.920 8  85809963.07446  20955661.953                    20955668.355
 127281382.026 6  99180431.06142  24220865.859                    24220874.254
 127839879.349 6  99615525.62143  24327121.234                    24327132.367
 126358705.156 6  98461368.62143  24045264.664                    24045274.234
 105427032.744 8  82150965.22646  20062097.680                    20062104.813
 114551822.223 8  89261177.059 7  21798483.125                    21798490.945
 11  8 18 16 35 30.0000000  0 11G06G16G08G23G03G19G28G11G10G13G07
 122516027.129 7  95467077.07844  23314036.039                    23314045.852
 125509998.160 7  97800025.51444  23883770.203                    23883779.867
 124199667.519 7  96778996.55844  23634405.266                    23634413.895
 109476109.569 8  85306072.19946  20832613.477                    20832619.871
 112714381.663 7  87829410.38345  21448836.477                    21448844.551
 110111861.352 8  85801473.80846  20953589.391                    20953595.406
 127214919.950 6  99128642.50142  24208216.922                    24208227.566
 127762815.086 6  99555475.56042  24312456.727                    24312468.223
 126388732.503 6  98484766.54644  24050978.688                    24050988.676
 105442341.372 8  82162894.01546  20065011.055                    20065017.746
 114497952.418 8  89219200.624 7  21788232.273                    21788239.848
 11  8 18 16 36  0.0000000  0 11G06G16G08G23G03G19G28G11G10G13G07
 122595633.401 7  95529107.89144  23329184.766                    23329194.449
 125599761.323 7  97869970.75744  23900851.414                    23900860.770
 124130652.187 7  96725218.38144  23621272.016                    23621280.656
 109546381.096 8  85360829.21746  20845985.805                    20845991.625
 112777064.209 7  87878253.89745  21460764.195                    21460772.867
 110101579.478 8  85793461.96446  20951632.523                    20951638.594
 127148681.890 6  99077028.47842  24195612.906                    24195622.879
 127685671.096 6  99495363.36842  24297776.969                    24297787.770
 126419140.723 6  98508461.24044  24056764.805                    24056776.199
 105458244.851 8  82175286.32546  20068037.367                    20068044.070
 114444144.396 8  89177272.318 7  21777993.055                    21778000.570
 11  8 18 16 36 30.0000000  0 11G06G16G08G23G03G19G28G11G10G13G07
 122675593.479 7  95591414.39044  23344400.695                    23344410.676
 125689484.538 7  97939884.86344  23917925.891                    23917934.891
 124061577.567 7  96671394.00744  23608127.313                    23608136.059
 109617130.127 8  85415958.30746  20859448.773                    20859454.848
 112840261.482 7  87927498.48745  21472790.414                    21472798.438
 110091911.014 8  85785928.10246  20949792.852                    20949799.113
 127082668.133 6  99025589.20342  24183051.000                    24183059.754
 127608449.834 6  99435191.04143  24283081.492                    24283092.008
 126449927.853 6  98532451.20143  24062623.719                    24062633.777
 105474743.076 8  82188142.07746  20071176.688                    20071184.008
 114390399.502 8  89135393.205 7  21767765.539                    21767773.047
 11  8 18 16 37  0.0000000  0 11G06G16G08G23G03G19G28G11G10G13G07
 122755905.133 7  95653994.84544  23359683.180                    23359693.199
 125779166.453 6  98009766.79844  23934991.938                    23935000.492
 123992444.085 7  96617523.79144  23594971.508                    23594980.781
 109688354.639 8  85471457.90246  20873002.922                    20873008.348
 112903971.311 7  87977142.48445  21484914.023                    21484922.289
 110082856.567 8  85778872.69046  20948069.719                    20948076.027
 127016878.903 6  98974324.91043  24170532.430                    24170540.418
 127531154.253 6  99374960.78243  24268373.281                    24268383.324
 126481091.759 6  98556734.71443  24068554.359                    24068563.301
 105491836.410 8  82201461.54746  20074429.633                    20074436.551
 114336718.964 8  89093564.238 7  21757550.727                    21757558.371
 11  8 18 16 37 30.0000000  0 11G06G16G08G23G03G19G28G11G10G13G07
 122836565.662 7  95716847.16144  23375032.563                    23375042.715
 125868805.623 7  98079615.41344  23952049.367                    23952058.598
 123923252.240 7  96563608.09344  23581805.133                    23581813.141
 109760052.377 8  85527326.24146  20886646.180                    20886651.863
 112968191.260 7  88027183.97445  21497134.547                    21497142.953
 110074416.730 8  85772296.20146  20946463.445                    20946469.867
 126951314.221 6  98923235.67543  24158055.125                    24158064.160
 127453786.439 6  99314674.23643  24253650.570                    24253660.469
 126512629.601 6  98581309.63543  24074555.633                    24074564.867
 105509524.324 8  82215244.33346  20077795.594                    20077802.496
 114283103.341 8  89051785.830 7  21747347.898                    21747355.105
 11  8 18 16 38  0.0000000  0 11G06G16G08G23G03G19G28G11G10G13G07
 122917572.768 6  95779969.52144  23390447.656                    23390457.910
 125958400.602 6  98149429.60444  23969098.641                    23969108.156
 123854002.197 7  96509647.05344  23568627.203                    23568635.676
 109832221.882 8  85583562.20046  20900379.727                    20900385.039
 113032919.015 7  88077621.13945  21509451.711                    21509460.383
 110066592.455 8  85766199.36046  20944974.906                    20944981.156
 126885974.308 6  98872321.51643  24145622.180                    24145629.762
 127376349.506 7  99254333.88643  24238914.883                    24238924.547
 126544540.103 6  98606174.94743  24080627.695                    24080637.160
 105527807.245 8  82229490.75946  20081274.523                    20081281.793
 114229554.270 8  89010059.295 7  21737157.570                    21737165.246
 11  8 18 16 38 30.0000000  0 11G06G16G08G23G03G19G28G11G10G13G07
 122998924.028 7  95843360.06444  23405928.648                    23405938.691
 126047950.263 6  98219208.46544  23986139.703                    23986148.492
 123784694.336 7  96455640.94144  23555437.883                    23555447.066
 109904860.690 8  85640163.84346  20914202.609                    20914208.297
 113098152.374 7  88128452.29345  21521865.234                    21521873.754
 110059383.682 8  85760582.13146  20943603.063                    20943609.098
 126820859.006 6  98821582.40543  24133230.195                    24133239.082
 127298845.547 7  99193941.22843  24224165.984                    24224176.242
 126576820.771 6  98631328.72743  24086770.789                    24086780.039
 105546685.020 8  82244200.70146  20084867.055                    20084873.867
 114176072.263 8  88968385.023 7  21726980.234                    21726987.949
 11  8 18 16 39  0.0000000  0 11G06G16G08G23G03G19G28G11G10G13G07
 123080616.883 7  95907016.79244  23421474.922                    23421484.520
 126137453.303 6  98288951.02244  24003171.266                    24003180.480
 123715329.121 7  96401590.16744  23542238.258                    23542247.004
 109977967.020 8  85697129.79146  20928114.188                    20928119.766
 113163888.741 7  88179675.39245  21534374.695                    21534383.293
 110052790.941 8  85755444.93646  20942348.625                    20942354.363
 126755968.504 7  98771018.42843  24120882.781                    24120890.531
 127221277.135 6  99133498.42543  24209405.664                    24209415.977
 126609469.216 6  98656769.04743  24092982.820                    24092992.871
 105566157.415 8  82259373.99646  20088572.461                    20088579.457
 114122658.463 8  88926763.905 7  21716815.633                    21716823.945
 11  8 18 16 39 30.0000000  0 11G06G16G08G23G03G19G28G11G10G13G07
 123162649.237 6  95970938.04344  23437084.500                    23437094.230
 126226908.530 6  98358656.31544  24020194.383                    24020203.676
 123645906.984 7  96347495.01344  23529027.828                    23529036.766
 110051538.912 8  85754458.51746  20942114.375                    20942119.961
 113230126.054 7  88231288.83845  21546979.484                    21546987.371
 110046815.198 8  85750788.51446  20941211.508                    20941217.738
 126691303.136 7  98720629.88043  24108576.508                    24108584.598
 127143647.065 6  99073007.55743  24194633.344                    24194642.895
 126642483.435 6  98682494.39143  24099265.367                    24099275.301
 105586224.709 8  82275010.84046  20092390.844                    20092397.691
 114069314.416 8  88885197.126 7  21706664.750                    21706672.895
 11  8 18 16 40  0.0000000  0 11G06G16G08G23G03G19G28G11G10G13G07
 123245018.331 6  96035121.70644  23452758.820                    23452768.598
 126316314.588 7  98428323.28244  24037207.453                    24037217.066
 123576428.238 7  96293355.79644  23515806.297                    23515815.555
 110125574.033 8  85812148.20846  20956202.852                    20956208.516
 113296861.979 7  88283290.82945  21559678.805                    21559686.754
 110041456.732 8  85746613.09546  20940191.633                    20940197.625
 126626862.687 7  98670416.58243  24096313.828                    24096322.859
 127065957.949 6  99012470.71843  24179848.914                    24179859.227
 126675860.861 6  98708502.74444  24105617.188                    24105627.125
 105606886.570 8  82291110.98046  20096322.750                    20096330.008
 114016040.820 8  88843685.258 7  21696527.203                    21696535.418
 11  8 18 16 40 30.0000000  0 11G06G16G08G23G03G19G28G11G10G13G07
 123327721.780 6  96099565.89844  23468497.398                    23468506.691
 126405670.262 6  98497951.00843  24054211.227                    24054221.246
 123506893.129 7  96239172.63744  23502573.688                    23502583.664
 110200070.295 8  85870197.21846  20970379.094                    20970384.707
 113364093.951 7  88335679.33745  21572472.383                    21572480.992
 110036715.959 8  85742919.00546  20939289.516                    20939295.590
 126562647.302 7  98620378.69343  24084094.055                    24084102.535
 126988212.390 6  98951889.87043  24165055.141                    24165064.230
 126709599.367 6  98734792.43944  24112037.477                    24112047.516
 105628142.773 8  82307674.24846  20100367.539                    20100374.832
 113962838.695 8  88802229.066 7  21686403.398                    21686411.207
 11  8 18 16 41  0.0000000  0 11G06G16G08G23G03G19G28G11G10G13G07
 123410757.066 6  96164268.65444  23484297.773                    23484307.688
 126494974.282 6  98567538.45043  24071205.969                    24071215.539
 123437302.145 6  96184945.93344  23489330.992                    23489340.332
 110275025.968 8  85928604.21446  20984642.484                    20984648.418
 113431819.450 7  88388452.42045  21585360.414                    21585369.035
 110032593.263 8  85739706.52946  20938505.008                    20938511.523
 126498656.941 7  98570516.10743  24071917.023                    24071925.102
 126910413.013 6  98891267.07243  24150250.016                    24150259.414
 126743696.952 6  98761361.98643  24118525.828                    24118536.430
 105649993.100 8  82324700.46046  20104525.766                    20104532.871
 113909709.583 8  88760829.778 7  21676293.055                    21676301.180
 11  8 18 16 41 30.0000000  0 11G06G16G08G23G03G19G28G11G10G13G07
 123494121.974 6  96229228.26644  23500161.609                    23500171.750
 126584225.539 6  98637084.82543  24088189.797                    24088199.313
 123367655.592 6  96130675.90644  23476078.156                    23476087.188
 110350438.718 8  85987367.37746  20998993.008                    20998999.117
 113500036.024 7  88441608.15845  21598341.547                    21598350.203
 110029089.415 7  85736976.28546  20937838.195                    20937844.043
 126434892.025 6  98520829.23643  24059783.133                    24059792.551
 126832562.466 6  98830604.42643  24135435.063                    24135444.613
 126778151.451 6  98788209.61944  24125082.727                    24125092.293
 105672437.783 8  82342189.80646  20108797.141                    20108804.070
 113856654.346 8  88719488.053 7  21666197.328                    21666204.797
 11  8 18 16 42  0.0000000  0 11G06G16G08G23G03G19G28G11G10G13G07
 123577813.708 7  96294442.53444  23516088.148                    23516098.027
 126673422.411 6  98706588.78843  24105163.148                    24105172.496
 123297954.021 7  96076363.01844  23462814.609                    23462824.172
 110426306.598 8  86046485.18646  21013430.352                    21013436.617
 113568741.293 7  88495144.70045  21611415.906                    21611424.137
 110026204.146 8  85734728.04046  20937289.391                    20937295.020
 126371352.317 6  98471317.82343  24047691.672                    24047700.969
 126754663.443 6  98769903.97043  24120610.586                    24120620.906
 126812960.244 6  98815333.33643  24131706.172                    24131717.105
 105695476.050 8  82360141.68446  20113181.016                    20113187.750
 113803674.046 7  88678204.729 7  21656115.500                    21656123.016
 11  8 18 16 42 30.0000000  0 11G06G16G08G23G03G19G28G11G10G13G07
 123661830.124 7  96359909.81844  23532075.469                    23532085.406
 126762563.900 6  98776049.64243  24122126.844                    24122135.617
 123228198.180 7  96022007.85344  23449539.867                    23449549.477
 110502627.178 8  86105955.73146  21027953.750                    21027959.715
 113637933.066 7  88549060.32545  21624582.734                    21624591.133
 110023937.996 7  85732962.22546  20936857.898                    20936863.711
 126308037.969 6  98421982.01443  24035644.305                    24035652.480
 126676718.292 6  98709167.59343  24105778.664                    24105788.898
 126848121.100 6  98842731.42143  24138397.344                    24138407.664
 105719107.743 8  82378555.97746  20117678.039                    20117684.879
 113750770.034 8  88636980.848 7  21646048.125                    21646055.852
 11  8 18 16 43  0.0000000  0 11G06G16G08G23G03G19G28G11G10G13G07
 123746168.493 7  96425627.95644  23548125.156                    23548134.949
 126851648.752 6  98845466.28143  24139078.305                    24139087.949
 123158388.339 7  95967610.60744  23436254.695                    23436265.160
 110579398.473 8  86165777.50046  21042562.961                    21042568.883
 113707608.672 7  88603352.97545  21637841.555                    21637850.074
 110022291.367 8  85731679.14146  20936544.555                    20936550.266
 126244948.858 6  98372821.74443  24023637.531                    24023646.863
 126598729.946 6  98648397.54343  24090937.836                    24090947.859
 126883631.729 6  98870402.01443  24145154.188                    24145165.219
 105743332.614 8  82397432.48546  20122287.750                    20122294.664
 113697943.203 8  88595817.103 7  21635995.086                    21636002.633
 11  8 18 16 43 30.0000000  0 11G06G16G08G23G03G19G28G11G10G13G07
 123830826.363 7  96491595.08544  23564234.508                    23564244.555
 126940675.720 6  98914837.88243  24156020.102                    24156028.789
 123088524.667 7  95913171.40944  23422960.992                    23422970.719
 110656618.104 8  86225948.61146  21057257.398                    21057263.441
 113777765.745 7  88658020.79045  21651192.055                    21651200.602
 110021264.267 8  85730878.81246  20936348.992                    20936354.820
 126182085.011 6  98323836.97043  24011675.195                    24011684.684
 126520700.826 6  98587595.70143  24076089.172                    24076099.500
 126919489.651 6  98898343.28443  24151978.039                    24151988.270
 105768150.065 8  82416770.74246  20127010.523                    20127017.289
 113645194.684 8  88554714.388 7  21625957.445                    21625965.262
 11  8 18 16 44  0.0000000  0 11G06G16G08G23G03G19G28G11G10G13G07
 123915801.234 7  96557809.20244  23580404.680                    23580414.621
 127029643.949 6  98984163.67143  24172950.500                    24172959.270
 123018607.478 7  95858690.50544  23409656.289                    23409665.832
 110734284.280 8  86286467.69546  21072036.680                    21072042.855
 113848401.900 7  88713061.91145  21664633.883                    21664642.332
 110020857.028 8  85730561.48446  20936271.531                    20936277.410
 126119446.309 6  98275027.65743  23999755.320                    23999764.633
 126442633.788 6  98526764.30643  24061233.680                    24061243.762
 126955692.676 6  98926553.39643  24158867.695                    24158877.898
 105793560.157 8  82436570.80446  20131845.766                    20131853.141
 113592525.726 8  88513673.664 7  21615934.906                    21615943.020
 11  8 18 16 44 30.0000000  0 11G06G16G08G23G03G19G28G11G10G13G07
 124001090.935 7  96624268.63944  23596634.727                    23596644.781
 127118551.973 6  99053442.57243  24189868.531                    24189878.027
 122948637.690 7  95804168.62244  23396341.484                    23396351.070
 110812394.649 8  86347332.89146  21086900.484                    21086906.922
 113919514.421 8  88768474.20745  21678166.172                    21678174.500
 110021070.024 8  85730727.46146  20936312.164                    20936317.961
 126057033.035 6  98226394.03643  23987878.281                    23987888.117
 126364531.515 6  98465905.44943  24046371.727                    24046381.203
 126992238.454 6  98955030.67543  24165821.703                    24165832.090
 105819562.815 8  82456832.59446  20136793.883                    20136801.188
 113539937.567 8  88472695.908 7  21605927.883                    21605935.637
 11  8 18 16 45  0.0000000  0 11G06G16G08G23G03G19G28G11G10G13G07
 124086692.611 7  96690971.18244  23612924.719                    23612934.602
 127207398.544 6  99122673.59143  24206776.383                    24206784.328
 122878615.859 7  95749606.21544  23383016.344                    23383026.203
 110890946.914 8  86408542.41646  21101848.773                    21101854.629
 113991100.748 7  88824255.71045  21691788.656                    21691797.258
 110021903.216 8  85731376.69946  20936470.539                    20936476.785
 125994844.950 6  98177935.78743  23976044.398                    23976053.523
 126286396.585 6  98405021.11943  24031502.750                    24031512.004
 127029124.379 6  98983772.95943  24172840.156                    24172851.090
 105846157.027 8  82477555.35346  20141854.641                    20141861.930
 113487431.367 8  88431782.013 7  21595936.258                    21595944.281
 11  8 18 16 45 30.0000000  0 11G06G16G08G23G03G19G28G11G10G13G07
 124172603.902 6  96757914.97844  23629273.297                    23629283.250
 127296182.799 6  99191856.04143  24223671.664                    24223679.750
 122808542.110 7  95695003.34144  23369681.750                    23369691.234
 110969938.875 8  86470094.55646  21116880.328                    21116886.418
 114063158.520 8  88880404.57945  21705500.492                    21705509.211
 110023356.999 8  85732509.52546  20936747.258                    20936753.094
 125932882.127 6  98129653.17243  23964253.453                    23964262.313
 126208231.652 6  98344113.44143  24016627.813                    24016638.012
 127066348.815 6  99012779.00243  24179924.602                    24179934.207
 105873342.751 8  82498739.03446  20147027.500                    20147035.145
 113435008.557 8  88390933.093 7  21585960.516                    21585968.258
 11  8 18 16 46  0.0000000  0 11G06G16G08G23G03G19G28G11G10G13G07
 124258822.029 7  96825097.88544  23645679.930                    23645689.699
 127384903.207 6  99260988.74443  24240554.180                    24240562.969
 122738416.856 7  95640360.30544  23356337.719                    23356347.016
 111049368.115 8  86531987.44046  21131995.102                    21132001.105
 114135684.811 7  88936918.52745  21719301.844                    21719310.121
 110025431.203 8  85734125.79746  20937141.789                    20937147.574
 125871144.325 6  98081545.83443  23952504.125                    23952513.387
 126130039.691 6  98283184.65343  24001749.320                    24001758.445
 127103908.605 6  99042046.37343  24187071.305                    24187082.594
 105901119.084 8  82520382.92246  20152313.438                    20152320.586
 113382669.777 8  88350149.649 7  21576000.945                    21576008.723
 11  8 18 16 46 30.0000000  0 11G06G16G08G23G03G19G28G11G10G13G07
 124345344.836 6  96892518.20844  23662144.859                    23662154.324
 127473558.961 6  99330071.08743  24257424.773                    24257434.563
 122668240.983 7  95585677.84444  23342983.977                    23342992.676
 111129232.541 8  86594219.42846  21147192.797                    21147199.180
 114208677.407 7  88993795.83645  21733191.789                    21733200.727
 110028125.933 8  85736225.60946  20937654.797                    20937660.781
 125809631.727 6  98033613.98843  23940800.070                    23940807.992
 126051823.267 6  98222236.84943  23986865.297                    23986874.645
 127141801.545 6  99071573.33943  24194283.328                    24194292.742
 105929485.921 8  82542486.94246  20157711.328                    20157718.625
 113330416.821 8  88309433.076 7  21566057.273                    21566064.918
 11  8 18 16 47  0.0000000  0 11G06G16G08G23G03G19G28G11G10G13G07
 124432169.777 6  96960173.93544  23678666.969                    23678676.742
 127562148.881 6  99399102.12243  24274282.297                    24274292.285
 122598015.064 7  95530956.37944  23329620.164                    23329629.430
 111209529.910 8  86656788.76346  21162473.008                    21162479.133
 114282133.856 7  89051034.59145  21747170.063                    21747179.172
 110031441.460 8  85738809.14446  20938285.789                    20938291.348
 125748344.134 6  97985857.47843  23929136.461                    23929145.473
 125973584.671 6  98161271.77743  23971976.148                    23971986.414
 127180025.466 6  99101358.18843  24201556.641                    24201566.535
 105958442.579 8  82565050.57346  20163221.820                    20163229.301
 113278250.624 8  88268784.113 7  21556130.633                    21556137.996
 11  8 18 16 47 30.0000000  0 11G06G16G08G23G03G19G28G11G10G13G07
 124519294.143 6  97028063.00044  23695246.625                    23695255.852
 127650671.746 6  99468080.89243  24291128.914                    24291137.508
 122527739.562 7  95476196.28544  23316246.969                    23316256.242
 111290257.713 8  86719693.50646  21177834.875                    21177840.254
 114356051.140 7  89108632.42645  21761236.305                    21761245.250
 110035377.537 8  85741876.21946  20939034.555                    20939040.637
 125687281.426 6  97938276.20643  23917516.680                    23917525.207
 125895327.152 6  98100291.91943  23957084.953                    23957095.348
 127218577.621 6  99131398.81243  24208893.109                    24208902.715
 105987988.510 8  82588073.36546  20168844.539                    20168851.656
 113226172.456 8  88228203.734 7  21546220.367                    21546227.922
 11  8 18 16 48  0.0000000  0 11G06G16G08G23G03G19G28G11G10G13G07
 124606715.441 6  97096183.43244  23711881.852                    23711891.727
 127739126.396 6  99537006.53943  24307960.195                    24307970.090
 122457414.806 7  95421397.79444  23302864.672                    23302873.625
 111371414.031 8  86782932.16445  21193278.602                    21193284.699
 114430427.138 7  89166587.70345  21775389.570                    21775398.547
 110039934.533 7  85745427.12146  20939901.852                    20939908.086
 125626443.786 6  97890870.26243  23905939.383                    23905948.285
 125817053.324 6  98039299.37843  23942189.227                    23942199.297
 127257455.790 6  99161693.50743  24216291.703                    24216300.484
 106018123.442 8  82611555.12346  20174578.758                    20174585.715
 113174183.416 8  88187692.813 7  21536326.891                    21536333.848
 11  8 18 16 48 30.0000000  0 11G06G16G08G23G03G19G28G11G10G13G07
 124694431.330 6  97164533.40344  23728574.328                    23728583.473
 127827511.901 6  99605878.28643  24324779.891                    24324789.184
 122387041.418 7  95366561.40044  23289473.195                    23289481.777
 111452996.271 8  86846502.70345  21208803.141                    21208809.129
 114505259.137 7  89224898.29145  21789629.625                    21789638.301
 110045111.925 8  85749461.44346  20940886.969                    20940892.871
 125565830.615 6  97843639.26643  23894405.359                    23894414.492
 125738765.876 6  97978296.22243  23927291.797                    23927301.926
 127296657.404 6  99192240.21642  24223750.914                    24223759.594
 106048846.568 8  82635495.20746  20180425.070                    20180432.273
 113122284.911 8  88147252.436 7  21526451.359                    21526458.492
 11  8 18 16 49  0.0000000  0 11G06G16G08G23G03G19G28G11G10G13G07
 124782439.147 6  97233110.87644  23745321.508                    23745330.973
 127915827.185 6  99674695.29543  24341585.805                    24341595.035
 122316620.000 7  95311687.60644  23276072.094                    23276081.309
 111535002.257 8  86910403.43245  21224408.438                    21224414.617
 114580544.459 7  89283562.12945  21803956.086                    21803964.832
 110050910.020 8  85753979.42946  20941990.453                    20941996.535
 125505442.452 6  97796583.57143  23882913.906                    23882922.203
 125660467.690 6  97917284.71043  23912392.141                    23912401.867
 127336180.047 6  99223037.08442  24231271.078                    24231279.852
 106080157.457 8  82659893.29246  20186383.367                    20186390.480
 113070478.020 8  88106883.424 7  21516592.570                    21516599.840
 11  8 18 16 49 30.0000000  0 11G06G16G08G23G03G19G28G11G10G13G07
 124870736.432 6  97301913.87044  23762122.914                    23762132.883
 128004071.155 6  99743456.74743  24358378.539                    24358387.414
 122246151.064 7  95256776.79844  23262662.250                    23262671.707
 111617429.704 8  86974632.58045  21240093.922                    21240100.391
 114656280.503 7  89342577.18545  21818367.930                    21818376.840
 110057328.613 8  85758980.92646  20943211.750                    20943218.070
 125445278.797 6  97749702.81643  23871465.367                    23871473.129
 125582161.250 6  97856266.75643  23897490.578                    23897500.473
 127376021.478 6  99254082.29742  24238853.516                    24238862.715
 106112055.292 8  82684748.73946  20192453.430                    20192460.367
 113018764.468 8  88066587.172 7  21506751.664                    21506759.238
 11  8 18 16 50  0.0000000  0 11G06G16G08G23G03G19G28G11G10G13G07
 124959320.343 6  97370940.25244  23778980.664                    23778991.172
 128092242.541 6  99812161.64643  24375156.758                    24375166.395
 122175635.184 7  95201829.40644  23249243.289                    23249252.223
 111700275.860 8  87039187.98145  21255858.977                    21255864.715
 114732464.223 7  89401941.07045  21832865.336                    21832875.059
 110064367.266 8  85764465.58546  20944551.336                    20944557.230
 125385339.583 6  97702996.96143  23860059.234                    23860067.348
 125503849.316 6  97795244.50343  23882588.844                    23882598.125
 127416178.902 6  99285373.84242  24246495.383                    24246504.504
 106144539.014 8  82710060.72046  20198635.031                    20198641.652
 112967144.858 8  88026364.117 7  21496928.805                    21496936.344
 11  8 18 16 50 30.0000000  0 11G06G16G08G23G03G19G28G11G10G13G07
 125048188.649 6  97440188.22144  23795892.227                    23795901.789
 128180340.577 6  99880809.42343  24391921.016                    24391930.898
 122105073.019 7  95146845.92644  23235815.797                    23235824.598
 111783538.569 8  87104067.97145  21271703.492                    21271709.191
 114809093.591 7  89461652.21445  21847447.578                    21847456.727
 110072026.282 8  85770433.64946  20946008.766                    20946014.727
 125325624.313 6  97656465.63843  23848695.594                    23848703.992
 125425534.994 6  97734220.42243  23867686.266                    23867695.320
 127456650.050 6  99316909.77242  24254196.523                    24254205.781
 106177608.460 8  82735829.11146  20204927.578                    20204934.926
 112915620.796 8  87986215.497 7  21487123.898                    21487131.680
 11  8 18 16 51  0.0000000  0 11G06G16G08G23G03G19G28G11G10G13G07
 125137338.934 6  97509655.89244  23812856.789                    23812866.609
 128268364.046 6  99949399.07143  24408671.234                    24408681.355
 122034465.454 7  95091827.10744  23222379.531                    23222388.371
 111867215.465 8  87169270.71345  21287626.328                    21287632.219
 114886165.906 7  89521708.51045  21862113.820                    21862123.109
 110080305.397 8  85776884.90846  20947584.391                    20947590.570
 125266133.241 6  97610108.98943  23837374.859                    23837383.199
 125347220.773 6  97673196.42043  23852782.844                    23852792.383
 127497432.523 6  99348688.27342  24261957.172                    24261966.508
 106211262.956 8  82762053.38146  20211331.742                    20211338.898
 112864193.873 8  87946142.584 7  21477337.453                    21477345.133
 11  8 18 16 51 30.0000000  0 11G06G16G08G23G03G19G28G11G10G13G07
 125226768.436 7  97579341.15044  23829874.578                    23829884.395
 128356312.016 6 100017929.87843  24425407.531                    24425417.352
 121963812.890 7  95036773.21844  23208935.352                    23208944.059
 111951304.198 8  87234794.34545  21303628.102                    21303634.215
 114963678.048 7  89582107.53145  21876864.023                    21876873.156
 110089204.205 8  85783819.04646  20949278.086                    20949283.723
 125206866.464 6  97563927.16143  23826096.570                    23826105.160
 125268909.363 6  97612174.63643  23837881.008                    23837890.297
 127538523.512 6  99380707.22542  24269776.773                    24269785.813
 106245501.652 8  82788732.86846  20217847.523                    20217854.543
 112812865.079 8  87906146.144 7  21467570.563                    21467578.016
 11  8 18 16 52  0.0000000  0 11G06G16G08G23G03G19G28G11G10G13G07
 125316474.671 7  97649242.05444  23846945.578                    23846955.133
 128444183.634 6 100086401.20343  24442129.156                    24442138.742
 121893115.839 7  94981684.64444  23195482.047                    23195489.918
 112035802.276 8  87300636.96545  21319707.672                    21319713.566
 115041627.757 7  89642847.51945  21891697.820                    21891706.508
 110098722.519 8  85791235.91446  20951088.797                    20951094.578
 125147823.381 7  97517919.61344  23814861.875                    23814869.629
 125190603.905 6  97551157.49843  23822979.719                    23822988.789
 127579920.580 6  99412964.70942  24277653.500                    24277664.188
 106280323.858 8  82815867.04146  20224473.992                    20224481.223
 112761635.712 8  87866227.174 7  21457821.617                    21457829.090
 11  8 18 16 52 30.0000000  0 11G06G16G08G23G03G19G28G11G10G13G07
 125406455.136 7  97719356.61844  23864067.820                    23864077.996
 128531977.882 5 100154812.23143  24458835.961                    24458845.352
 121822375.152 7  94926562.09344  23182020.430                    23182028.305
 112120707.241 8  87366796.63745  21335864.672                    21335870.199
 115120012.304 7  89703926.32345  21906613.453                    21906622.367
 110108860.238 8  85799135.42346  20953018.188                    20953023.898
 125089003.834 6  97472086.24143  23803668.070                    23803676.203
 125112306.940 6  97490146.98743  23808080.281                    23808089.469
 127621621.473 6  99445458.83443  24285589.484                    24285599.113
 106315728.925 8  82843455.39246  20231211.414                    20231218.551
 112710507.072 7  87826386.713 7  21448092.070                    21448099.652
 11  8 18 16 53  0.0000000  0 11G06G16G08G23G03G19G28G11G10G13G07
 125496707.297 6  97789682.90844  23881242.672                    23881252.828
 128619693.590 6 100223162.04443  24475528.227                    24475537.793
 121751591.233 7  94871405.80344  23168550.758                    23168559.078
 112206016.639 8  87433271.45945  21352098.406                    21352104.602
 115198828.879 7  89765341.78845  21921611.922                    21921620.996
 110119617.020 8  85807517.33446  20955065.258                    20955070.727
 125030407.844 6  97426427.09343  23792517.711                    23792526.500
 125034021.513 6  97429145.49443  23793182.172                    23793192.539
 127663623.631 6  99478187.74743  24293583.023                    24293592.473
 106351715.563 8  82871496.92446  20238059.180                    20238066.570
 112659480.872 7  87786626.055 7  21438382.328                    21438389.656
 11  8 18 16 53 30.0000000  0 11G06G16G08G23G03G19G28G11G10G13G07
 125587228.473 6  97860218.84143  23898468.445                    23898478.078
 128707329.715 5 100291449.90142  24492203.945                    24492213.785
 121680764.877 7  94816216.49344  23155072.180                    23155081.578
 112291728.627 8  87500059.97945  21368408.750                    21368414.961
 115278074.824 7  89827091.81345  21936691.813                    21936701.098
 110130992.572 8  85816381.40046  20957229.641                    20957235.746
 124972035.214 6  97380941.98843  23781409.961                    23781418.742
 124955750.214 6  97368154.91743  23778287.961                    23778297.379
 127705924.106 6  99511149.10043  24301631.977                    24301641.945
 106388283.121 8  82899991.10746  20245018.039                    20245025.059
 112608557.960 8  87746945.893 7  21428691.898                    21428699.453
 11  8 18 16 54  0.0000000  0 11G06G16G08G23G03G19G28G11G10G13G07
 125678016.432 6  97930962.62444  23915744.445                    23915754.133
 128794885.628 5 100359675.16843  24508866.031                    24508874.754
 121609897.182 7  94760994.98144  23141587.344                    23141595.863
 112377839.841 8  87567159.58445  21384795.430                    21384801.508
 115357747.380 7  89889174.28445  21951853.164                    21951862.105
 110142986.545 8  85825727.35646  20959512.258                    20959517.754
 124913885.635 7  97335630.66444  23770343.813                    23770353.246
 124877496.051 6  97307177.82043  23763396.633                    23763405.734
 127748520.890 6  99544341.36243  24309737.938                    24309747.367
 106425430.887 8  82928937.40846  20252086.867                    20252094.441
 112557740.071 7  87707347.568 7  21419021.555                    21419028.785
 11  8 18 16 54 30.0000000  0 11G06G16G08G23G03G19G28G11G10G13G07
 125769068.333 6  98001912.09444  23933071.414                    23933080.910
 128882360.057 5 100427836.98842  24525511.461                    24525520.559
 121538988.473 7  94705741.46044  23128093.391                    23128102.629
 112464348.159 8  87634568.62545  21401257.656                    21401263.777
 115437843.991 7  89951587.18445  21967095.281                    21967104.195
 110155598.459 8  85835554.83346  20961912.203                    20961918.008
 124855958.855 6  97290492.99544  23759319.891                    23759329.707
 124799261.527 6  97246215.91543  23748509.055                    23748517.770
 127791411.025 6  99577762.22543  24317899.836                    24317909.922
 106463157.390 8  82958334.67546  20259266.234                    20259273.555
 112507028.373 8  87667831.972 7  21409371.492                    21409378.535
 11  8 18 16 55  0.0000000  0 11G06G16G08G23G03G19G28G11G10G13G07
 125860381.845 7  98073065.40944  23950447.195                    23950457.539
 128969752.09515 100495934.64253  24542140.672                    24542151.020
 121468039.178 7  94650456.34244  23114592.156                    23114601.918
 112551251.090 8  87702285.14845  21417794.555                    21417800.430
 115518361.676 7  90014328.19045  21982417.234                    21982426.375
 110168827.883 8  85845863.48946  20964429.563                    20964435.379
 124798254.714 7  97245528.77744  23748340.188                    23748349.492
 124721049.636 6  97185271.71643  23733625.461                    23733634.441
 127834592.467 6  99611410.07843  24326117.734                    24326126.605
 106501462.480 8  82988182.78946  20266555.430                    20266562.523
 112456424.425 8  87628400.345 7  21399741.922                    21399749.316
 11  8 18 16 55 30.0000000  0 11G06G16G08G23G03G19G28G11G10G13G07
 125951954.091 6  98144420.35744  23967872.813                    23967883.391
 129057061.005 5 100563967.47542  24558756.148                    24558765.672
 121397050.498 7  94595140.50945  23101083.656                    23101092.828
 112638546.092 8  87770307.18745  21434406.523                    21434412.539
 115599297.900 7  90077395.34445  21997818.867                    21997827.906
 110182674.321 8  85856652.93646  20967064.531                    20967070.289
 124740773.108 6  97200737.97644  23737402.078                    23737410.969
 124642863.150 6  97124347.30643  23718747.867                    23718756.543
 127878062.071 6  99645282.42043  24334389.203                    24334399.680
 106540344.857 8  83018480.73146  20273954.453                    20273961.406
 112405929.242 8  87589053.478 7  21390133.148                    21390140.715
 11  8 18 16 56  0.0000000  0 11G06G16G08G23G03G19G28G11G10G13G07
 126043782.635 6  98215974.99043  23985347.422                    23985358.016
 129144285.55315 100631934.60252  24575354.656                    24575363.586
 121326022.748 7  94539794.25144  23087567.031                    23087575.793
 112726230.717 8  87838632.83545  21451092.461                    21451098.773
 115680649.569 7  90140786.17945  22013299.477                    22013308.457
 110197137.348 8  85867922.83246  20969816.758                    20969822.746
 124683513.590 6  97156120.24144  23726505.477                    23726515.059
 124564705.122 6  97063445.02543  23703874.578                    23703883.617
 127921817.533 7  99679377.54943  24342715.633                    24342725.852
 106579803.494 8  83049227.70846  20281463.141                    20281470.586
 112355544.488 8  87549792.650 7  21380545.102                    21380552.426
 11  8 18 16 56 30.0000000  0 11G06G16G08G23G03G19G28G11G10G13G07
 126135865.254 6  98287727.60743  24002870.555                    24002880.703
 129231425.302 6 100699835.61842  24591937.133                    24591946.348
 121254956.828 7  94484418.23444  23074043.906                    23074052.887
 112814302.678 8  87907260.28345  21467851.656                    21467858.227
 115762414.452 7  90204499.03545  22028859.078                    22028868.102
 110212217.249 8  85879673.40846  20972686.094                    20972692.113
 124626476.291 7  97111675.66444  23715651.945                    23715660.793
 124486578.248 6  97002567.06343  23689007.594                    23689016.465
 127965856.193 6  99713693.40843  24351095.945                    24351105.996
 106619837.728 8  83080423.20346  20289081.305                    20289088.648
 112305271.540 8  87510618.951 7  21370978.398                    21370985.453
 11  8 18 16 57  0.0000000  0 11G06G16G08G23G03G19G28G11G10G13G07
 126228198.904 7  98359675.84344  24020441.172                    24020451.160
 129318478.900 5 100767669.52942  24608501.500                    24608512.504
 121183853.209 7  94429012.84544  23060513.055                    23060522.469
 112902758.996 8  87976187.23845  21484683.969                    21484690.469
 115844589.380 7  90268531.40145  22044495.836                    22044505.207
 110227912.163 8  85891903.21446  20975672.727                    20975679.184
 124569660.663 7  97067403.79744  23704839.750                    23704849.324
 124408485.240 6  96941715.49343  23674147.078                    23674155.738
 128010175.372 6  99748227.77943  24359530.328                    24359539.598
 106660446.085 8  83112066.06846  20296808.938                    20296815.563
 112255111.554 8  87471533.263 7  21361433.430                    21361440.855
 11  8 18 16 57 30.0000000  0 11G06G16G08G23G03G19G28G11G10G13G07
 126320781.229 6  98431817.85043  24038058.961                    24038068.711
 129405445.428 5 100835435.60442  24625051.641                    24625061.008
 121112712.718 7  94373578.75844  23046976.078                    23046985.004
 112991597.244 8  88045411.82345  21501589.617                    21501595.773
 115927171.749 7  90332881.24245  22060211.508                    22060220.316
 110244222.216 8  85904612.34146  20978776.688                    20978782.582
 124513066.143 7  97023304.23244  23694070.313                    23694079.816
 124330429.044 6  96880892.59643  23659293.250                    23659302.313
 128054772.773 6  99782978.99943  24368016.414                    24368026.582
 106701627.338 8  83144155.33746  20304645.109                    20304652.402
 112205065.943 8  87432536.684 7  21351909.977                    21351917.188
 11  8 18 16 58  0.0000000  0 11G06G16G08G23G03G19G28G11G10G13G07
 126413609.731 6  98504151.66443  24055723.766                    24055733.691
 129492324.331 5 100903133.41642  24641584.422                    24641594.402
 121041536.346 7  94318116.66244  23033431.633                    23033440.293
 113080814.871 8  88114931.99645  21518567.141                    21518573.457
 116010158.823 7  90397546.45644  22076002.539                    22076012.109
 110261146.573 8  85917800.13946  20981996.867                    20982002.988
 124456692.669 7  96979376.91044  23683343.258                    23683351.750
 124252412.736 6  96820100.74243  23644447.219                    23644455.930
 128099645.512 6  99817944.75743  24376555.063                    24376564.633
 106743380.945 8  83176690.60446  20312591.000                    20312598.266
 112155136.541 8  87393630.689 7  21342408.602                    21342416.223
 11  8 18 16 58 30.0000000  0 11G06G16G08G23G03G19G28G11G10G13G07
 126506681.798 6  98576675.28543  24073434.961                    24073444.777
 129579114.539 5 100970762.03142  24658099.453                    24658109.914
 120970324.859 7  94262627.24944  23019879.523                    23019889.008
 113170409.255 8  88184745.75445  21535616.555                    21535622.344
 116093547.954 7  90462524.94744  22091871.844                    22091880.734
 110278684.912 8  85931466.37046  20985334.703                    20985340.211
 124400540.024 7  96935621.63344  23672658.000                    23672665.875
 124174439.253 6  96759342.30043  23629609.430                    23629617.969
 128144790.788 6  99853122.86943  24385146.602                    24385156.234
 106785705.600 8  83209670.83146  20320644.992                    20320652.063
 112105324.535 8  87354816.150 7  21332929.883                    21332937.141
 11  8 18 16 59  0.0000000  0 11G06G16G08G23G03G19G28G11G10G13G07
 126599995.037 6  98649386.83043  24091191.789                    24091202.281
 129665815.340 5 101038321.07442  24674598.977                    24674608.680
 120899079.000 7  94207111.02644  23006322.859                    23006331.117
 113260378.111 8  88254851.32645  21552737.063                    21552743.328
 116177336.261 7  90527814.50344  22107816.148                    22107825.035
 110296836.524 8  85945610.47246  20988788.477                    20988794.781
 124344607.971 7  96892038.24344  23662013.977                    23662021.820
 124096511.195 6  96698619.26643  23614779.758                    23614789.457
 128190206.395 6  99888511.60643  24393787.930                    24393798.309
 106828600.512 8  83243095.42346  20328807.625                    20328814.527
 112055631.551 8  87316094.350 7  21323473.063                    21323480.469
 11  8 18 16 59 30.0000000  0 11G06G16G08G23G03G19G28G11G10G13G07
 126693546.793 6  98722284.24043  24108993.742                    24109004.305
 129752425.974 5 101105809.81742  24691081.250                    24691089.770
 120827799.773 7  94151568.79144  22992758.250                    22992767.070
 113350718.925 8  88325246.71645  21569928.594                    21569934.414
 116261520.821 7  90593412.81445  22123836.055                    22123845.121
 110315600.925 8  85960232.07646  20992359.539                    20992365.160
 124288896.292 7  96848626.59244  23651412.766                    23651420.270
 124018631.325 6  96637933.74543  23599959.258                    23599968.758
 128235889.599 6  99924108.85644  24402481.352                    24402491.184
 106872064.301 8  83276963.29746  20337078.453                    20337086.059
 112006058.807 8  87277466.266 7  21314039.641                    21314047.395
 11  8 18 17  0  0.0000000  0 11G06G16G08G23G03G19G28G11G10G13G07
 126787334.405 6  98795365.41643  24126841.094                    24126851.535
 129838945.419 5 101173227.46342  24707543.617                    24707554.738
 120756487.822 7  94096001.08744  22979188.102                    22979197.180
 113441428.643 8  88395929.57645  21587190.211                    21587195.863
 116346098.788 7  90659317.68245  22139930.609                    22139939.809
 110334977.039 8  85975330.34846  20996046.422                    20996052.531
 124233404.456 7  96805386.22544  23640852.781                    23640860.383
 123940802.922 6  96577288.36243  23585148.555                    23585158.727
 128281837.479 7  99959912.38244  24411225.898                    24411235.320
 106916095.607 8  83311273.38746  20345457.492                    20345464.781
 111956607.745 8  87238932.983 7  21304629.633                    21304637.215
 11  8 18 17  0 30.0000000  0 11G06G16G08G23G03G19G28G11G10G13G07
 126881355.281 6  98868628.37543  24144733.164                    24144742.727
 129925372.757 6 101240573.39142  24723991.438                    24724000.617
 120685144.055 7  94040408.55344  22965611.164                    22965620.496
 113532504.764 8  88466897.93945  21604521.156                    21604527.645
 116431067.385 7  90725526.92245  22156100.063                    22156108.789
 110354964.114 8  85990904.67946  20999850.039                    20999855.645
 124178132.088 7  96762316.90244  23630334.500                    23630342.586
 123863028.573 6  96516685.01043  23570349.086                    23570358.691
 128328047.482 7  99995920.17344  24420018.234                    24420028.457
 106960693.191 8  83346024.72746  20353944.000                    20353951.188
 111907279.878 8  87200495.715 7  21295242.852                    21295250.789
 11  8 18 17  1  0.0000000  0 11G06G16G08G23G03G19G28G11G10G13G07
 126975606.945 6  98942071.16043  24162668.430                    24162678.797
 130011707.034 5 101307846.76942  24740420.555                    24740430.047
 120613769.118 7  93984791.75444  22952029.773                    22952038.547
 113623944.775 8  88538149.83945  21621921.852                    21621928.016
 116516423.745 7  90792038.31944  22172342.406                    22172351.441
 110375561.644 8  86006954.70046  21003769.711                    21003775.797
 124123079.297 7  96719418.65144  23619858.469                    23619866.016
 123785311.255 6  96456126.15443  23555559.516                    23555569.473
 128374517.432 7 100032130.48044  24428861.867                    24428871.625
 107005856.066 8  83381216.56046  20362538.117                    20362545.348
 111858077.033 8  87162155.851 7  21285879.633                    21285887.605
 11  8 18 17  1 30.0000000  0 11G06G16G08G23G03G19G28G11G10G13G07
 127070087.106 6  99015692.00043  24180647.297                    24180657.348
 130097947.977 5 101375047.49742  24756831.227                    24756840.676
 120542363.887 7  93929151.37344  22938441.516                    22938450.863
 113715745.994 8  88609683.20945  21639391.047                    21639396.680
 116602165.199 7  90858849.79245  22188658.484                    22188667.473
 110396769.406 8  86023480.22246  21007805.195                    21007811.328
 124068245.447 7  96676691.00244  23609424.180                    23609431.621
 123707654.066 6  96395614.16043  23540781.445                    23540792.316
 128421244.580 6 100068541.23244  24437753.047                    24437763.367
 107051583.246 8  83416848.11546  20371239.852                    20371246.969
 111809000.086 8  87123914.105 7  21276540.906                    21276548.668
 11  8 18 17  2  0.0000000  0 11G06G16G08G23G03G19G28G11G10G13G07
 127164792.911 6  99089488.64343  24198669.023                    24198679.473
 130184094.300 5                  24773224.813
 120470929.231 7  93873488.01844  22924848.375                    22924856.324
 113807905.770 8  88681495.98445  21656928.148                    21656934.211
 116688288.686 7  90925958.94545  22205047.633                    22205056.719
 110418585.721 8  86040479.94346  21011957.055                    21011962.750
 124013629.971 7  96634133.52744  23599031.023                    23599038.430
 123630059.593 7  96335151.02543  23526016.539                    23526025.801
 128468225.926 6 100105150.05744  24446693.820                    24446703.918
 107097872.763 8  83452917.84746  20380048.383                    20380055.539
 111760050.603 8  87085771.680 7  21267226.039                    21267233.539
 11  8 18 17  2 30.0000000  0 11G06G16G08G23G03G19G28G11G10G13G07
 127259722.134 6  99163459.40843  24216733.359                    24216743.738
 130270145.666 5                  24789597.555
 120399466.123 7  93817802.49844  22911249.102                    22911258.031
 113900421.602 7  88753586.19045  21674533.023                    21674539.527
 116774791.776 7  90993363.87544  22221507.922                    22221517.738
 110441010.110 8  86057953.48846  21016224.047                    21016230.098
 123959232.613 7  96591746.00944  23588679.461                    23588687.527
 123552530.967 6  96274739.15443  23511262.969                    23511271.879
 128515458.919 6 100141954.97943  24455682.242                    24455691.930
 107144723.899 8  83489425.20746  20388963.930                    20388971.277
 111711230.457 8  87047730.027 7  21257935.750                    21257943.801
 11  8 18 17  3  0.0000000  0 11G06G16G08G23G03G19G28G11G10G13G07
 127354871.914 7  99237602.04543  24234840.250                    24234850.055
 130356101.323 5                  24805956.586
 120327975.591 7  93762095.65044  22897644.648                    22897653.695
 113993290.880 8  88825951.80045  21692205.766                    21692211.926
 116861671.724 7  91061062.49345  22238041.203                    22238049.906
 110464042.058 8  86075900.46246  21020606.961                    21020612.973
 123905053.292 7  96549528.38244  23578370.195                    23578377.242
 123475071.139 7  96214380.95443  23496522.961                    23496532.254
 128562940.970 6 100178953.97944  24464717.094                    24464727.734
 107192135.284 8  83526369.12246  20397986.055                    20397993.500
 111662541.029 8  87009790.243 7  21248670.625                    21248677.855
 11  8 18 17  3 30.0000000  0 11G06G16G08G23G03G19G28G11G10G13G07
 127450239.689 7  99311914.53743  24252988.461                    24252998.926
 130441959.949 5                  24822295.031
 120256458.060 7  93706367.70344  22884035.695                    22884043.293
 114086510.751 7  88898590.60945  21709944.766                    21709951.355
 116948925.274 7  91129052.21444  22254644.625                    22254653.813
 110487679.830 8  86094319.51646  21025104.828                    21025110.965
 123851091.398 7  96507480.20944  23568101.172                    23568108.707
 123397682.801 7  96154078.42643  23481795.922                    23481805.309
 128610669.211 6 100216144.77443  24473799.820                    24473809.832
 107240105.188 8  83563748.25346  20407114.508                    20407121.707
 111613983.610 8  86971953.296 7  21239430.258                    21239437.961
 11  8 18 17  4  0.0000000  0 11G06G16G08G23G03G19G28G11G10G13G07
 127545822.783 6  99386394.80443  24271177.641                    24271187.547
 130527721.296 5                  24838614.398
 120184914.360 7  93650619.43044  22870420.938                    22870430.332
 114180078.568 8  88971500.51945  21727751.000                    21727756.723
 117036549.840 7  91197331.04344  22271319.273                    22271328.441
 110511923.014 8  86113210.31146  21029718.141                    21029724.172
 123797346.358 7  96465600.98444  23557874.328                    23557880.984
 123320368.955 7  96093833.95243  23467084.047                    23467092.973
 128658640.930 6 100253525.29843  24482928.656                    24482938.633
 107288632.387 8  83601561.63346  20416348.805                    20416356.066
 111565559.663 8  86934220.376 7  21230215.836                    21230223.465
 11  8 18 17  4 30.0000000  0 11G06G16G08G23G03G19G28G11G10G13G07
 127641619.146 6  99461041.25943  24289406.711                    24289416.730
 130613384.521 5                  24854914.648
 120113346.076 7  93594851.96644  22856802.063                    22856811.043
 114273991.858 8  89044679.67145  21745621.984                    21745627.750
 117124542.514 7  91265896.72044  22288063.742                    22288072.836
 110536771.093 8  86132572.44846  21034446.820                    21034452.652
 123743818.291 7  96423890.82244  23547688.281                    23547695.453
 123243132.787 7  96033650.02743  23452385.961                    23452394.879
 128706853.733 6 100291093.67643  24492103.281                    24492113.164
 107337715.948 8  83639808.55046  20425689.016                    20425696.191
 111517271.495 8  86896593.243 7  21221026.344                    21221033.633
 11  8 18 17  5  0.0000000  0 11G06G16G08G23G03G19G28G11G10G13G07
 127737625.956 6  99535851.69343  24307675.844                    24307686.531
 130698948.83715                  24871198.070
 120041754.044 7  93539065.99244  22843178.992                    22843187.605
 114368247.527 7  89118125.58745  21763558.055                    21763564.551
 117212900.156 7  91334746.77944  22304877.742                    22304887.141
 110562222.597 8  86152404.79446  21039289.828                    21039295.816
 123690506.552 7  96382349.23644  23537542.484                    23537550.363
 123165977.142 7  95973528.75743  23437703.992                    23437712.406
 128755304.633 6 100328847.61343  24501323.203                    24501333.582
 107387354.185 8  83678487.67046  20435135.086                    20435142.219
 111469120.144 8  86859072.738 7  21211864.000                    21211871.066
 11  8 18 17  5 30.0000000  0 10G06G08G23G03G19G28G11G10G13G07
 127833840.605 6  99610824.07043  24325985.625                    24325996.195
 119970138.811 7  93483261.97944  22829550.719                    22829559.461
 114462843.054 8  89191836.32745  21781559.117                    21781565.168
 117301620.503 7  91403879.46644  22321760.617                    22321769.973
 110588276.517 8  86172706.55546  21044247.992                    21044253.641
 123637410.591 7  96340975.79644  23527438.750                    23527446.398
 123088904.908 7  95913472.55743  23423037.031                    23423046.180
 128803991.226 6 100366785.18143  24510587.211                    24510598.184
 107437545.417 8  83717597.70146  20444686.203                    20444693.523
 111421106.979 8  86821659.894 7  21202727.398                    21202733.879
 11  8 18 17  6  0.0000000  0 10G06G08G23G03G19G28G11G10G13G07
 127930260.649 6  99685956.51743  24344333.859                    24344344.477
 119898501.190 7  93427440.47445  22815918.992                    22815927.207
 114557775.736 8  89265809.79745  21799623.805                    21799630.727
 117390700.200 7  91473292.17444  22338712.477                    22338721.184
 110614931.889 8  86193476.97646  21049320.000                    21049326.004
 123584530.325 7  96299770.42344  23517376.297                    23517383.582
 123011919.108 7  95853483.69743  23408387.969                    23408396.176
 128852910.587 6 100404904.17943  24519896.250                    24519907.324
 107488288.309 8  83757137.59646  20454341.836                    20454349.547
 111373233.606 8  86784355.989 7  21193617.047                    21193624.719
 11  8 18 17  6 30.0000000  0 10G06G08G23G03G19G28G11G10G13G07
 128026883.407 6  99761246.95543  24362719.805                    24362731.215
 119826842.295 7  93371602.42044  22802282.492                    22802290.887
 114653042.811 8  89340043.82545  21817752.711                    21817758.934
 117480136.609 7  91542982.82844  22355731.094                    22355740.246
 110642187.568 8  86214715.16046  21054506.852                    21054512.891
 123531865.263 7  96258732.73744  23507354.383                    23507361.766
 122935022.753 7  95793564.54343  23393755.234                    23393763.605
 128902060.032 6 100443202.43743  24529249.156                    24529259.520
 107539581.507 8  83797106.30146  20464102.992                    20464110.477
 111325501.767 8  86747162.377 7  21184534.453                    21184541.520
 11  8 18 17  7  0.0000000  0 10G06G08G23G03G19G28G11G10G13G07
 128123706.338 6  99836693.30443  24381145.133                    24381156.219
 119755163.280 7  93315748.69244  22788642.273                    22788650.906
 114748641.642 8  89414536.36445  21835944.906                    21835951.664
 117569926.681 7  91612949.06344  22372818.133                    22372826.945
 110670042.807 8  86236420.52946  21059807.602                    21059813.535
 123479414.660 7  96217862.21544  23497372.594                    23497380.859
 122858218.764 7  95733717.34643  23379139.773                    23379148.582
 128951436.705 5 100481677.74143  24538645.891                    24538656.465
 107591423.260 8  83837502.44446  20473968.305                    20473975.395
 111277912.796 8  86710080.081 7  21175478.406                    21175485.367
 11  8 18 17  7 30.0000000  0 10G06G08G23G03G19G28G11G10G13G07
 128220727.573 6  99912294.16643  24399607.523                    24399618.133
 119683465.533 7  93259880.34444  22774998.758                    22775006.758
 114844569.888 8  89489285.59645  21854199.367                    21854205.727
 117660068.205 7  91683189.15144  22389971.438                    22389980.375
 110698496.817 8  86258592.47846  21065222.180                    21065228.449
 123427178.530 7  96177158.75644  23487432.586                    23487440.945
 122781510.186 7  95673944.48843  23364542.516                    23364551.336
 129001038.685 5 100520328.58643  24548083.992                    24548095.180
 107643812.684 8  83878325.34446  20483937.406                    20483945.109
 111230468.953 8  86673110.880 7  21166450.195                    21166456.984
 11  8 18 17  8  0.0000000  0 10G06G08G23G03G19G28G11G10G13G07
 128317943.490 6  99988046.77243  24418107.570                    24418117.910
 119611749.376 7  93203997.66445  22761351.320                    22761359.516
 114940823.915 8  89564288.67645  21872515.961                    21872522.281
 117750557.391 7  91753700.16144  22407190.891                    22407199.164
 110727547.300 8  86281229.21246  21070750.469                    21070756.316
 123375155.734 7  96136621.54644  23477532.836                    23477541.316
 122704899.569 7  95614247.94843  23349963.938                    23349971.738
 129050862.203 5 100559152.11543  24557564.922                    24557576.836
 107696747.303 8  83919573.07246  20494010.500                    20494018.434
 111183170.878 8  86636255.246 7  21157449.117                    21157456.527
 11  8 18 17  8 30.0000000  0 10G06G08G23G03G19G28G11G10G13G07
 128415352.244 6 100063949.57243  24436643.758                    24436654.043
 119540016.181 7  93148101.70245  22747700.828                    22747709.680
 115037401.412 8  89639543.80045  21890894.109                    21890900.664
 117841391.642 7  91824480.04644  22424476.086                    22424485.215
 110757193.983 8  86304330.51346  21076391.625                    21076397.523
 123323346.457 7  96096250.70544  23467673.938                    23467682.117
 122628390.284 7  95554630.37044  23335404.281                    23335413.258
 129100905.103 5 100598146.54342  24567087.617                    24567099.340
 107750226.158 8  83961244.88646  20504187.555                    20504194.922
 111136020.580 8  86599514.790 7  21148476.750                    21148484.270
 11  8 18 17  9  0.0000000  0 10G06G08G23G03G19G28G11G10G13G07
 128512950.825 6 100140000.37343  24455216.195                    24455226.551
 119468266.660 7  93092193.05044  22734047.305                    22734056.098
 115134299.530 8  89715048.76745  21909333.406                    21909339.781
 117932568.004 7  91895526.51344  22441826.414                    22441835.449
 110787435.476 8  86327895.30946  21082146.422                    21082152.125
 123271749.711 7  96056045.49644  23457854.648                    23457863.820
 122551985.440 7  95495094.20543  23320864.875                    23320874.102
 129151164.185 5 100637309.35242  24576652.703                    24576663.078
 107804247.097 8  84003339.09746  20514467.273                    20514474.738
 111089019.416 8  86562890.513 7  21139532.625                    21139539.723
 11  8 18 17  9 30.0000000  0 10G06G08G23G03G19G28G11G10G13G07
 128610736.916 6 100216197.24943  24473824.383                    24473833.969
 119396501.737 7  93036272.37345  22720391.031                    22720399.328
 115231515.471 8  89790801.38745  21927832.930                    21927839.438
 118024083.424 7  91966837.19744  22459241.273                    22459250.387
 110818270.609 8  86351922.66746  21088014.414                    21088020.328
 123220364.996 7  96016005.49444  23448077.250                    23448085.527
 122475687.196 7  95435641.09243  23306346.117                    23306355.066
 129201636.659 6 100676638.57743  24586257.094                    24586267.465
 107858808.707 8  84045854.61746  20524849.961                    20524857.563
 111042169.172 8  86526383.839 7  21130617.586                    21130624.684
 11  8 18 17 10  0.0000000  0 10G06G08G23G03G19G28G11G10G13G07
 128708708.110 6 100292538.37743  24492466.945                    24492477.988
 119324722.600 7  92980340.61644  22706731.922                    22706740.195
 115329046.634 8  89866799.63745  21946392.250                    21946398.949
 118115935.333 7  92038410.06444  22476720.047                    22476729.094
 110849698.290 8  86376411.76846  21093995.094                    21094000.977
 123169192.200 7  95976130.61444  23438339.000                    23438347.832
 122399498.914 7  95376273.68243  23291847.070                    23291856.848
 129252320.430 6 100716132.44742  24595901.641                    24595912.352
 107913909.640 8  84088790.37946  20535335.406                    20535342.840
 110995471.626 8  86489996.151 7  21121731.258                    21121738.457
 11  8 18 17 10 30.0000000  0 10G06G08G23G03G19G28G11G10G13G07
 128806861.840 6 100369021.73343  24511145.945                    24511156.027
 119252930.084 7  92924398.43944  22693070.023                    22693078.516
 115426890.236 8  89943041.35145  21965011.328                    21965017.566
 118208120.846 7  92110242.88444  22494262.203                    22494271.609
 110881717.093 8  86401361.47446  21100088.063                    21100094.402
 123118230.843 7  95936420.50144  23428641.492                    23428650.254
 122323423.969 7  95316994.51743  23277370.977                    23277380.109
 129303212.529 6 100755788.49042  24605586.297                    24605596.672
 107969548.526 8  84132145.33546  20545922.641                    20545930.793
 110948928.135 8  86453728.511 7  21112874.227                    21112881.082
 11  8 18 17 11  0.0000000  0 10G06G08G23G03G19G28G11G10G13G07
 128905195.343 6 100445645.15943  24529858.039                    24529868.531
 119181125.400 7  92868446.78645  22679406.211                    22679415.238
 115525043.349 8  90019524.22745  21983689.242                    21983696.074
 118300636.683 7  92182333.10444  22511867.547                    22511876.707
 110914325.515 8  86426770.62746  21106293.273                    21106298.793
 123067480.160 7  95896874.53944  23418983.609                    23418992.074
 122247464.977 7  95257805.74244  23262916.656                    23262925.336
 129354309.715 6 100795604.53342  24615309.563                    24615319.801
 108025722.477 8  84175917.20946  20556612.906                    20556619.941
 110902540.334 8  86417582.186 7  21104046.922                    21104054.164
 11  8 18 17 11 30.0000000  0 10G06G08G23G03G19G28G11G10G13G07
 129003706.322 6 100522406.89343  24548604.078                    24548614.699
 119109309.507 7  92812486.40544  22665739.867                    22665748.586
 115623503.416 8  90096246.28345  22002426.469                    22002432.379
 118393480.372 7  92254678.78244  22529534.508                    22529544.191
 110947522.744 8  86452638.58146  21112610.570                    21112616.184
 123016939.835 7  95857492.51444  23409366.320                    23409374.953
 122171624.934 7  95198709.66244  23248485.305                    23248493.496
 129405609.686 6 100835578.52242  24625072.375                    24625081.754
 108082430.459 8  84220105.22546  20567403.766                    20567411.203
 110856309.769 8  86381558.379 7  21095249.547                    21095256.523
 11  8 18 17 12  0.0000000  0 10G06G08G23G03G19G28G11G10G13G07
 129102392.285 6 100599305.00042  24567382.938                    24567393.941
 119037483.882 7  92756518.40845  22652071.656                    22652080.383
 115722267.276 8  90173205.07045  22021220.344                    22021226.438
 118486649.051 7  92327277.69944  22547264.617                    22547273.996
 110981307.206 8  86478964.12646  21119039.273                    21119045.211
 122966609.325 7  95818273.97744  23399788.820                    23399797.258
 122095907.279 7  95139708.94444  23234076.086                    23234084.816
 129457109.544 6 100875708.25142  24634872.688                    24634881.793
 108139671.052 8  84264708.25646  20578296.531                    20578303.629
 110810238.549 8  86345658.731 7  21086482.367                    21086489.418
 11  8 18 17 12 30.0000000  0 10G06G08G23G03G19G28G11G10G13G07
 129201250.789 6 100676337.53742  24586195.797                    24586206.898
 118965649.483 7  92700543.60444  22638402.031                    22638410.652
 115821332.275 8  90250398.51845  22040072.102                    22040078.121
 118580139.812 7  92400127.56644  22565055.672                    22565064.383
 111015677.524 8  86505746.17246  21125580.109                    21125585.469
 122916488.137 7  95779218.50244  23390250.984                    23390258.996
 122020314.663 7  95080805.64944  23219691.008                    23219700.164
 129508806.471 6 100915991.56042  24644708.836                    24644719.352
 108197442.249 8  84309724.74046  20589289.898                    20589297.223
 110764328.251 8  86309884.476 7  21077745.711                    21077753.168
 11  8 18 17 13  0.0000000  0 10G06G08G23G03G19G28G11G10G13G07
 129300279.443 6 100753502.67542  24605039.969                    24605051.094
 118893807.536 7  92644562.89345  22624731.242                    22624739.793
 115920695.629 8  90327824.44445  22058980.625                    22058986.047
 118673949.955 7  92473226.33944  22582907.008                    22582915.930
 111050632.779 8  86532984.01646  21132231.453                    21132237.676
 122866575.788 7  95740325.80944  23380753.344                    23380761.762
 121944850.288 7  95022002.29243  23205330.602                    23205339.480
 129560698.040 6 100956426.55942  24654584.211                    24654594.293
 108255743.125 8  84355153.97146  20600384.477                    20600391.570
 110718580.202 8  86274236.657 7  21069039.938                    21069047.551
 11  8 18 17 13 30.0000000  0 10G06G08G23G03G19G28G11G10G13G07
 129399475.197 6 100830797.96842  24623917.352                    24623927.773
 118821959.086 7  92588577.13644  22611058.625                    22611066.848
 116020354.548 8  90405480.67245  22077944.328                    22077950.590
 118768075.885 7  92546571.14844  22600818.773                    22600827.801
 111086171.010 8  86560676.13146  21138993.977                    21139000.648
 122816871.438 7  95701595.16144  23371295.273                    23371303.445
 121869516.665 7  94963300.77943  23190995.078                    23191004.273
 129612781.077 6 100997010.68642  24664495.578                    24664505.430
 108314570.252 8  84400993.24746  20611578.750                    20611586.504
 110672995.748 8  86238716.307 7  21060366.398                    21060373.375
 11  8 18 17 14  0.0000000  0 10G06G08G23G03G19G28G11G10G13G07
 129498835.915 6 100908221.86842  24642824.461                    24642835.813
 118750105.201 7  92532587.13245  22597385.883                    22597394.113
 116120306.206 7  90483365.01145  22096964.844                    22096970.461
 118862515.285 7  92620160.24844  22618789.859                    22618798.660
 111122291.026 8  86588821.58746  21145867.758                    21145874.168
 122767374.862 7  95663026.44444  23361875.734                    23361884.055
 121794317.224 7  94904703.82843  23176685.000                    23176694.000
 129665052.896 6 101037741.95842  24674442.656                    24674452.746
 108373922.434 8  84447241.68146  20622872.906                    20622880.391
 110627577.224 8  86203325.258 7  21051723.195                    21051730.543
 11  8 18 17 14 30.0000000  0 10G06G08G23G03G19G28G11G10G13G07
 129598359.074 6 100985772.36542  24661763.094                    24661774.500
 118678246.873 7  92476593.67945  22583711.180                    22583719.559
 116220548.073 8  90561475.47745  22116040.117                    22116046.719
 118957265.128 7  92693991.23844  22636820.094                    22636829.102
 111158991.347 8  86617419.22446  21152851.375                    21152857.293
 122718085.413 6  95624619.11544  23352496.102                    23352504.613
 121719254.912 7  94846213.73744  23162401.648                    23162410.285
 129717510.724 6 101078618.17442  24684424.578                    24684434.715
 108433797.960 8  84493897.89746  20634267.438                    20634274.496
 110582326.354 8  86168064.851 7  21043112.477                    21043119.906
 11  8 18 17 15  0.0000000  0 10G06G08G23G03G19G28G11G10G13G07
 129698042.157 6 101063447.35942  24680731.453                    24680743.832
 118606385.422 7  92420597.76244  22570036.102                    22570044.902
 116321077.122 8  90639809.72845  22135170.266                    22135176.758
 119052322.661 7  92768061.98444  22654909.742                    22654918.465
 111196270.422 8  86646467.84546  21159945.578                    21159951.246
 122669002.495 7  95586372.71244  23343155.258                    23343164.570
 121644332.859 6  94787832.95143  23148143.633                    23148153.188
 129770151.915 6 101119637.26943  24694442.141                    24694451.438
 108494195.202 8  84540960.65646  20645760.438                    20645767.754
 110537244.483 8  86132936.130 7  21034533.539                    21034540.898
 11  8 18 17 15 30.0000000  0 10G06G08G23G03G19G28G11G10G13G07
 129797882.861 6 101141245.29242  24699731.820                    24699742.676
 118534522.304 7  92364600.57845  22556361.250                    22556370.203
 116421890.346 7  90718365.41445  22154354.203                    22154360.930
 119147684.879 7  92842370.13544  22673055.820                    22673065.559
 111234127.195 8  86675966.63046  21167149.742                    21167155.219
 122620125.961 7  95548287.12744  23333854.945                    23333862.996
 121569554.049 7  94729563.76543  23133914.211                    23133923.207
 129822973.533 6 101160796.96643  24704493.773                    24704503.953
 108555112.382 8  84588428.56446  20657352.523                    20657359.898
 110492333.477 8  86097940.550 7  21025987.039                    21025994.172
 11  8 18 17 16  0.0000000  0 10G06G08G23G03G19G28G11G10G13G07
 129897878.502 6 101219163.91242  24718758.898                    24718772.031
 118462658.530 7  92308602.86044  22542686.063                    22542695.047
 116522984.889 7  90797140.31245  22173592.094                    22173598.328
 119243349.075 7  92916913.61244  22691260.867                    22691269.336
 111272559.910 8  86705914.19446  21174462.828                    21174468.695
 122571454.601 7  95510361.39844  23324593.070                    23324601.617
 121494921.097 7  94671408.25943  23119711.664                    23119720.934
 129875973.100 6 101202095.30143  24714579.859                    24714590.031
 108616547.242 8  84636299.84646  20669042.953                    20669050.336
 110447594.891 8  86063079.322 7  21017473.711                    21017480.953
 11  8 18 17 16 30.0000000  0 10G06G08G23G03G19G28G11G10G13G07
 129998026.704 6 101297201.38942  24737816.969                    24737828.523
 118390795.327 7  92252605.56045  22529011.039                    22529019.680
 116624357.998 7  90876132.28545  22192882.359                    22192888.887
 119339312.046 7  92991689.86344  22709521.344                    22709530.605
 111311566.949 8  86736309.28246  21181885.695                    21181891.746
 122522988.094 6  95472595.29744  23315370.602                    23315377.969
 121420437.894 7  94613369.41943  23105538.250                    23105547.512
 129929147.621 7 101243529.96243  24724698.281                    24724708.074
 108678498.028 8  84684573.15946  20680832.039                    20680839.207
 110403031.004 8  86028354.228 7  21008993.305                    21009000.918
 11  8 18 17 17  0.0000000  0 10G06G08G23G03G19G28G11G10G13G07
 130098324.746 6 101375355.60442  24756903.523                    24756914.848
 118318933.531 7  92196609.39845  22515335.906                    22515344.457
 116726006.736 7  90955339.00945  22212225.844                    22212232.422
 119435570.822 7  93066696.64544  22727838.867                    22727848.230
 111351146.682 8  86767150.61746  21189417.320                    21189423.203
 122474725.983 7  95434988.47744  23306186.297                    23306194.438
 121346107.033 7  94555449.28943  23091392.336                    23091401.930
 129982494.331 7 101285098.79344  24734850.242                    24734860.488
 108740962.864 8  84733247.02346  20692718.602                    20692725.887
 110358642.652 8  85993765.921 7  21000546.547                    21000553.879
 11  8 18 17 17 30.0000000  0 10G06G08G23G03G19G28G11G10G13G07
 130198770.045 6 101453624.61043  24776017.711                    24776028.824
 118247074.306 7  92140615.20445  22501661.422                    22501670.047
 116827928.146 8  91034758.21145  22231620.859                    22231627.754
 119532122.380 7  93141931.57044  22746212.406                    22746221.367
 111391297.213 8  86798436.73146  21197057.617                    21197063.664
 122426667.158 7  95397540.04544  23297041.781                    23297049.547
 121271930.931 7  94497649.78443  23077278.336                    23077287.348
 130036010.264 7 101326799.47843  24745033.781                    24745044.160
 108803939.251 8  84782319.50346  20704702.773                    20704710.113
 110314431.089 8  85959315.364 7  20992133.070                    20992141.141
 11  8 18 17 18  0.0000000  0 10G06G08G23G03G19G28G11G10G13G07
 130299360.480 6 101532006.72843  24795159.797                    24795170.234
 118175219.593 7  92084624.55445  22487988.227                    22487996.797
 116930119.762 7  91114388.00144  22251067.180                    22251074.246
 119628964.018 7  93217392.52944  22764640.703                    22764649.773
 111432017.802 8  86830167.04946  21204806.703                    21204812.355
 122378811.573 7  95360250.00944  23287934.141                    23287942.754
 121197913.201 7  94439973.70343  23063192.719                    23063202.066
 130089692.908 7 101368630.09043  24755249.500                    24755259.242
 108867425.646 8  84831789.39146  20716783.547                    20716791.078
 110270399.451 8  85925005.014 7  20983754.578                    20983761.617
 11  8 18 17 18 30.0000000  0 10G06G08G23G03G19G28G11G10G13G07
 130400093.708 6 101610500.09243  24814327.820                    24814338.938
 118103370.275 7  92028638.09745  22474315.508                    22474324.488
 117032578.542 7  91194225.94345  22270564.727                    22270571.492
 119726092.889 7  93293077.30944  22783123.898                    22783133.199
 111473306.361 8  86862339.93446  21212663.820                    21212669.461
 122331158.612 7  95323117.83744  23278866.805                    23278875.105
 121124057.136 7  94382423.55644  23049138.898                    23049147.719
 130143539.196 7 101410588.18043  24765496.125                    24765505.832
 108931420.166 8  84881655.22546  20728961.617                    20728969.172
 110226549.389 8  85890836.152 7  20975410.156                    20975417.199
 11  8 18 17 19  0.0000000  0 10G06G08G23G03G19G28G11G10G13G07
 130500966.852 6 101689102.46043  24833523.523                    24833535.320
 118031527.613 7  91972656.82245  22460644.594                    22460653.066
 117135301.445 7  91274269.68445  22290112.180                    22290119.277
 119823506.312 7  93368983.81344  22801660.734                    22801669.977
 111515161.133 8  86894954.02746  21220628.070                    21220634.352
 122283707.476 7  95286142.94044  23269836.633                    23269844.848
 121050365.253 7  94325001.36444  23035115.625                    23035123.754
 130197546.408 7 101452671.68643  24775772.570                    24775783.191
 108995920.662 8  84931915.31646  20741235.414                    20741242.934
 110182881.762 8  85856809.449 7  20967100.133                    20967107.473
 11  8 18 17 19 30.0000000  0 10G06G08G23G03G19G28G11G10G13G07
 130601977.748 6 101767812.19743  24852745.375                    24852757.008
 117959692.035 7  91916681.08745  22446974.563                    22446983.320
 117238285.792 7  91354517.14944  22309710.156                    22309716.180
 119921201.089 7  93445109.52144  22820251.664                    22820260.633
 111557580.661 8  86928008.18146  21228700.414                    21228706.234
 122236457.539 7  95249324.81944  23260845.336                    23260853.266
 120976840.920 7  94267709.72143  23021124.766                    23021132.848
 130251711.803 7 101494878.45043  24786080.539                    24786090.688
 109060925.065 8  84982568.07546  20753605.609                    20753613.133
 110139398.525 8  85822926.424 7  20958825.625                    20958832.785
 11  8 18 17 20  0.0000000  0 10G06G08G23G03G19G28G11G10G13G07
 130703124.212 6 101846627.58442  24871992.617                    24872005.344
 117887866.266 8  91860712.99045  22433306.594                    22433315.418
 117341528.944 7  91434966.29744  22329355.680                    22329362.660
 120019174.572 7  93521452.44344  22838895.563                    22838905.102
 111600563.703 8  86961501.43846  21236879.750                    21236885.770
 122189408.656 7  95212663.36044  23251891.695                    23251899.969
 120903487.523 7  94210551.29244  23007166.047                    23007173.652
 130306033.033 7 101537206.61743  24796417.977                    24796427.566
 109126431.654 8  85033612.13246  20766071.188                    20766078.203
 110096102.265 8  85789189.097 7  20950586.516                    20950593.766
 11  8 18 17 20 30.0000000  0  9G08G23G03G19G28G11G10G13G07
 117816051.837 7  91804753.72345  22419640.789                    22419649.352
 117445028.525 7  91515615.23445  22349051.813                    22349058.352
 120117424.428 7  93598010.71144  22857592.063                    22857601.438
 111644108.864 8  86995432.71646  21245166.359                    21245172.203
 122142560.729 7  95176158.50544  23242977.102                    23242986.047
 120830308.269 7  94153528.56244  22993240.070                    22993248.703
 130360507.619 7 101579654.32644  24806783.938                    24806794.180
 109192438.845 8  85085046.28146  20778631.633                    20778639.473
 110052994.665 8  85755598.774 7  20942383.563                    20942390.270
 11  8 18 17 21  0.0000000  0  9G08G23G03G19G28G11G10G13G07
 117744248.749 7  91748803.29345  22405977.000                    22405985.957
 117548780.540 7  91596460.89345  22368795.008                    22368801.461
 120215946.710 7  93674781.22844  22876339.969                    22876349.246
 111688213.050 7  87029799.60246  21253559.266                    21253565.453
 122095911.747 7  95139808.65244  23234100.148                    23234108.352
 120757305.227 7  94096643.14544  22979347.461                    22979356.871
 130415131.962 6 101622218.68543  24817178.516                    24817188.422
 109258943.451 8  85136868.02146  20791287.383                    20791294.445
 110010076.677 8  85722156.193 7  20934216.539                    20934223.793
 11  8 18 17 21 30.0000000  0  9G08G23G03G19G28G11G10G13G07
 117672458.461 7  91692862.84245  22392315.320                    22392324.543
 117652782.362 7  91677501.18144  22388585.820                    22388592.801
 120314738.616 7  93751761.86844  22895139.438                    22895148.789
 111732874.812 7  87064600.95246  21262058.117                    21262064.008
 122049461.103 7  95103613.36444  23225260.977                    23225269.609
 120684481.332 7  94039897.31544  22965489.922                    22965498.898
 130469903.076 6 101664897.42543  24827600.805                    24827612.090
 109325943.434 8  85189075.77746  20804037.266                    20804044.570
 109967350.113 8  85688862.775 7  20926086.234                    20926093.039
 11  8 18 17 22  0.0000000  0  9G08G23G03G19G28G11G10G13G07
 117600682.007 7  91636933.17045  22378657.258                    22378665.758
 117757030.834 7  91758733.67944  22408423.508                    22408429.980
 120413797.411 7  93828950.46044  22913989.633                    22913999.148
 111778092.159 7  87099835.24346  21270662.656                    21270668.668
 122003208.392 7  95067572.32344  23216459.617                    23216467.719
 120611839.645 7  93983293.47044  22951666.633                    22951675.535
 130524818.191 6 101707688.36043  24838050.906                    24838061.445
 109393436.754 8  85241667.95146  20816880.813                    20816888.070
 109924816.204 8  85655719.478 7  20917992.258                    20917999.285
 11  8 18 17 22 30.0000000  0  9G08G23G03G19G28G11G10G13G07
 117528921.274 7  91581015.73645  22365001.359                    22365009.863
 117861522.987 7  91840156.04745  22428308.164                    22428314.340
 120513120.073 7  93906344.67744  22932890.430                    22932900.027
 111823863.850 7  87135501.47846  21279372.922                    21279378.441
 121957152.436 7  95031684.60844  23207695.102                    23207702.934
 120539383.934 7  93926834.55044  22937879.008                    22937887.902
 130579874.765 6 101750589.55543  24848528.797                    24848538.555
 109461421.415 8  85294642.98346  20829817.828                    20829825.543
 109882477.484 7  85622728.259 7  20909935.430                    20909942.785
 11  8 18 17 23  0.0000000  0  9G08G23G03G19G28G11G10G13G07
 117457177.500 7  91525111.52045  22351349.641                    22351358.082
 117966256.095 7  91921766.17944  22448238.414                    22448244.781
 120612703.605 7  93983942.15544  22951840.664                    22951849.992
 111870187.896 7  87171598.13046  21288187.766                    21288193.723
 121911293.395 7  94995950.33044  23198968.383                    23198976.582
 120467116.801 7  93870522.55944  22924126.344                    22924135.398
 130635069.761 6 101793598.57143  24859031.383                    24859041.902
 109529895.048 8  85347999.02846  20842847.711                    20842854.797
 109840335.637 8  85589890.467 7  20901915.563                    20901922.680
 11  8 18 17 23 30.0000000  0  9G08G23G03G19G28G11G10G13G07
 117385451.942 7  91469221.50345  22337699.891                    22337709.219
 118071227.153 7  92003561.72844  22468213.281                    22468220.020
 120712545.557 7  94061741.02844  22970839.930                    22970849.492
 111917062.098 8  87208123.46346  21297107.633                    21297113.773
 121865630.146 7  94960368.60244  23190279.414                    23190287.223
 120395040.966 7  93814359.63944  22910411.008                    22910420.484
 130690400.174 6 101836713.11843  24869560.570                    24869571.289
 109598855.336 8  85401734.29746  20855970.383                    20855977.992
 109798392.169 8  85557207.249 7  20893934.148                    20893941.277
 11  8 18 17 24  0.0000000  0  9G08G23G03G19G28G11G10G13G07
 117313746.094 7  91413346.85745  22324054.797                    22324063.766
 118176433.400 7  92085540.55444  22488233.086                    22488240.289
 120812642.804 7  94139738.80344  22989888.023                    22989896.922
 111964484.817 8  87245076.22446  21306132.023                    21306138.086
 121820161.967 7  94924938.89844  23181626.828                    23181635.059
 120323159.770 7  93758348.36744  22896732.055                    22896741.566
 130745863.155 6 101879931.00343  24880114.461                    24880125.211
 109668299.858 8  85455846.88246  20869185.469                    20869193.086
 109756649.025 8  85524680.120 7  20885990.664                    20885998.328
 11  8 18 17 24 30.0000000  0 10G24G08G23G03G19G28G11G10G13G07
 128079177.02815                  24372665.023
 117242061.529 7  91357488.78545  22310414.117                    22310422.559
 118281872.534 7  92167700.82044  22508298.016                    22508304.539
 120912992.509 7  94217933.30744  23008983.875                    23008993.348
 112012454.913 8  87282455.49946  21315260.086                    21315266.578
 121774889.072 7  94889661.35844  23173011.570                    23173019.387
 120251476.875 7  93702491.62444  22883091.531                    22883100.977
 130801456.823 6 101923250.65943  24890694.414                    24890704.641
 109738227.794 8  85510336.15046  20882492.336                    20882499.961
 109715108.869 8  85492311.170 7  20878085.813                    20878093.445
 11  8 18 17 25  0.0000000  0 10G24G08G23G03G19G28G11G10G13G07
 128006973.21515                  24358925.984
 117170399.052 7  91301647.91845  22296777.109                    22296785.926
 118387540.741 7  92250039.59844  22528406.563                    22528412.781
 121013591.778 7  94296322.26844  23028127.281                    23028136.559
 112060969.593 8  87320259.13246  21324491.797                    21324498.609
 121729809.803 7  94854534.67744  23164433.492                    23164441.859
 120179994.418 7  93646791.04644  22869488.820                    22869498.090
 130857177.699 6 101966669.43943  24901296.617                    24901307.391
 109808635.775 8  85565199.48446  20895890.320                    20895898.129
 109673772.284 8  85460100.854 7  20870219.688                    20870227.094
 11  8 18 17 25 30.0000000  0 10G24G08G23G03G19G28G11G10G13G07
 127934699.93915                  24345171.438
 117098760.309 7  91245825.54545  22283144.664                    22283153.371
 118493435.412 7  92332554.84344  22548557.172                    22548564.086
 121114437.719 7  94374903.43143  23047317.445                    23047327.012
 112110027.027 8  87358485.67446  21333827.641                    21333833.660
 121684923.456 7  94819558.32544  23155891.539                    23155899.555
 120108715.499 7  93591249.09444  22855925.023                    22855933.617
 130913022.764 6 102010185.01143  24911923.609                    24911934.039
 109879521.502 8  85620435.08546  20909379.508                    20909387.074
 109632641.158 8  85428050.629 7  20862392.820                    20862400.426
 11  8 18 17 26  0.0000000  0 10G24G08G23G03G19G28G11G10G13G07
 127862359.00515                  24331405.523
 117027147.507 7  91190023.39545  22269517.391                    22269525.516
 118599554.172 7  92415244.67044  22568751.305                    22568757.953
 121215527.783 7  94453674.83644  23066554.188                    23066564.277
 112159625.994 8  87397134.19446  21343266.117                    21343272.684
 121640230.061 7  94784732.35144  23147387.070                    23147394.895
 120037643.979 7  93535868.74344  22842400.313                    22842409.063
 130968990.017 6 102053795.77943  24922574.492                    24922584.547
 109950883.364 8  85676041.70246  20922959.492                    20922967.059
 109591718.021 8  85396162.478 7  20854605.578                    20854612.770
 11  8 18 17 26 30.0000000  0  9G24G08G23G03G19G28G11G13G07
 127789955.238 5                  24317627.133
 116955562.495 7  91134242.89545  22255894.945                    22255903.398
 118705894.784 7  92498107.38944  22588987.352                    22588994.051
 121316859.924 7  94532634.86544  23085837.094                    23085846.996
 112209765.039 7  87436203.55546  21352807.164                    21352813.434
 121595729.579 7  94750056.67844  23138918.766                    23138926.875
 119966783.563 7  93480652.90944  22828915.875                    22828924.617
 110022719.974 8  85732018.24346  20936629.391                    20936637.297
 109551005.972 8  85364438.814 7  20846858.336                    20846865.594
 11  8 18 17 27  0.0000000  0  9G24G08G23G03G19G28G11G13G07
 127717489.307 5                  24303837.352
 116884005.028 7  91078483.85045  22242277.617                    22242286.168
 118812452.256 7  92581139.11344  22609264.367                    22609270.699
 121418429.308 7  94611779.77444  23105165.391                    23105174.488
 112260440.468 7  87475690.88246  21362450.586                    21362456.777
 121551419.502 7  94715529.36544  23130486.461                    23130495.043
 119896135.304 7  93425602.36844  22815472.055                    22815480.844
 110095027.005 8  85788361.35846  20950388.594                    20950396.012
 109510504.060 8  85332878.870 7  20839151.180                    20839158.234
 11  8 18 17 27 30.0000000  0  9G24G08G23G03G19G28G11G13G07
 127644964.623 5                  24290035.742
 116812476.986 7  91022747.74745  22228666.820                    22228674.652
 118919224.760 7  92664338.38644  22629582.875                    22629589.277
 121520234.080 7  94691108.09643  23124537.828                    23124547.508
 112311651.092 7  87515595.25346  21372195.594                    21372201.816
 121507299.872 7  94681150.46344  23122090.773                    23122098.684
 119825703.076 7  93370720.13744  22802069.422                    22802077.914
 110167803.081 8  85845069.95646  20964237.641                    20964245.492
 109470215.489 8  85301485.196 7  20831484.125                    20831491.656
 11  8 18 17 28  0.0000000  0  9G24G08G23G03G19G28G11G13G07
 127572383.068 5                  24276224.922
 116740979.295 7  90967035.30445  22215060.477                    22215068.969
 119026208.653 7  92747702.34844  22649941.430                    22649948.051
 121622270.664 7  94770617.04544  23143955.563                    23143964.879
 112363394.166 7  87555914.50646  21382042.234                    21382048.207
 121463369.467 7  94646919.01044  23113731.063                    23113739.418
 119755489.344 7  93316008.16344  22788707.914                    22788716.145
 110241044.553 8  85902141.20746  20978174.953                    20978182.457
 109430141.188 8  85270258.479 7  20823858.695                    20823865.848
 11  8 18 17 28 30.0000000  0  9G24G08G23G03G19G28G11G13G07
 127499748.254 5                  24262403.148
 116669514.222 7  90911348.24145  22201461.461                    22201469.773
 119133401.519 7  92831229.17444  22670339.172                    22670345.914
 121724536.795 7  94850304.86044  23163415.727                    23163425.000
 112415668.318 7  87596647.60246  21391989.414                    21391995.047
 121419627.944 7  94612834.75344  23105407.164                    23105415.813
 119685497.582 7  93261469.19644  22775389.039                    22775397.227
 110314750.255 8  85959574.19446  20992201.109                    20992208.484
 109390283.757 8  85239200.752 7  20816274.188                    20816281.121
 11  8 18 17 29  0.0000000  0  9G24G08G23G03G19G28G11G13G07
 127427062.61515                  24248571.898
 116598083.359 7  90855687.85345  22187868.914                    22187876.625
 119240800.527 7  92914916.63044  22690776.188                    22690783.355
 121827029.568 6  94930169.28343  23182919.016                    23182929.719
 112468471.631 7  87637793.01846  21402037.875                    21402043.648
 121376074.305 7  94578896.85944  23097119.000                    23097127.207
 119615730.867 7  93207105.55944  22762112.500                    22762120.367
 110388917.862 8  86017367.10046  21006314.758                    21006322.391
 109350644.896 8  85208313.334 7  20808730.664                    20808738.254
 11  8 18 17 29 30.0000000  0  9G24G08G23G03G19G28G11G13G07
 127354328.786 5                  24234730.328
 116526687.619 7  90800054.83645  22174282.258                    22174290.637
 119348402.352 7  92998762.10344  22711252.656                    22711259.965
 121929745.839 7  95010207.83043  23202465.914                    23202475.305
 112521801.404 7  87679348.67246  21412186.031                    21412192.293
 121332708.115 7  94545105.05544  23088867.102                    23088874.668
 119546192.160 7  93152919.57444  22748879.664                    22748886.988
 110463544.574 8  86075517.75946  21020515.711                    21020523.590
 109311225.903 8  85177597.243 7  20801229.742                    20801236.836
 11  8 18 17 30  0.0000000  0  9G24G08G23G03G19G28G11G13G07
 127281550.51914                  24220880.719
 116455328.825 7  90744450.60945  22160703.266                    22160711.883
 119456204.506 7  93082763.69344  22731766.852                    22731774.059
 122032683.416 7  95090418.83943  23222054.508                    23222064.012
 112575656.140 8  87721313.38146  21422433.914                    21422440.074
 121289528.608 7  94511458.70344  23080650.578                    23080658.211
 119476884.787 7  93098913.87744  22735691.469                    22735699.531
 110538628.360 8  86134024.56846  21034803.609                    21034811.418
 109272029.448 8  85147054.561 7  20793770.555                    20793777.922
 11  8 18 17 30 30.0000000  0  9G24G08G23G03G19G28G11G13G07
 127208729.52814                  24207023.727
 116384008.661 7  90688876.47645  22147131.578                    22147139.289
 119564203.901 7  93166918.94844  22752318.289                    22752326.113
 122135839.044 6  95170799.79043  23241684.555                    23241694.000
 112630033.811 8  87763685.56946  21432781.680                    21432788.082
 121246534.986 7  94477957.22244  23072468.969                    23072476.703
 119407811.583 7  93045090.65644  22722546.969                    22722554.477
 110614166.730 8  86192885.60746  21049178.070                    21049185.414
 109233057.326 8  85116686.671 7  20786354.742                    20786362.000
 11  8 18 17 31  0.0000000  0  9G24G08G23G03G19G28G11G13G07
 127135868.109 5                  24193158.969
 116312728.194 7  90633333.27745  22133567.063                    22133575.746
 119672397.143 7  93251225.27444  22772906.711                    22772914.387
 122239209.594 6  95251348.19843  23261355.258                    23261365.445
 112684931.563 7  87806463.02346  21443228.195                    21443234.875
 121203726.139 7  94444599.70744  23064322.805                    23064330.000
 119338975.214 7  92991451.97844  22709447.836                    22709455.691
 110690156.776 8  86252098.60646  21063638.273                    21063646.145
 109194310.562 8  85086494.394 7  20778981.391                    20778988.707
 11  8 18 17 31 30.0000000  0  9G24G08G23G03G19G28G11G13G07
 127062970.028 6                  24179287.055
 116241489.142 7  90577822.34545  22120010.516                    22120018.906
 119780781.135 7  93335680.24744  22793531.969                    22793539.176
 122342792.129 7  95332061.78943  23281066.500                    23281076.254
 112740347.441 8  87849644.20346  21453773.766                    21453779.863
 121161101.376 7  94411385.65344  23056211.031                    23056218.730
 119270378.467 7  92938000.01244  22696394.156                    22696402.242
 110766595.905 8  86311661.53146  21078184.477                    21078192.398
 109155791.056 8  85056479.199 7  20771651.484                    20771658.480
 11  8 18 17 32  0.0000000  0 10G01G24G08G23G03G19G28G11G13G07
 127790692.32315  99577215.37816  24317756.641                    24317769.359
 126990038.04816                  24165407.891
 116170293.095 7  90522344.93745  22106462.742                    22106471.043
 119889353.885 7  93420282.30244  22814192.891                    22814200.328
 122446584.379 7  95412938.76343  23300817.578                    23300827.406
 112796279.463 7  87893227.57646  21464417.461                    21464423.547
 121118660.237 7  94378314.68944  23048134.680                    23048141.980
 119202025.034 7  92884737.63544  22683386.977                    22683395.344
 110843482.370 8  86371573.03246  21092815.617                    21092823.355
 109117501.376 8  85026643.085 7  20764365.125                    20764372.383
 11  8 18 17 32 30.0000000  0 10G01G24G08G23G03G19G28G11G13G07
 127713756.390 6  99517265.427 6  24303115.555                    24303130.020
 126917074.900 6                  24151524.469
 116099141.868 7  90466902.44645  22092923.148                    22092931.145
 119998112.353 7  93505029.03944  22834889.086                    22834895.789
 122550583.511 6  95493976.95543  23320608.422                    23320618.004
 112852725.727 8  87937211.65946  21475159.016                    21475165.180
 121076401.987 7  94345386.21544  23040092.891                    23040100.793
 119133918.088 7  92831667.32444  22670426.664                    22670434.934
 110920813.698 8  86431831.17445  21107531.180                    21107539.078
 109079443.435 8  84996987.541 7  20757123.258                    20757130.301
 11  8 18 17 33  0.0000000  0 10G01G24G08G23G03G19G28G11G13G07
 127636778.578 5  99457282.857 6  24288468.078                    24288482.219
 126844083.688 5                  24137634.195
 116028037.185 7  90411496.21445  22079392.219                    22079400.711
 120107053.217 7  93589917.92244  22855619.859                    22855626.996
 122654786.351 7  95575173.90943  23340436.984                    23340447.414
 112909684.121 8  87981594.79346  21485997.281                    21486003.551
 121034325.824 7  94312599.63444  23032087.078                    23032094.164
 119066060.302 7  92778791.18944  22657513.438                    22657521.777
 110998587.189 8  86492433.85846  21122331.320                    21122338.914
 109041618.588 8  84967513.640 7  20749924.828                    20749932.219
 11  8 18 17 33 30.0000000  0 10G01G24G08G23G03G19G28G11G13G07
 127559761.654 6  99397269.745 6  24273810.805                    24273826.051
 126771067.31215  98782724.83052  24123738.672                    24123751.219
 115956980.509 7  90356127.40345  22065870.531                    22065878.793
 120216173.986 7  93674946.98944  22876384.992                    22876391.508
 122759190.666 7  95656527.85243  23360304.789                    23360314.684
 112967152.427 8  88026375.25246  21496933.344                    21496939.813
 120992431.256 7  94279954.53544  23024114.297                    23024121.828
 118998455.042 7  92726111.78744  22644648.898                    22644657.609
 111076800.822 8  86553379.51545  21137214.406                    21137222.008
 109004029.337 8  84938223.316 7  20742772.086                    20742778.887
 11  8 18 17 34  0.0000000  0 10G01G24G08G23G03G19G28G11G13G07
 127482708.565 6  99337228.510 6  24259147.820                    24259163.773
 126698028.140 5  98725811.38042  24109839.125                    24109852.781
 115885973.133 7  90300797.00045  22052358.391                    22052366.875
 120325471.199 7  93760113.54944  22897183.008                    22897190.820
 122863793.300 7  95738036.30143  23380209.406                    23380220.227
 113025127.960 8  88071550.96046  21507965.898                    21507972.309
 120950717.041 7  94247450.02244  23016175.438                    23016183.652
 118931104.818 7  92673631.15344  22631832.367                    22631841.328
 111155451.411 8  86614665.65245  21152181.406                    21152189.078
 108966677.002 8  84909117.615 7  20735664.281                    20735671.297
 11  8 18 17 34 30.0000000  0 10G01G24G08G23G03G19G28G11G13G07
 127405621.951 6  99277161.143 6  24244479.750                    24244494.469
 126624969.334 5  98668882.52142  24095937.602                    24095950.098
 115815017.216 7  90245506.70445  22038855.875                    22038864.320
 120434942.753 7  93845415.93144  22918015.469                    22918022.387
 122968591.523 7  95819697.17243  23400152.531                    23400162.266
 113083609.172 7  88117120.69246  21519094.211                    21519100.301
 120909182.663 7  94215085.58744  23008272.227                    23008280.633
 118864013.376 7  92621352.14644  22619065.148                    22619074.012
 111234537.038 8  86676290.78946  21167230.688                    21167238.219
 108929564.046 8  84880198.423 7  20728602.141                    20728609.453
 11  8 18 17 35  0.0000000  0 10G01G24G08G23G03G19G28G11G13G07
 127328504.428 6  99217069.644 6  24229804.883                    24229818.945
 126551893.486 5  98611940.43842  24082030.070                    24082044.480
 115744113.666 7  90190257.20245  22025363.266                    22025372.055
 120544584.761 7  93930851.15544  22938879.539                    22938886.898
 123073582.217 6  95901508.00643  23420131.367                    23420140.859
 113142593.031 8  88163082.11546  21530318.875                    21530324.727
 120867827.021 7  94182860.42944  23000402.414                    23000410.555
 118797182.871 7  92569276.48645  22606347.852                    22606356.520
 111314054.616 8  86738252.50746  21182362.617                    21182370.109
 108892691.464 8  84851466.555 7  20721585.172                    20721592.426
 11  8 18 17 35 30.0000000  0 10G01G24G08G23G03G19G28G11G13G07
 127251358.720 6  99156956.248 6  24215124.516                    24215138.574
 126478803.352 6  98554987.17942  24068121.133                    24068135.227
 115673264.286 7  90135049.91945  22011881.164                    22011889.813
 120654394.391 7  94016416.98644  22959776.078                    22959782.961
 123178762.829 6  95983466.84243  23440146.484                    23440156.484
 113202077.595 8  88209433.69346  21541638.023                    21541644.699
 120826649.374 7  94150774.00844  22992567.164                    22992575.020
 118730616.558 7  92517406.68644  22593680.820                    22593689.180
 111394001.512 8  86800548.74546  21197576.305                    21197583.547
 108856061.508 8  84822923.729 7  20714614.688                    20714622.000
 11  8 18 17 36  0.0000000  0 10G01G24G08G23G03G19G28G11G13G07
 127174188.282 6  99096823.542 6  24200438.789                    24200453.160
 126405702.245 5  98498025.37542  24054211.070                    24054225.059
 115602471.024 7  90079886.35245  21998409.555                    21998418.137
 120764369.119 7  94102111.46744  22980703.469                    22980710.676
 123284130.608 7  96065571.53043  23460197.711                    23460207.414
 113262060.704 8  88256173.75246  21553053.195                    21553059.156
 120785649.179 7  94118825.81844  22984765.219                    22984773.023
 118664317.667 7  92465745.26244  22581064.172                    22581072.832
 111474375.437 8  86863177.75746  21212870.563                    21212878.324
 108819676.548 8  84794571.818 7  20707691.078                    20707698.035
 11  8 18 17 36 30.0000000  0 10G01G24G08G23G03G19G28G11G13G07
 127096995.617 6  99036673.494 6  24185749.336                    24185764.316
 126332592.831 6  98441057.08642  24040299.523                    24040313.090
 115531735.787 7  90024768.01545  21984949.391                    21984957.844
 120874506.007 7  94187932.31344  23001662.250                    23001669.012
 123389682.395 6  96147819.59643  23480283.914                    23480293.152
 113322539.890 8  88303300.36846  21564561.750                    21564568.074
 120744825.526 7  94087015.22844  22976996.180                    22977004.656
 118598289.338 7  92414294.65145  22568499.984                    22568508.180
 111555173.833 7  86926137.50846  21228245.633                    21228254.176
 108783538.213 8  84766412.081 7  20700814.016                    20700821.621
 11  8 18 17 37  0.0000000  0 10G01G24G08G23G03G19G28G11G13G07
 127019783.333 6  98976508.171 6  24171056.180                    24171070.656
 126259477.517 6  98384084.24042  24026385.961                    24026398.863
 115461059.653 8  89969695.72845  21971499.883                    21971508.406
 120984801.625 7  94273876.81444  23022650.594                    23022657.762
 123495415.774 7  96230209.16243  23500403.633                    23500413.898
 113383512.747 8  88350811.64946  21576164.500                    21576170.336
 120704177.150 7  94055341.19644  22969261.281                    22969269.609
 118532533.903 7  92363056.70044  22555986.227                    22555995.074
 111636393.701 8  86989425.67845  21243701.375                    21243709.816
 108747647.867 8  84738445.587 7  20693984.133                    20693991.516
 11  8 18 17 37 30.0000000  0 10G01G24G08G23G03G19G28G11G13G07
 126942554.665 6  98916330.051 6  24156360.641                    24156374.758
 126186359.873 5  98327109.54442  24012471.578                    24012484.980
 115390444.458 7  89914670.93445  21958061.898                    21958070.855
 121095253.549 7  94359943.15244  23043669.070                    23043675.992
 123601328.114 7  96312738.18343  23520558.313                    23520568.680
 113444977.086 8  88398705.90846  21587860.680                    21587866.781
 120663703.610 7  94023803.38544  22961560.273                    22961567.598
 118467054.889 7  92312034.13844  22543525.797                    22543535.141
 111718032.819 7  87053040.54345  21259236.859                    21259245.008
 108712007.940 8  84710674.221 7  20687202.203                    20687209.340
 11  8 18 17 38  0.0000000  0 10G01G24G08G23G03G19G28G11G13G07
 126865312.201 6  98856141.203 6  24141660.563                    24141675.809
 126113242.866 6  98270135.28242  23998558.063                    23998571.301
 115319892.083 7  89859695.08445  21944636.383                    21944644.906
 121205858.834 7  94446128.97544  23064716.563                    23064724.039
 123707416.562 6  96395404.42543  23540746.789                    23540756.223
 113506930.901 8  88446981.57946  21599650.242                    21599656.305
 120623404.324 7  93992401.39944  22953890.617                    22953898.551
 118401855.342 7  92261229.31144  22531118.680                    22531127.359
 111800088.838 8  87116980.26645  21274851.797                    21274859.805
 108676620.542 8  84683099.624 7  20680468.320                    20680475.391
 11  8 18 17 38 30.0000000  0 10G01G24G08G23G03G19G28G11G13G07
 126788058.757 6  98795943.811 6  24126959.680                    24126974.629
 126040128.877 6  98213163.47742  23984645.281                    23984657.840
 115249403.773 7  89804769.16345  21931222.797                    21931231.695
 121316614.110 6  94532431.65444  23085792.781                    23085799.836
 123813678.093 6  96478205.55143  23560967.305                    23560977.527
 113569371.474 8  88495636.55446  21611532.063                    21611537.750
 120583278.132 7  93961134.26344  22946255.039                    22946262.406
 118336938.024 7  92210644.40944  22518765.836                    22518774.191
 111882558.544 7  87181242.35245  21290545.211                    21290553.520
 108641486.839 8  84655722.719 7  20673782.375                    20673789.949
 11  8 18 17 39  0.0000000  0 10G01G24G08G23G03G19G28G11G13G07
 126710796.956 6  98735739.957 6  24112258.281                    24112271.609
 125967020.598 6  98156196.07842  23970733.195                    23970746.105
 115178981.494 7  89749894.68045  21917822.297                    21917830.641
 121427516.352 6  94618848.87344  23106897.000                    23106903.898
 123920109.727 7  96561139.21043  23581220.906                    23581231.160
 113632295.992 7  88544668.62846  21623506.063                    21623512.133
 120543324.291 7  93930001.42644  22938651.734                    22938660.348
 118272305.590 7  92160281.51444  22506466.648                    22506474.523
 111965439.115 7  87245824.56545  21306316.969                    21306325.117
 108606608.679 8  84628544.938 7  20667145.336                    20667152.641
 11  8 18 17 39 30.0000000  0 10G01G24G08G23G03G19G28G11G13G07
 126633530.471 6  98675532.385 6  24097554.813                    24097568.301
 125893921.985 6  98099236.17943  23956822.711                    23956835.281
 115108627.328 7  89695073.26845  21904433.984                    21904443.039
 121538563.575 7  94705379.04843  23128027.992                    23128035.773
 124026709.474 6  96644203.87343  23601505.984                    23601516.172
 113695703.350 8  88594076.93946  21635572.188                    21635578.289
 120503541.865 7  93899002.17444  22931081.242                    22931088.934
 118207961.703 7  92110143.47744  22494222.656                    22494230.785
 112048728.736 8  87310725.53345  21322166.289                    21322175.242
 108571989.053 8  84601568.611 7  20660557.727                    20660564.859
 11  8 18 17 40  0.0000000  0 10G01G24G08G23G03G19G28G11G13G07
 126556261.486 6  98615322.854 6  24082850.281                    24082864.348
 125820834.907 6  98042285.36043  23942914.477                    23942927.715
 115038342.458 8  89640305.87345  21891059.414                    21891068.016
 121649751.738 7  94792019.04044  23149186.867                    23149194.250
 124133474.089 6  96727396.98943  23621822.758                    23621833.090
 113759589.602 8  88643858.41545  21647729.375                    21647735.707
 120463929.728 7  93868135.61944  22923543.320                    22923551.074
 118143908.492 7  92060231.94445  22482033.641                    22482041.336
 112132423.936 8  87375942.54346  21338093.398                    21338101.547
 108537628.522 8  84574794.183 7  20654018.891                    20654026.254
 11  8 18 17 40 30.0000000  0 10G01G24G08G23G03G19G28G11G13G07
 126478992.873 6  98555113.615 6  24068147.352                    24068160.660
 125747762.458 5  97985345.89342  23929007.742                    23929022.676
 114968128.885 7  89585594.00545  21877698.148                    21877706.617
 121761078.267 7  94878766.85344  23170372.094                    23170379.086
 124240400.745 6  96810716.38543  23642170.375                    23642180.824
 113823953.102 7  88694011.77546  21659978.055                    21659983.953
 120424487.330 7  93837401.28844  22916037.641                    22916045.691
 118080149.259 7  92010549.46545  22469900.180                    22469908.727
 112216522.146 7  87441473.58445  21354096.375                    21354104.598
 108503529.388 8  84548223.434 7  20647530.133                    20647537.465
 11  8 18 17 41  0.0000000  0 10G01G24G08G23G03G19G28G11G13G07
 126401727.759 6  98494907.158 6  24053443.258                    24053457.863
 125674707.846 6  97928420.27842  23915106.563                    23915120.996
 114897988.547 8  89530939.20745  21864350.781                    21864359.289
 121872540.628 7  94965620.50944  23191582.547                    23191590.105
 124347486.881 6  96894160.01443  23662548.195                    23662558.945
 113888791.566 7  88744535.23946  21672316.031                    21672322.059
 120385214.034 7  93806798.77944  22908563.727                    22908571.965
 118016687.373 7  91961098.68645  22457824.227                    22457832.668
 112301021.060 8  87507316.85745  21370175.656                    21370184.668
 108469694.048 8  84521858.243 7  20641091.445                    20641098.559
 11  8 18 17 41 30.0000000  0 10G01G24G08G23G03G19G28G11G13G07
 126324469.207 6  98434705.795 6  24038742.000                    24038755.785
 125601674.097 6  97871510.91843  23901208.641                    23901222.816
 114827923.192 7  89476342.84745  21851018.102                    21851026.516
 121984135.749 7  95052577.61743  23212818.375                    23212825.449
 124454729.819 6  96977725.87443  23682955.945                    23682966.395
 113954102.424 8  88795426.78345  21684744.352                    21684750.488
 120346109.170 7  93776327.46144  22901122.883                    22901131.164
 117953525.801 7  91911881.91345  22445805.281                    22445813.711
 112385917.931 8  87573470.23345  21386331.242                    21386339.313
 108436124.490 8  84495700.159 7  20634703.250                    20634710.746
 11  8 18 17 42  0.0000000  0 10G01G24G08G23G03G19G28G11G13G07
 126247219.376 6  98374511.176 6  24024041.906                    24024055.359
 125528663.562 6  97814619.69542  23887315.828                    23887329.164
 114757933.777 8  89421805.64845  21837699.563                    21837707.277
 122095860.069 7  95139635.41343  23234079.219                    23234086.020
 124562126.416 6  97061411.44043  23703392.914                    23703403.500
 114019882.536 8  88846684.00045  21697261.641                    21697267.945
 120307170.951 7  93745986.03644  22893712.688                    22893720.395
 117890666.537 7  91862900.72045  22433843.469                    22433852.023
 112471209.309 8  87639931.00245  21402561.930                    21402570.203
 108402821.650 8  84469749.898 7  20628365.875                    20628372.945
 11  8 18 17 42 30.0000000  0 10G01G24G08G23G03G19G28G11G13G07
 126169981.569 6  98314325.916 6  24009344.359                    24009357.855
 125455679.467 6  97757749.01542  23873427.461                    23873440.262
 114688022.531 8  89367329.37545  21824395.492                    21824404.074
 122207710.869 7  95226791.78043  23255364.148                    23255370.539
 124669673.913 6  97145214.58643  23723858.328                    23723869.391
 114086129.773 8  88898305.19945  21709867.992                    21709874.203
 120268398.884 7  93715774.05344  22886334.977                    22886342.719
 117828112.639 7  91814157.47045  22421939.555                    22421947.980
 112556892.683 7  87706697.21945  21418867.016                    21418875.285
 108369787.566 8  84444009.050 8  20622079.961                    20622086.957
 11  8 18 17 43  0.0000000  0 10G01G24G08G23G03G19G28G11G13G07
 126092758.706 6  98254152.349 7  23994648.352                    23994662.855
 125382725.177 7  97700901.60842  23859545.289                    23859557.102
 114618191.383 8  89312915.51245  21811107.367                    21811115.621
 122319685.616 7  95314044.66043  23276672.039                    23276678.660
 124777370.025 6  97229133.57443  23744352.945                    23744363.500
 114152842.057 8  88950288.77046  21722562.977                    21722569.445
 120229792.500 7  93685691.18544  22878988.430                    22878996.586
 117765867.412 7  91765654.72545  22410094.305                    22410102.594
 112642965.607 8  87773766.99145  21435246.266                    21435254.879
 108337024.599 8  84418479.471 7  20615845.063                    20615852.586
 11  8 18 17 43 30.0000000  0 10G01G24G08G23G03G19G28G11G13G07
 126015553.771 6  98193992.741 6  23979956.914                    23979971.473
 125309803.428 7  97644079.56843  23845668.398                    23845680.082
 114548442.149 8  89258565.47745  21797834.820                    21797842.867
 122431781.467 7  95401391.94043  23298002.820                    23298010.098
 124885212.178 6  97313166.31643  23764873.922                    23764884.996
 114220016.780 8  89002632.67645  21735346.258                    21735352.000
 120191350.560 7  93655736.45744  22871673.609                    22871681.008
 117703934.094 7  91717395.03345  22398308.773                    22398317.574
 112729425.291 7  87841138.13745  21451699.055                    21451707.203
 108304534.742 8  84393162.690 7  20609662.664                    20609670.195
 11  8 18 17 44  0.0000000  0 10G01G24G08G23G03G19G28G11G13G07
 125938369.973 6  98133849.611 6  23965269.438                    23965283.492
 125236917.261 7  97587285.25743  23831798.352                    23831810.184
 114478776.853 8  89204280.84545  21784577.102                    21784585.590
 122543995.365 7  95488831.20143  23319356.867                    23319364.238
 124993197.581 6  97397310.68543  23785422.992                    23785433.727
 114287651.485 8  89055335.01746  21748216.555                    21748222.965
 120153072.435 7  93625909.38444  22864388.758                    22864396.742
 117642315.607 7  91669380.66845  22386583.586                    22386591.930
 112816269.099 7  87908808.59145  21468225.141                    21468233.043
 108272319.907 8  84368060.232 7  20603532.172                    20603539.348
 11  8 18 17 44 30.0000000  0 10G01G24G08G23G03G19G28G11G13G07
 125861210.304 6  98073725.243 6  23950585.547                    23950600.820
 125164069.765 7  97530521.02943  23817936.281                    23817947.762
 114409197.554 8  89150063.21945  21771337.102                    21771345.867
 122656324.399 6  95576360.19044  23340731.734                    23340739.902
 125101323.702 6  97481564.71743  23805999.125                    23806009.039
 114355743.870 8  89108393.99946  21761174.172                    21761180.297
 120114957.406 7  93596209.38944  22857135.844                    22857143.887
 117581014.990 7  91621614.00545  22374918.156                    22374926.676
 112903494.470 8  87976776.37345  21484823.117                    21484831.551
 108240382.287 8  84343173.777 8  20597454.773                    20597462.402
 11  8 18 17 45  0.0000000  0 10G01G24G08G23G03G19G28G11G13G07
 125784077.392 6  98013621.726 6  23935907.328                    23935922.938
 125091263.576 7  97473789.03543  23804081.320                    23804093.066
 114339705.470 8  89095913.56245  21758113.047                    21758121.590
 122768765.341 6  95663976.35543  23362128.563                    23362135.809
 125209587.511 6  97565926.04943  23826601.445                    23826610.645
 114424290.927 8  89161807.27246  21774218.328                    21774224.914
 120077004.397 7  93566635.63044  22849913.875                    22849921.648
 117520034.511 7  91574096.80445  22363314.109                    22363322.090
 112991098.331 8  88045039.07245  21501493.984                    21501501.656
 108208723.021 8  84318504.214 7  20591430.359                    20591437.320
 11  8 18 17 45 30.0000000  0 10G01G24G08G23G03G19G28G11G13G07
 125706974.416 6  97953541.565 6  23921236.203                    23921249.980
 125018501.923 7  97417091.70943  23790234.938                    23790246.828
 114270302.835 8  89041833.59945  21744906.078                    21744914.395
 122881315.449 6  95751677.57643  23383545.984                    23383553.660
 125317986.587 6  97650392.79043  23847229.039                    23847239.090
 114493290.375 8  89215573.05545  21787348.188                    21787354.879
 120039212.622 7  93537187.51344  22842722.211                    22842729.871
 117459377.518 7  91526831.64745  22351771.438                    22351779.516
 113079077.863 8  88113594.50345  21518236.125                    21518243.961
 108177344.533 8  84294053.437 7  20585459.172                    20585466.352
 11  8 18 17 46  0.0000000  0 10G01G24G08G23G03G19G28G11G13G07
 125629904.243 6  97893486.934 6  23906568.797                    23906584.188
 124945787.767 6  97360431.43443  23776397.586                    23776409.383
 114200991.447 8  88987824.75145  21731716.516                    21731725.242
 122993972.508 6  95839462.15243  23404983.953                    23404991.973
 125426518.165 6  97734962.75143  23867881.867                    23867891.875
 114562739.967 8  89269689.60146  21800563.945                    21800570.531
 120001581.164 7  93507864.34844  22835561.016                    22835568.781
 117399047.093 7  91479820.96745  22340290.688                    22340298.789
 113167430.568 8  88182440.73045  21535048.781                    21535056.949
 108146248.817 8  84269823.010 7  20579542.117                    20579549.066
 11  8 18 17 46 30.0000000  0 10G01G24G08G23G03G19G28G11G13G07
 125552869.736 6  97833460.119 6  23891910.336                    23891924.242
 124873124.029 7  97303810.44643  23762570.500                    23762582.277
 114131773.256 8  88933888.51045  21718544.961                    21718553.309
 123106733.044 6  95927327.34543  23426442.102                    23426449.668
 125535179.712 6  97819634.03343  23888559.484                    23888569.270
 114632636.561 8  89324154.44846  21813865.242                    21813871.398
 119964108.987 7  93478665.28244  22828430.570                    22828438.020
 117339045.780 7  91433066.73545  22328872.898                    22328881.504
 113256153.431 8  88251575.37445  21551932.227                    21551940.059
 108115437.559 8  84245814.245 7  20573678.914                    20573686.000
 11  8 18 17 47  0.0000000  0 10G01G24G08G23G03G19G28G11G13G07
 125475873.550 6  97773463.162 6  23877258.367                    23877272.836
 124800513.513 7  97247230.94243  23748752.250                    23748764.715
 114062649.859 8  88880026.14545  21705391.172                    21705399.543
 123219594.165 7  96015270.93043  23447919.266                    23447926.719
 125643968.091 6  97904404.10843  23909261.586                    23909269.957
 114702977.703 8  89378965.69845  21827250.734                    21827256.953
 119926795.412 7  93449589.80544  22821329.891                    22821337.375
 117279376.205 7  91386571.00845  22317517.641                    22317526.414
 113345243.303 8  88320996.00145  21568885.930                    21568893.754
 108084912.414 8  84222028.420 7  20567869.672                    20567877.172
 11  8 18 17 47 30.0000000  0 10G01G24G08G23G03G19G28G11G13G07
 125398918.655 6  97713498.390 6  23862614.516                    23862628.273
 124727959.325 7  97190695.28943  23734946.328                    23734958.539
 113993623.000 8  88826239.01245  21692255.523                    21692264.027
 123332552.774 6  96103290.45443  23469414.734                    23469421.895
 125752881.096 6  97989271.34742  23929986.430                    23929995.602
 114773761.156 8  89434121.60145  21840720.203                    21840726.531
 119889639.461 7  93420637.14244  22814259.195                    22814267.078
 117220041.167 7  91340335.94844  22306226.641                    22306235.191
 113434697.068 8  88390700.19045  21585908.141                    21585916.500
 108054675.657 8  84198467.301 7  20562116.047                    20562123.059
 11  8 18 17 48  0.0000000  0 10G01G24G08G23G03G19G28G11G13G07
 125322008.642 6  97653568.569 6  23847978.867                    23847992.801
 124655464.871 6  97134206.17543  23721150.969                    23721163.285
 113924695.189 8  88772529.04445  21679139.242                    21679147.414
 123445606.178 6  96191383.84543  23490928.086                    23490935.473
 125861916.405 6  98074233.84042  23950735.617                    23950744.465
 114844984.346 8  89489620.15745  21854274.000                    21854280.223
 119852640.385 7  93391806.74244  22807218.297                    22807225.961
 117161044.322 7  91294364.42344  22294999.891                    22295008.559
 113524513.071 7  88460686.64245  21602999.508                    21603007.348
 108024729.360 8  84175132.536 8  20556417.367                    20556424.414
 11  8 18 17 48 30.0000000  0 10G01G24G08G23G03G19G28G11G13G07
 125245146.180 6  97593675.848 6  23833352.031                    23833366.250
 124583032.756 7  97077765.66143  23707366.977                    23707379.813
 113855868.234 8  88718897.68245  21666041.773                    21666050.113
 123558751.396 6  96279548.80643  23512458.016                    23512466.895
 125971070.928 6  98159289.27842  23971506.414                    23971516.398
 114916644.291 8  89545459.05645  21867910.344                    21867916.723
 119815796.951 7  93363097.62644  22800207.578                    22800214.996
 117102387.870 7  91248658.13045  22283837.813                    22283846.387
 113614687.587 8  88530952.43745  21620159.070                    21620167.395
 107995074.968 8  84152025.220 8  20550774.383                    20550781.613
 11  8 18 17 49  0.0000000  0 10G01G24G08G23G03G19G28G11G13G07
 125168333.914 6  97533822.219 6  23818736.195                    23818749.852
 124510665.829 7  97021375.95543  23693596.531                    23693609.113
 113787143.894 8  88665346.26845  21652964.438                    21652971.930
 123671985.357 6  96367782.87743  23534007.086                    23534014.660
 126080341.996 6  98244435.45842  23992300.000                    23992310.516
 114988738.262 8  89601636.14446  21881629.266                    21881635.430
 119779108.416 7  93334509.18944  22793225.125                    22793233.070
 117044074.645 7  91203219.29045  22272741.547                    22272749.676
 113705218.051 8  88601495.60345  21637386.742                    21637394.684
 107965714.192 8  84129146.697 7  20545186.961                    20545194.555
 11  8 18 17 49 30.0000000  0 10G01G24G08G23G03G19G28G11G13G07
 125091575.142 6  97474010.286 6  23804128.852                    23804143.355
 124438367.354 7  96965039.57443  23679838.664                    23679851.020
 113718524.081 8  88611876.30745  21639905.781                    21639914.277
 123785305.486 6  96456084.12143  23555571.539                    23555578.500
 126189727.361 6  98329670.69242  24013115.242                    24013126.379
 115061264.225 8  89658149.84845  21895430.195                    21895436.793
 119742574.189 7  93306040.97244  22786273.000                    22786281.438
 116986107.738 7  91158050.32045  22261710.680                    22261719.258
 113796101.542 7  88672313.85345  21654680.883                    21654689.473
 107936649.715 8  84106499.048 7  20539656.555                    20539663.742
 11  8 18 17 50  0.0000000  0 10G01G24G08G23G03G19G28G11G13G07
 125014872.894 6  97414242.410 6  23789532.938                    23789547.715
 124366140.279 7  96908758.83343  23666093.992                    23666106.676
 113650010.840 8  88558489.38945  21626868.516                    21626876.637
 123898708.862 6  96544450.22643  23577151.063                    23577158.422
 126299224.152 6  98414992.78443  24033952.156                    24033963.090
 115134219.266 8  89714997.89746  21909313.016                    21909320.102
 119706192.789 7  93277691.86744  22779350.125                    22779358.516
 116928490.103 7  91113153.50745  22250746.133                    22250754.551
 113887335.255 7  88743404.99945  21672042.469                    21672050.559
 107907882.772 8  84084083.257 7  20534182.219                    20534189.414
 11  8 18 17 50 30.0000000  0 10G01G24G08G23G03G19G28G11G13G07
 124938230.154 6  97354520.908 6  23774947.945                    23774962.523
 124293987.997 7  96852536.35043  23652364.328                    23652376.289
 113581605.924 8  88505186.89145  21613851.313                    21613859.324
 124012192.658 6  96632878.98643  23598746.383                    23598754.402
 126408829.524 6  98500399.50342  24054809.234                    24054820.445
 115207600.525 8  89772178.05145  21923277.469                    21923283.855
 119669963.805 7  93249461.52044  22772455.531                    22772464.121
 116871224.419 7  91068530.93345  22239848.789                    22239857.453
 113978916.181 7  88814766.71645  21689469.805                    21689478.199
 107879415.551 8  84061901.007 7  20528764.992                    20528772.176
 11  8 18 17 51  0.0000000  0 10G01G24G08G23G03G19G28G11G13G07
 124861649.436 6  97294847.717 6  23760375.445                    23760389.527
 124221912.656 7  96796373.81443  23638647.375                    23638660.738
 113513311.199 8  88451970.24746  21600855.266                    21600863.723
 124125753.374 6  96721367.67443  23620356.078                    23620364.430
 126518540.990 6  98585888.86743  24075687.500                    24075698.094
 115281405.006 8  89829688.00045  21937322.031                    21937328.422
 119633885.695 7  93221348.71344  22765590.805                    22765599.191
 116814312.895 7  91024184.34345  22229019.719                    22229027.281
 114070840.912 7  88886396.32245  21706962.297                    21706970.379
 107851249.115 8  84039953.135 7  20523405.047                    20523412.324
 11  8 18 17 51 30.0000000  0 10G01G24G08G23G03G19G28G11G13G07
 124785134.454 6  97235225.751 6  23745815.156                    23745829.387
 124149918.258 7  96740274.39543  23624947.891                    23624960.199
 113445129.204 8  88398841.44345  21587880.680                    21587888.461
 124239388.852 6  96809914.64443  23641980.773                    23641989.113
 126628356.509 6  98671459.35943  24096584.781                    24096594.648
 115355631.169 8  89887526.53445  21951446.195                    21951453.082
 119597958.365 7  93193353.41944  22758753.430                    22758762.055
 116757759.382 7  90980116.70645  22218257.523                    22218265.609
 114163107.397 7  88958292.23245  21724520.195                    21724528.410
 107823387.092 8  84018242.466 7  20518103.117                    20518110.590
 11  8 18 17 52  0.0000000  0 10G01G24G08G23G03G19G28G11G13G07
 124708687.413 6  97175656.732 6  23731267.516                    23731282.137
 124078007.143 7  96684239.86743  23611263.859                    23611275.898
 113377061.210 8  88345801.46245  21574927.617                    21574935.828
 124353095.800 6  96898517.25643  23663618.273                    23663627.063
 126738273.051 6  98757108.56343  24117501.375                    24117512.324
 115430275.477 8  89945690.90045  21965651.055                    21965657.395
 119562180.249 7  93165474.38045  22751946.086                    22751953.250
 116701566.009 7  90936329.70045  22207564.250                    22207572.504
 114255712.310 7  89030451.83745  21742142.492                    21742150.918
 107795829.804 8  83996769.248 7  20512859.281                    20512866.277
 11  8 18 17 52 30.0000000  0 10G01G24G08G23G03G19G28G11G13G07
 124632312.146 6  97116143.648 6  23716733.617                    23716748.457
 124006182.695 7  96628272.85943  23597596.180                    23597607.555
 113309109.567 8  88292852.14846  21561996.781                    21562004.426
 124466871.391 6  96987173.40643  23685269.031                    23685277.977
 126848288.064 6  98842834.49043  24138436.211                    24138447.523
 115505335.467 7  90004179.16845  21979934.359                    21979940.660
 119526550.736 7  93137711.15145  22745165.750                    22745173.219
 116645735.693 7  90892825.60245  22196939.820                    22196948.164
 114348652.739 7  89102872.91445  21759828.594                    21759836.945
 107768579.692 8  83975535.397 7  20507673.578                    20507681.145
 11  8 18 17 53  0.0000000  0 10G01G24G08G23G03G19G28G11G13G07
 124556011.150 6  97056688.428 6  23702214.313                    23702228.453
 123934447.893 6  96572375.71943  23583944.508                    23583956.496
 113241276.330 8  88239995.11245  21549088.680                    21549096.738
 124580712.872 6  97075880.85943  23706932.906                    23706941.078
 126958399.033 6  98928635.17743  24159389.570                    24159401.043
 115580808.691 8  90062989.44545  21994296.477                    21994303.109
 119491068.990 7  93110063.07744  22738413.453                    22738421.441
 116590270.973 7  90849606.37745  22186384.977                    22186393.316
 114441925.757 7  89175553.13245  21777577.438                    21777586.246
 107741638.803 8  83954542.503 7  20502547.352                    20502554.551
 11  8 18 17 53 30.0000000  0  9G01G24G08G23G19G28G11G13G07
 124479787.419 6  96997293.420 6  23687709.094                    23687722.844
 123862805.707 6  96516550.70543  23570311.375                    23570323.551
 113173563.304 8  88187231.73246  21536203.672                    21536211.285
 124694617.297 6  97164637.37943  23728608.445                    23728616.844
 115656692.160 7  90122119.38945  22008736.734                    22008743.379
 119455733.931 7  93082529.29844  22731689.703                    22731697.320
 116535174.816 7  90806674.34745  22175900.594                    22175908.461
 114535528.335 7  89248490.15045  21795389.805                    21795398.051
 107715008.714 8  83933791.781 8  20497479.398                    20497486.555
 11  8 18 17 54  0.0000000  0  9G01G24G08G23G19G28G11G13G07
 124403644.111 6  96937961.048 6  23673219.492                    23673232.520
 123791259.354 7  96460800.40844  23556697.031                    23556708.805
 113105972.773 8  88134563.80445  21523341.000                    21523349.020
 124808581.822 6  97253440.66943  23750295.266                    23750303.613
 115732983.167 7  90181566.89345  22023254.344                    22023261.031
 119420544.570 7  93055109.04145  22724993.383                    22725000.816
 116480450.271 7  90764031.85645  22165487.484                    22165495.164
 114629457.705 7  89321681.81745  21813263.703                    21813272.137
 107688691.323 8  83913284.727 7  20492471.664                    20492478.887
 11  8 18 17 54 30.0000000  0  9G01G24G08G23G19G28G11G13G07
 124327584.863 6  96878694.200 6  23658746.422                    23658758.840
 123719812.346 7  96405127.49943  23543101.047                    23543113.031
 113038507.189 8  88081993.24045  21510503.148                    21510510.980
 124922604.324 6  97342289.19343  23771992.992                    23772001.332
 115809679.687 7  90241330.38445  22037849.273                    22037856.102
 119385500.431 7  93027801.94445  22718324.477                    22718331.641
 116426100.144 7  90721681.15445  22155144.672                    22155152.863
 114723711.518 7  89395126.28045  21831200.219                    21831208.199
 107662689.485 8  83893023.557 7  20487523.430                    20487530.215
 11  8 18 17 55  0.0000000  0  9G01G24G08G23G19G28G11G13G07
 124251612.091 6  96819494.765 6  23644287.727                    23644301.672
 123648467.152 7  96349533.90543  23529524.547                    23529535.691
 112971168.104 8  88029521.24945  21497688.672                    21497696.617
 125036681.159 6  97431180.03242  23793701.547                    23793709.699
 115886778.425 7  90301407.29345  22052521.094                    22052527.410
 119350600.313 7  93000607.07544  22711683.281                    22711690.465
 116372126.694 7  90679623.95045  22144873.711                    22144881.379
 114818286.247 7  89468820.81845  21849196.961                    21849205.160
 107637004.272 8  83873009.101 7  20482635.484                    20482642.602
 11  8 18 17 55 30.0000000  0  9G01G24G08G23G19G28G11G13G07
 124175728.790 7  96760365.019 6  23629848.156                    23629861.496
 123577226.723 7  96294021.95643  23515967.633                    23515978.676
 112903957.466 8  87977149.34446  21484899.297                    21484907.500
 125150809.445 6  97520110.95343  23815418.867                    23815427.789
 115964276.547 7  90361795.41645  22067268.398                    22067274.508
 119315843.201 7  92973523.63545  22705069.180                    22705076.473
 116318532.593 7  90637862.34545  22134675.289                    22134683.191
 114913178.672 7  89542762.90345  21867254.422                    21867262.758
 107611637.337 8  83853242.660 7  20477808.477                    20477815.527
 11  8 18 17 56  0.0000000  0  9G01G24G08G23G19G28G11G13G07
 124099937.587 7  96701307.042 6  23615425.203                    23615438.723
 123506093.936 7  96238593.89543  23502431.680                    23502442.250
 112836876.999 8  87924878.86445  21472133.805                    21472141.941
 125264986.144 6  97609079.61443  23837146.977                    23837155.133
 116042171.131 7  90422492.46945  22082090.484                    22082097.262
 119281227.979 7  92946550.75345  22698482.078                    22698489.879
 116265320.463 7  90596398.38645  22124549.172                    22124556.953
 115008385.606 7  89616950.06245  21885371.891                    21885380.074
 107586590.210 8  83833725.426 7  20473042.219                    20473049.547
 11  8 18 17 56 30.0000000  0  9G01G24G08G23G19G28G11G13G07
 124024241.706 7  96642323.386 6  23601020.641                    23601033.965
 123435072.308 7  96183252.45043  23488916.539                    23488927.730
 112769928.945 8  87872711.56846  21459394.313                    21459402.375
 125379208.796 6  97698084.05243  23858883.289                    23858891.188
 116120459.933 7  90483496.69345  22096988.711                    22096995.203
 119246753.861 7  92919687.81445  22691922.109                    22691929.539
 116212493.171 7  90555234.28845  22114496.578                    22114504.402
 115103904.388 7  89691380.21745  21903548.359                    21903556.793
 107561865.358 8  83814459.319 7  20468337.336                    20468344.637
 11  8 18 17 57  0.0000000  0  9G01G24G08G23G19G28G11G13G07
 123948644.901 7  96583416.887 6  23586635.539                    23586647.969
 123364164.918 7  96128000.04343  23475423.156                    23475434.809
 112703116.039 8  87820649.58646  21446679.977                    21446687.906
 125493474.510 6  97787122.04943  23880627.328                    23880635.133
 116199140.163 7  90544805.93145  22111961.109                    22111967.789
 119212420.280 7  92892934.40045  22685388.633                    22685396.391
 116160054.101 7  90514372.70145  22104517.695                    22104525.348
 115199732.360 7  89766051.29845  21921784.000                    21921792.430
 107537464.858 8  83795445.946 8  20463693.953                    20463701.398
 11  8 18 17 57 30.0000000  0  9G01G24G08G23G19G28G11G13G07
 123873149.982 7  96524589.777 6  23572269.203                    23572281.680
 123293375.291 7  96072839.43443  23461952.117                    23461964.246
 112636440.382 8  87768694.54646  21433992.281                    21434000.461
 125607781.139 6  97876191.96442  23902379.180                    23902386.844
 116278209.363 7  90606418.26045  22127007.836                    22127014.285
 119178226.364 7  92866289.81045  22678881.438                    22678889.656
 116108005.942 7  90473815.72645  22094613.094                    22094620.848
 115295866.913 7  89840961.27045  21940077.641                    21940086.102
 107513391.035 8  83776687.126 8  20459112.922                    20459120.223
 11  8 18 17 58  0.0000000  0  9G01G24G08G23G19G28G11G13G07
 123797760.101 7  96465844.506 6  23557922.430                    23557935.824
 123222705.793 7  96017772.40743  23448504.469                    23448516.148
 112569903.800 8  87716847.88346  21421330.805                    21421338.340
 125722125.224 6  97965291.03142  23924137.711                    23924146.605
 116357664.643 7  90668331.43045  22142127.656                    22142134.020
 119144170.895 7  92839753.10445  22672401.070                    22672408.617
 116056350.298 7  90433564.60745  22084783.289                    22084790.992
 115392304.701 7  89916107.51945  21958429.297                    21958437.926
 107489645.084 8  83758183.786 7  20454593.922                    20454601.469
 11  8 18 17 58 30.0000000  0 10G01G24G08G23G17G19G28G11G13G07
 123722477.930 7  96407183.156 6  23543597.430                    23543610.188
 123152159.643 7  95962801.48144  23435079.805                    23435091.191
 112503508.293 8  87665111.13946  21408695.945                    21408703.863
 125836503.948 6  98054417.04742  23945904.367                    23945912.828
 129464460.29416 100881462.22816  24636278.313                    24636289.051
 116437503.230 7  90730543.27545  22157320.492                    22157327.000
 119110252.980 7  92813323.58545  22665946.531                    22665954.738
 116005090.591 7  90393622.01645  22075028.906                    22075036.598
 115489042.426 7  89991487.49945  21976838.344                    21976846.559
 107466228.934 8  83739937.426 7  20450138.094                    20450145.199
 11  8 18 17 59  0.0000000  0 10G01G24G08G23G17G19G28G11G13G07
 123647306.964 7  96348608.497 6  23529291.977                    23529304.840
 123081740.688 7  95907929.70644  23421679.789                    23421690.895
 112437256.456 8  87613486.35646  21396088.672                    21396096.820
 125950914.901 6  98143568.21743  23967676.445                    23967685.133
 129359787.356 6 100799898.952 6  24616359.438                    24616370.496
 116517722.317 7  90793051.62645  22172585.688                    22172592.223
 119076472.250 7  92787000.95445  22659518.398                    22659526.207
 115954229.665 7  90353990.15845  22065350.320                    22065358.566
 115586077.712 7  90067099.33745  21995303.406                    21995311.227
 107443144.749 8  83721949.748 7  20445745.211                    20445752.094
 11  8 18 17 59 30.0000000  0 10G01G24G08G23G17G19G28G11G13G07
 123572250.049 7  96290122.694 6  23515009.359                    23515021.707
 123011451.572 7  95853159.08344  23408303.672                    23408315.199
 112371150.217 8  87561975.03546  21383509.148                    21383516.938
 126065355.154 6  98232742.18343  23989453.313                    23989462.262
 129255214.906 6 100718414.010 6  24596459.852                    24596470.918
 116598319.503 7  90855854.57845  22187922.859                    22187929.684
 119042827.411 7  92760784.20245  22653115.867                    22653123.473
 115903769.954 7  90314670.95245  22055748.063                    22055755.906
 115683407.374 7  90142940.56845  22013824.664                    22013832.863
 107420394.322 8  83704222.139 8  20441415.984                    20441423.637
 11  8 18 18  0  0.0000000  0 10G01G24G08G23G17G19G28G11G13G07
 123497310.291 7  96231728.180 6  23500748.336                    23500761.797
 122941294.909 7  95798491.67243  23394953.227                    23394964.660
 112305191.394 8  87510578.57346  21370957.531                    21370965.207
 126179821.615 6  98321936.57442  24011236.172                    24011244.438
 129150745.049 7 100637009.016 6  24576580.000                    24576591.500
 116679291.599 7  90918949.68045  22203331.281                    22203337.660
 119009317.353 7  92734672.48445  22646739.422                    22646746.648
 115853713.833 7  90275666.19545  22046223.172                    22046230.746
 115781028.354 7  90219008.76845  22032401.383                    22032409.332
 107397979.305 8  83686755.893 7  20437150.945                    20437158.352
 11  8 18 18  0 30.0000000  0 10G01G24G08G23G17G19G28G11G13G07
 123422490.478 7  96173427.110 6  23486510.719                    23486524.242
 122871273.946 7  95743929.98844  23381628.461                    23381639.781
 112239382.275 7  87459298.76946  21358434.352                    21358441.910
 126294311.383 6  98411149.11043  24033023.367                    24033031.242
 129046379.312 6 100555685.151 6  24556719.500                    24556731.055
 116760635.466 7  90982334.47245  22218810.852                    22218817.082
 118975940.976 7  92708664.93545  22640388.266                    22640395.430
 115804063.681 7  90236977.79745  22036774.422                    22036782.508
 115878937.112 7  90295301.23444  22051032.320                    22051040.926
 107375901.350 8  83669552.288 8  20432949.242                    20432956.793
 11  8 18 18  1  0.0000000  0 10G01G24G08G23G17G19G28G11G13G07
 123347793.926 7  96115222.077 6  23472296.586                    23472309.984
 122801391.995 7  95689476.61144  23368329.852                    23368341.445
 112173725.225 8  87408137.45146  21345940.133                    21345948.328
 126408821.607 6  98500377.62243  24054813.234                    24054822.164
 128942120.091 6 100474444.258 5  24536880.164                    24536891.176
 116842348.317 7  91046006.78345  22234360.055                    22234366.844
 118942697.668 7  92682761.08145  22634061.844                    22634069.574
 115754822.365 7  90198607.95245  22027404.445                    22027411.852
 115977130.987 7  90371815.87345  22069718.563                    22069726.719
 107354162.327 8  83652612.787 7  20428812.586                    20428820.039
 11  8 18 18  1 30.0000000  0 10G01G24G08G23G17G19G28G11G13G07
 123273223.154 7  96057115.095 6  23458105.648                    23458119.066
 122731651.854 7  95635133.75544  23355059.563                    23355070.996
 112108221.973 8  87357095.97146  21333475.828                    21333483.496
 126523349.552 6  98589619.91442  24076607.789                    24076615.832
 128837969.203 6 100393287.733 5  24517061.180                    24517070.648
 116924427.727 7  91109964.73345  22249979.211                    22249986.043
 118909586.037 7  92656959.83745  22627760.906                    22627768.254
 115705992.266 7  90160558.54645  22018112.313                    22018120.051
 116075606.666 7  90448550.10245  22088457.914                    22088466.199
 107332763.932 8  83635938.722 7  20424740.633                    20424747.520
 11  8 18 18  2  0.0000000  0 10G01G24G08G23G17G19G28G11G13G07
 123198781.669 7  95999108.861 6  23443939.953                    23443953.660
 122662056.661 7  95580903.85043  23341815.508                    23341827.441
 112042874.613 8  87306175.97546  21321040.133                    21321048.055
 126637892.629 6  98678874.01042  24098404.609                    24098413.543
 128733929.033 6 100312217.463 5  24497262.969                    24497271.512
 117006870.670 7  91174205.95345  22265668.000                    22265674.117
 118876605.330 7  92631260.61245  22621484.305                    22621492.305
 115657576.042 7  90122831.64145  22008898.734                    22008907.086
 116174361.356 7  90525501.72845  22107250.008                    22107258.551
 107311707.958 8  83619531.458 7  20420733.828                    20420741.039
 11  8 18 18  2 30.0000000  0 10G01G24G08G23G17G19G28G11G13G07
 123124472.115 7  95941205.423 6  23429799.555                    23429812.555
 122592609.208 7  95526789.04744  23328599.602                    23328611.504
 111977685.526 8  87255379.29546  21308635.125                    21308643.344
 126752447.719 6  98768137.43342  24120203.859                    24120212.402
 128630001.326 6 100231234.833 5  24477486.078                    24477494.961
 117089674.584 7  91238728.43745  22281424.586                    22281431.152
 118843754.385 7  92605662.49845  22615233.180                    22615240.984
 115609576.043 7  90085429.06845  21999764.938                    21999772.820
 116273391.691 7  90602668.15045  22126095.234                    22126103.055
 107290996.390 8  83603392.573 8  20416792.531                    20416799.621
 11  8 18 18  3  0.0000000  0 10G01G24G08G23G17G19G28G11G13G07
 123050297.442 7  95883407.069 6  23415684.664                    23415697.262
 122523312.744 7  95472791.89944  23315414.031                    23315424.930
 111912656.495 8  87204707.34046  21296260.602                    21296268.418
 126867011.944 6  98857407.97543  24142004.859                    24142014.086
 128526188.355 6 100150341.723 5  24457729.656                    24457740.566
 117172836.376 7  91303529.79945  22297249.875                    22297256.402
 118811032.530 7  92580164.98345  22609006.352                    22609013.727
 115561994.731 7  90048352.74645  21990710.305                    21990718.422
 116372694.603 7  90680046.97445  22144991.664                    22144999.848
 107270630.792 8  83587523.268 8  20412917.398                    20412924.809
 11  8 18 18  3 30.0000000  0 10G01G24G08G23G17G19G28G11G13G07
 122976261.675 7  95825716.931 6  23401596.844                    23401608.852
 122454170.845 7  95418915.18444  23302256.500                    23302267.445
 111847790.565 8  87154162.46746  21283916.375                    21283924.637
 126981583.104 6  98946683.92042  24163807.438                    24163816.922
 128422492.971 6 100069540.211 5  24437996.906                    24438007.840
 117256353.647 7  91368608.15545  22313142.734                    22313149.391
 118778439.276 7  92554767.64445  22602804.070                    22602811.586
 115514835.358 7  90011605.19545  21981736.477                    21981744.559
 116472267.787 7  90757636.40145  22163940.180                    22163948.875
 107250613.883 8  83571925.675 8  20409108.016                    20409115.586
 11  8 18 18  4  0.0000000  0 10G01G24G08G23G17G19G28G11G13G07
 122902367.515 7  95768137.173 7  23387533.656                    23387547.508
 122385186.391 7  95365161.16944  23289128.234                    23289139.801
 111783089.835 8  87103746.33146  21271604.492                    21271612.816
 127096158.479 6  99035963.11342  24185611.344                    24185619.531
 128318916.524 6  99988831.360 6  24418287.555                    24418298.141
 117340223.492 7  91433961.24245  22329102.828                    22329109.324
 118745973.341 7  92529469.52145  22596626.117                    22596634.297
 115468100.241 8  89975188.24345  21972842.883                    21972851.211
 116572108.082 7  90835433.97344  22182938.992                    22182947.379
 107230947.079 8  83556600.878 8  20405365.586                    20405373.035
